<?xml version="1.0" encoding="UTF-8" standalone="no" ?>
<gpx xmlns="http://www.topografix.com/GPX/1/1" xmlns:xsi="http://www.w3.org/2001/XMLSchema-instance" xsi:schemaLocation="http://www.topografix.com/GPX/1/1 http://www.topografix.com/GPX/1/1/gpx.xsd" version="1.1" creator="VisuGPX - https://www.visugpx.com">
  <metadata>
    <name>coub-voiron-reaumont-chirens-43k700m</name>
    <desc><![CDATA[

]]></desc>
  </metadata>
  <trk>
    <name><![CDATA[coub-voiron-reaumont-chirens-43k700m]]></name>
    <desc><![CDATA[

]]></desc>
    <trkseg>
      <trkpt lat="45.35392" lon="5.61138">
        <ele>310.16</ele>
        <time>2023-01-12T14:52:31Z</time>
      </trkpt>
      <trkpt lat="45.35346" lon="5.61036">
        <ele>309.68</ele>
        <time>2023-01-12T14:52:45Z</time>
      </trkpt>
      <trkpt lat="45.35344" lon="5.61027">
        <ele>309.2</ele>
        <time>2023-01-12T14:52:46Z</time>
      </trkpt>
      <trkpt lat="45.35343" lon="5.61018">
        <ele>309.68</ele>
        <time>2023-01-12T14:52:47Z</time>
      </trkpt>
      <trkpt lat="45.35343" lon="5.61009">
        <ele>309.2</ele>
        <time>2023-01-12T14:52:48Z</time>
      </trkpt>
      <trkpt lat="45.35343" lon="5.60999">
        <ele>308.72</ele>
        <time>2023-01-12T14:52:49Z</time>
      </trkpt>
      <trkpt lat="45.35346" lon="5.60935">
        <ele>305.84</ele>
        <time>2023-01-12T14:52:55Z</time>
      </trkpt>
      <trkpt lat="45.35348" lon="5.60877">
        <ele>305.36</ele>
        <time>2023-01-12T14:53:01Z</time>
      </trkpt>
      <trkpt lat="45.35346" lon="5.60869">
        <ele>304.88</ele>
        <time>2023-01-12T14:53:02Z</time>
      </trkpt>
      <trkpt lat="45.35344" lon="5.60861">
        <ele>305.36</ele>
        <time>2023-01-12T14:53:03Z</time>
      </trkpt>
      <trkpt lat="45.35341" lon="5.60855">
        <ele>305.36</ele>
        <time>2023-01-12T14:53:04Z</time>
      </trkpt>
      <trkpt lat="45.35337" lon="5.60849">
        <ele>305.36</ele>
        <time>2023-01-12T14:53:05Z</time>
      </trkpt>
      <trkpt lat="45.35327" lon="5.60828">
        <ele>304.88</ele>
        <time>2023-01-12T14:53:08Z</time>
      </trkpt>
      <trkpt lat="45.35326" lon="5.6082">
        <ele>305.36</ele>
        <time>2023-01-12T14:53:09Z</time>
      </trkpt>
      <trkpt lat="45.35328" lon="5.60813">
        <ele>304.88</ele>
        <time>2023-01-12T14:53:10Z</time>
      </trkpt>
      <trkpt lat="45.35331" lon="5.60806">
        <ele>304.88</ele>
        <time>2023-01-12T14:53:11Z</time>
      </trkpt>
      <trkpt lat="45.35335" lon="5.60801">
        <ele>305.36</ele>
        <time>2023-01-12T14:53:12Z</time>
      </trkpt>
      <trkpt lat="45.35339" lon="5.60796">
        <ele>304.88</ele>
        <time>2023-01-12T14:53:13Z</time>
      </trkpt>
      <trkpt lat="45.35378" lon="5.60739">
        <ele>303.43</ele>
        <time>2023-01-12T14:53:25Z</time>
      </trkpt>
      <trkpt lat="45.3538" lon="5.6074">
        <ele>303.43</ele>
        <time>2023-01-12T14:53:26Z</time>
      </trkpt>
      <trkpt lat="45.35402" lon="5.60756">
        <ele>303.91</ele>
        <time>2023-01-12T14:53:37Z</time>
      </trkpt>
      <trkpt lat="45.35403" lon="5.60758">
        <ele>307.76</ele>
        <time>2023-01-12T12:25:21Z</time>
      </trkpt>
      <trkpt lat="45.35405" lon="5.60763">
        <ele>308.72</ele>
        <time>2023-01-12T12:25:22Z</time>
      </trkpt>
      <trkpt lat="45.35408" lon="5.60768">
        <ele>308.24</ele>
        <time>2023-01-12T12:25:23Z</time>
      </trkpt>
      <trkpt lat="45.35412" lon="5.60771">
        <ele>308.24</ele>
        <time>2023-01-12T12:25:24Z</time>
      </trkpt>
      <trkpt lat="45.35416" lon="5.60775">
        <ele>308.24</ele>
        <time>2023-01-12T12:25:25Z</time>
      </trkpt>
      <trkpt lat="45.35477" lon="5.6083">
        <ele>308.24</ele>
        <time>2023-01-12T12:25:39Z</time>
      </trkpt>
      <trkpt lat="45.35486" lon="5.60839">
        <ele>308.24</ele>
        <time>2023-01-12T12:25:41Z</time>
      </trkpt>
      <trkpt lat="45.35489" lon="5.60845">
        <ele>308.24</ele>
        <time>2023-01-12T12:25:42Z</time>
      </trkpt>
      <trkpt lat="45.35492" lon="5.60851">
        <ele>308.72</ele>
        <time>2023-01-12T12:25:43Z</time>
      </trkpt>
      <trkpt lat="45.35494" lon="5.60857">
        <ele>308.72</ele>
        <time>2023-01-12T12:25:44Z</time>
      </trkpt>
      <trkpt lat="45.35497" lon="5.60864">
        <ele>308.24</ele>
        <time>2023-01-12T12:25:45Z</time>
      </trkpt>
      <trkpt lat="45.355" lon="5.6087">
        <ele>308.72</ele>
        <time>2023-01-12T12:25:46Z</time>
      </trkpt>
      <trkpt lat="45.35503" lon="5.60876">
        <ele>308.72</ele>
        <time>2023-01-12T12:25:47Z</time>
      </trkpt>
      <trkpt lat="45.35506" lon="5.60881">
        <ele>308.24</ele>
        <time>2023-01-12T12:25:48Z</time>
      </trkpt>
      <trkpt lat="45.3551" lon="5.60886">
        <ele>308.72</ele>
        <time>2023-01-12T12:25:49Z</time>
      </trkpt>
      <trkpt lat="45.35514" lon="5.60891">
        <ele>308.72</ele>
        <time>2023-01-12T12:25:50Z</time>
      </trkpt>
      <trkpt lat="45.35571" lon="5.60969">
        <ele>309.68</ele>
        <time>2023-01-12T12:26:05Z</time>
      </trkpt>
      <trkpt lat="45.35606" lon="5.6106">
        <ele>310.16</ele>
        <time>2023-01-12T12:26:19Z</time>
      </trkpt>
      <trkpt lat="45.35606" lon="5.61067">
        <ele>309.68</ele>
        <time>2023-01-12T12:26:20Z</time>
      </trkpt>
      <trkpt lat="45.35606" lon="5.61074">
        <ele>309.68</ele>
        <time>2023-01-12T12:26:21Z</time>
      </trkpt>
      <trkpt lat="45.35604" lon="5.61089">
        <ele>310.16</ele>
        <time>2023-01-12T12:26:23Z</time>
      </trkpt>
      <trkpt lat="45.35605" lon="5.61096">
        <ele>310.16</ele>
        <time>2023-01-12T12:26:24Z</time>
      </trkpt>
      <trkpt lat="45.35608" lon="5.61102">
        <ele>310.64</ele>
        <time>2023-01-12T12:26:25Z</time>
      </trkpt>
      <trkpt lat="45.35612" lon="5.61106">
        <ele>311.12</ele>
        <time>2023-01-12T12:26:26Z</time>
      </trkpt>
      <trkpt lat="45.35617" lon="5.61107">
        <ele>310.64</ele>
        <time>2023-01-12T12:26:27Z</time>
      </trkpt>
      <trkpt lat="45.35622" lon="5.61105">
        <ele>310.64</ele>
        <time>2023-01-12T12:26:28Z</time>
      </trkpt>
      <trkpt lat="45.35627" lon="5.611">
        <ele>310.64</ele>
        <time>2023-01-12T12:26:29Z</time>
      </trkpt>
      <trkpt lat="45.3563" lon="5.61093">
        <ele>310.16</ele>
        <time>2023-01-12T12:26:30Z</time>
      </trkpt>
      <trkpt lat="45.35632" lon="5.61086">
        <ele>310.16</ele>
        <time>2023-01-12T12:26:31Z</time>
      </trkpt>
      <trkpt lat="45.35637" lon="5.61071">
        <ele>310.16</ele>
        <time>2023-01-12T12:26:33Z</time>
      </trkpt>
      <trkpt lat="45.35689" lon="5.60977">
        <ele>307.28</ele>
        <time>2023-01-12T12:26:46Z</time>
      </trkpt>
      <trkpt lat="45.3578" lon="5.60847">
        <ele>305.84</ele>
        <time>2023-01-12T12:27:06Z</time>
      </trkpt>
      <trkpt lat="45.35873" lon="5.60732">
        <ele>305.36</ele>
        <time>2023-01-12T12:27:26Z</time>
      </trkpt>
      <trkpt lat="45.35967" lon="5.60631">
        <ele>303.91</ele>
        <time>2023-01-12T12:27:45Z</time>
      </trkpt>
      <trkpt lat="45.36063" lon="5.60537">
        <ele>302.95</ele>
        <time>2023-01-12T12:28:04Z</time>
      </trkpt>
      <trkpt lat="45.36149" lon="5.60468">
        <ele>299.59</ele>
        <time>2023-01-12T12:28:19Z</time>
      </trkpt>
      <trkpt lat="45.36155" lon="5.60462">
        <ele>299.59</ele>
        <time>2023-01-12T12:28:20Z</time>
      </trkpt>
      <trkpt lat="45.3616" lon="5.60455">
        <ele>299.11</ele>
        <time>2023-01-12T12:28:21Z</time>
      </trkpt>
      <trkpt lat="45.36165" lon="5.60447">
        <ele>298.63</ele>
        <time>2023-01-12T12:28:22Z</time>
      </trkpt>
      <trkpt lat="45.3617" lon="5.60439">
        <ele>298.63</ele>
        <time>2023-01-12T12:28:23Z</time>
      </trkpt>
      <trkpt lat="45.36174" lon="5.60429">
        <ele>297.67</ele>
        <time>2023-01-12T12:28:24Z</time>
      </trkpt>
      <trkpt lat="45.36177" lon="5.60419">
        <ele>297.67</ele>
        <time>2023-01-12T12:28:25Z</time>
      </trkpt>
      <trkpt lat="45.36181" lon="5.60409">
        <ele>297.18</ele>
        <time>2023-01-12T12:28:26Z</time>
      </trkpt>
      <trkpt lat="45.36183" lon="5.60399">
        <ele>296.7</ele>
        <time>2023-01-12T12:28:27Z</time>
      </trkpt>
      <trkpt lat="45.36184" lon="5.60388">
        <ele>296.22</ele>
        <time>2023-01-12T12:28:28Z</time>
      </trkpt>
      <trkpt lat="45.36183" lon="5.60377">
        <ele>296.7</ele>
        <time>2023-01-12T12:28:29Z</time>
      </trkpt>
      <trkpt lat="45.36182" lon="5.60367">
        <ele>296.22</ele>
        <time>2023-01-12T12:28:30Z</time>
      </trkpt>
      <trkpt lat="45.3618" lon="5.60346">
        <ele>295.26</ele>
        <time>2023-01-12T12:28:32Z</time>
      </trkpt>
      <trkpt lat="45.36191" lon="5.60201">
        <ele>294.3</ele>
        <time>2023-01-12T12:28:47Z</time>
      </trkpt>
      <trkpt lat="45.36213" lon="5.60129">
        <ele>290.94</ele>
        <time>2023-01-12T12:28:55Z</time>
      </trkpt>
      <trkpt lat="45.36216" lon="5.60119">
        <ele>290.94</ele>
        <time>2023-01-12T12:28:56Z</time>
      </trkpt>
      <trkpt lat="45.36232" lon="5.60074">
        <ele>289.49</ele>
        <time>2023-01-12T12:29:01Z</time>
      </trkpt>
      <trkpt lat="45.36247" lon="5.60031">
        <ele>289.01</ele>
        <time>2023-01-12T12:29:07Z</time>
      </trkpt>
      <trkpt lat="45.36248" lon="5.60023">
        <ele>288.53</ele>
        <time>2023-01-12T12:29:08Z</time>
      </trkpt>
      <trkpt lat="45.36246" lon="5.60016">
        <ele>288.53</ele>
        <time>2023-01-12T12:29:09Z</time>
      </trkpt>
      <trkpt lat="45.36243" lon="5.6001">
        <ele>288.53</ele>
        <time>2023-01-12T12:29:10Z</time>
      </trkpt>
      <trkpt lat="45.36239" lon="5.60005">
        <ele>288.05</ele>
        <time>2023-01-12T12:29:11Z</time>
      </trkpt>
      <trkpt lat="45.36235" lon="5.6">
        <ele>288.05</ele>
        <time>2023-01-12T12:29:12Z</time>
      </trkpt>
      <trkpt lat="45.36169" lon="5.59917">
        <ele>288.53</ele>
        <time>2023-01-12T12:29:27Z</time>
      </trkpt>
      <trkpt lat="45.36164" lon="5.59913">
        <ele>288.53</ele>
        <time>2023-01-12T12:29:28Z</time>
      </trkpt>
      <trkpt lat="45.36155" lon="5.59904">
        <ele>288.53</ele>
        <time>2023-01-12T12:29:30Z</time>
      </trkpt>
      <trkpt lat="45.36153" lon="5.59898">
        <ele>288.53</ele>
        <time>2023-01-12T12:29:31Z</time>
      </trkpt>
      <trkpt lat="45.36153" lon="5.59891">
        <ele>288.05</ele>
        <time>2023-01-12T12:29:32Z</time>
      </trkpt>
      <trkpt lat="45.36155" lon="5.59885">
        <ele>288.05</ele>
        <time>2023-01-12T12:29:33Z</time>
      </trkpt>
      <trkpt lat="45.36159" lon="5.59879">
        <ele>288.05</ele>
        <time>2023-01-12T12:29:34Z</time>
      </trkpt>
      <trkpt lat="45.36163" lon="5.59874">
        <ele>288.53</ele>
        <time>2023-01-12T12:29:35Z</time>
      </trkpt>
      <trkpt lat="45.36168" lon="5.5987">
        <ele>288.53</ele>
        <time>2023-01-12T12:29:36Z</time>
      </trkpt>
      <trkpt lat="45.36259" lon="5.59797">
        <ele>287.57</ele>
        <time>2023-01-12T12:29:53Z</time>
      </trkpt>
      <trkpt lat="45.36333" lon="5.59736">
        <ele>287.09</ele>
        <time>2023-01-12T12:30:09Z</time>
      </trkpt>
      <trkpt lat="45.36338" lon="5.59727">
        <ele>286.61</ele>
        <time>2023-01-12T12:30:20Z</time>
      </trkpt>
      <trkpt lat="45.36337" lon="5.59723">
        <ele>286.61</ele>
        <time>2023-01-12T12:30:50Z</time>
      </trkpt>
      <trkpt lat="45.36338" lon="5.59723">
        <ele>287.09</ele>
        <time>2023-01-12T12:30:52Z</time>
      </trkpt>
      <trkpt lat="45.3634" lon="5.59723">
        <ele>287.09</ele>
        <time>2023-01-12T12:30:53Z</time>
      </trkpt>
      <trkpt lat="45.36343" lon="5.59723">
        <ele>287.57</ele>
        <time>2023-01-12T12:30:54Z</time>
      </trkpt>
      <trkpt lat="45.36346" lon="5.59723">
        <ele>287.57</ele>
        <time>2023-01-12T12:30:55Z</time>
      </trkpt>
      <trkpt lat="45.3635" lon="5.59722">
        <ele>288.05</ele>
        <time>2023-01-12T12:30:56Z</time>
      </trkpt>
      <trkpt lat="45.36354" lon="5.5972">
        <ele>288.05</ele>
        <time>2023-01-12T12:30:57Z</time>
      </trkpt>
      <trkpt lat="45.36359" lon="5.59717">
        <ele>288.05</ele>
        <time>2023-01-12T12:30:58Z</time>
      </trkpt>
      <trkpt lat="45.36363" lon="5.59712">
        <ele>288.05</ele>
        <time>2023-01-12T12:30:59Z</time>
      </trkpt>
      <trkpt lat="45.36366" lon="5.59707">
        <ele>288.05</ele>
        <time>2023-01-12T12:31:00Z</time>
      </trkpt>
      <trkpt lat="45.3637" lon="5.59703">
        <ele>288.05</ele>
        <time>2023-01-12T12:31:01Z</time>
      </trkpt>
      <trkpt lat="45.3639" lon="5.59685">
        <ele>288.05</ele>
        <time>2023-01-12T12:31:06Z</time>
      </trkpt>
      <trkpt lat="45.36395" lon="5.59683">
        <ele>288.05</ele>
        <time>2023-01-12T12:31:07Z</time>
      </trkpt>
      <trkpt lat="45.36436" lon="5.59651">
        <ele>286.61</ele>
        <time>2023-01-12T12:31:16Z</time>
      </trkpt>
      <trkpt lat="45.36441" lon="5.59648">
        <ele>287.09</ele>
        <time>2023-01-12T12:31:17Z</time>
      </trkpt>
      <trkpt lat="45.36446" lon="5.59644">
        <ele>287.09</ele>
        <time>2023-01-12T12:31:18Z</time>
      </trkpt>
      <trkpt lat="45.3645" lon="5.5964">
        <ele>287.09</ele>
        <time>2023-01-12T12:31:19Z</time>
      </trkpt>
      <trkpt lat="45.36455" lon="5.59637">
        <ele>287.57</ele>
        <time>2023-01-12T12:31:20Z</time>
      </trkpt>
      <trkpt lat="45.36517" lon="5.59585">
        <ele>289.01</ele>
        <time>2023-01-12T12:31:34Z</time>
      </trkpt>
      <trkpt lat="45.36535" lon="5.59572">
        <ele>289.01</ele>
        <time>2023-01-12T12:31:38Z</time>
      </trkpt>
      <trkpt lat="45.36547" lon="5.59563">
        <ele>289.49</ele>
        <time>2023-01-12T12:31:41Z</time>
      </trkpt>
      <trkpt lat="45.36551" lon="5.59561">
        <ele>289.01</ele>
        <time>2023-01-12T12:31:42Z</time>
      </trkpt>
      <trkpt lat="45.36556" lon="5.5956">
        <ele>289.97</ele>
        <time>2023-01-12T12:31:43Z</time>
      </trkpt>
      <trkpt lat="45.36565" lon="5.59558">
        <ele>289.49</ele>
        <time>2023-01-12T12:31:45Z</time>
      </trkpt>
      <trkpt lat="45.36568" lon="5.59557">
        <ele>289.97</ele>
        <time>2023-01-12T12:31:46Z</time>
      </trkpt>
      <trkpt lat="45.36608" lon="5.59535">
        <ele>292.86</ele>
        <time>2023-01-12T12:31:57Z</time>
      </trkpt>
      <trkpt lat="45.36654" lon="5.59495">
        <ele>293.82</ele>
        <time>2023-01-12T12:32:10Z</time>
      </trkpt>
      <trkpt lat="45.36673" lon="5.5943">
        <ele>295.26</ele>
        <time>2023-01-12T12:32:23Z</time>
      </trkpt>
      <trkpt lat="45.36681" lon="5.59369">
        <ele>295.26</ele>
        <time>2023-01-12T12:32:34Z</time>
      </trkpt>
      <trkpt lat="45.36682" lon="5.59361">
        <ele>294.78</ele>
        <time>2023-01-12T12:32:35Z</time>
      </trkpt>
      <trkpt lat="45.36688" lon="5.5932">
        <ele>294.78</ele>
        <time>2023-01-12T12:32:41Z</time>
      </trkpt>
      <trkpt lat="45.36689" lon="5.59313">
        <ele>294.3</ele>
        <time>2023-01-12T12:32:42Z</time>
      </trkpt>
      <trkpt lat="45.36689" lon="5.59287">
        <ele>294.3</ele>
        <time>2023-01-12T12:32:46Z</time>
      </trkpt>
      <trkpt lat="45.36689" lon="5.59281">
        <ele>294.78</ele>
        <time>2023-01-12T12:32:47Z</time>
      </trkpt>
      <trkpt lat="45.36695" lon="5.5922">
        <ele>294.78</ele>
        <time>2023-01-12T12:32:57Z</time>
      </trkpt>
      <trkpt lat="45.36697" lon="5.59205">
        <ele>294.3</ele>
        <time>2023-01-12T12:32:59Z</time>
      </trkpt>
      <trkpt lat="45.36697" lon="5.59189">
        <ele>293.82</ele>
        <time>2023-01-12T12:33:01Z</time>
      </trkpt>
      <trkpt lat="45.36698" lon="5.59134">
        <ele>293.82</ele>
        <time>2023-01-12T12:33:11Z</time>
      </trkpt>
      <trkpt lat="45.36699" lon="5.59131">
        <ele>292.86</ele>
        <time>2023-01-12T12:33:12Z</time>
      </trkpt>
      <trkpt lat="45.367" lon="5.5913">
        <ele>293.82</ele>
        <time>2023-01-12T12:33:13Z</time>
      </trkpt>
      <trkpt lat="45.36699" lon="5.59125">
        <ele>292.86</ele>
        <time>2023-01-12T12:33:31Z</time>
      </trkpt>
      <trkpt lat="45.36696" lon="5.59128">
        <ele>294.3</ele>
        <time>2023-01-12T12:34:06Z</time>
      </trkpt>
      <trkpt lat="45.36697" lon="5.59126">
        <ele>293.82</ele>
        <time>2023-01-12T12:34:07Z</time>
      </trkpt>
      <trkpt lat="45.36698" lon="5.5911">
        <ele>294.3</ele>
        <time>2023-01-12T12:34:12Z</time>
      </trkpt>
      <trkpt lat="45.36697" lon="5.59105">
        <ele>293.82</ele>
        <time>2023-01-12T12:34:14Z</time>
      </trkpt>
      <trkpt lat="45.36698" lon="5.59101">
        <ele>293.82</ele>
        <time>2023-01-12T12:34:15Z</time>
      </trkpt>
      <trkpt lat="45.36719" lon="5.59045">
        <ele>296.22</ele>
        <time>2023-01-12T12:34:31Z</time>
      </trkpt>
      <trkpt lat="45.36729" lon="5.5902">
        <ele>296.7</ele>
        <time>2023-01-12T12:34:40Z</time>
      </trkpt>
      <trkpt lat="45.36729" lon="5.59016">
        <ele>296.22</ele>
        <time>2023-01-12T12:34:42Z</time>
      </trkpt>
      <trkpt lat="45.36729" lon="5.59013">
        <ele>296.7</ele>
        <time>2023-01-12T12:34:43Z</time>
      </trkpt>
      <trkpt lat="45.3673" lon="5.5901">
        <ele>297.18</ele>
        <time>2023-01-12T12:34:44Z</time>
      </trkpt>
      <trkpt lat="45.36747" lon="5.58977">
        <ele>299.11</ele>
        <time>2023-01-12T12:34:56Z</time>
      </trkpt>
      <trkpt lat="45.36758" lon="5.58953">
        <ele>300.55</ele>
        <time>2023-01-12T12:35:06Z</time>
      </trkpt>
      <trkpt lat="45.36758" lon="5.58951">
        <ele>301.03</ele>
        <time>2023-01-12T12:35:07Z</time>
      </trkpt>
      <trkpt lat="45.36757" lon="5.58948">
        <ele>301.51</ele>
        <time>2023-01-12T12:35:08Z</time>
      </trkpt>
      <trkpt lat="45.36743" lon="5.58921">
        <ele>301.51</ele>
        <time>2023-01-12T12:35:14Z</time>
      </trkpt>
      <trkpt lat="45.36741" lon="5.58916">
        <ele>301.99</ele>
        <time>2023-01-12T12:35:15Z</time>
      </trkpt>
      <trkpt lat="45.36718" lon="5.58869">
        <ele>301.99</ele>
        <time>2023-01-12T12:35:23Z</time>
      </trkpt>
      <trkpt lat="45.36715" lon="5.58863">
        <ele>301.99</ele>
        <time>2023-01-12T12:35:24Z</time>
      </trkpt>
      <trkpt lat="45.36712" lon="5.58859">
        <ele>301.99</ele>
        <time>2023-01-12T12:35:25Z</time>
      </trkpt>
      <trkpt lat="45.36703" lon="5.58847">
        <ele>301.99</ele>
        <time>2023-01-12T12:35:28Z</time>
      </trkpt>
      <trkpt lat="45.36692" lon="5.58825">
        <ele>301.99</ele>
        <time>2023-01-12T12:35:32Z</time>
      </trkpt>
      <trkpt lat="45.3669" lon="5.58819">
        <ele>301.99</ele>
        <time>2023-01-12T12:35:33Z</time>
      </trkpt>
      <trkpt lat="45.3669" lon="5.58813">
        <ele>301.99</ele>
        <time>2023-01-12T12:35:34Z</time>
      </trkpt>
      <trkpt lat="45.36694" lon="5.58767">
        <ele>301.51</ele>
        <time>2023-01-12T12:35:41Z</time>
      </trkpt>
      <trkpt lat="45.36694" lon="5.58761">
        <ele>301.99</ele>
        <time>2023-01-12T12:35:42Z</time>
      </trkpt>
      <trkpt lat="45.36699" lon="5.58697">
        <ele>301.99</ele>
        <time>2023-01-12T12:35:55Z</time>
      </trkpt>
      <trkpt lat="45.36704" lon="5.58643">
        <ele>303.43</ele>
        <time>2023-01-12T12:36:05Z</time>
      </trkpt>
      <trkpt lat="45.36705" lon="5.58637">
        <ele>303.43</ele>
        <time>2023-01-12T12:36:06Z</time>
      </trkpt>
      <trkpt lat="45.36709" lon="5.58599">
        <ele>304.39</ele>
        <time>2023-01-12T12:36:13Z</time>
      </trkpt>
      <trkpt lat="45.36711" lon="5.58596">
        <ele>303.91</ele>
        <time>2023-01-12T12:36:14Z</time>
      </trkpt>
      <trkpt lat="45.36712" lon="5.58592">
        <ele>304.39</ele>
        <time>2023-01-12T12:36:15Z</time>
      </trkpt>
      <trkpt lat="45.36713" lon="5.58588">
        <ele>304.39</ele>
        <time>2023-01-12T12:36:16Z</time>
      </trkpt>
      <trkpt lat="45.36714" lon="5.58584">
        <ele>304.88</ele>
        <time>2023-01-12T12:36:17Z</time>
      </trkpt>
      <trkpt lat="45.36715" lon="5.58533">
        <ele>305.36</ele>
        <time>2023-01-12T12:36:28Z</time>
      </trkpt>
      <trkpt lat="45.36716" lon="5.5853">
        <ele>305.36</ele>
        <time>2023-01-12T12:36:29Z</time>
      </trkpt>
      <trkpt lat="45.36716" lon="5.58526">
        <ele>304.88</ele>
        <time>2023-01-12T12:36:30Z</time>
      </trkpt>
      <trkpt lat="45.36715" lon="5.58523">
        <ele>305.36</ele>
        <time>2023-01-12T12:36:31Z</time>
      </trkpt>
      <trkpt lat="45.36713" lon="5.58518">
        <ele>305.36</ele>
        <time>2023-01-12T12:36:32Z</time>
      </trkpt>
      <trkpt lat="45.36711" lon="5.58514">
        <ele>305.36</ele>
        <time>2023-01-12T12:36:33Z</time>
      </trkpt>
      <trkpt lat="45.3671" lon="5.58508">
        <ele>305.84</ele>
        <time>2023-01-12T12:36:34Z</time>
      </trkpt>
      <trkpt lat="45.36709" lon="5.58502">
        <ele>305.36</ele>
        <time>2023-01-12T12:36:35Z</time>
      </trkpt>
      <trkpt lat="45.36708" lon="5.58495">
        <ele>304.88</ele>
        <time>2023-01-12T12:36:36Z</time>
      </trkpt>
      <trkpt lat="45.36706" lon="5.58489">
        <ele>304.88</ele>
        <time>2023-01-12T12:36:37Z</time>
      </trkpt>
      <trkpt lat="45.3669" lon="5.58403">
        <ele>305.36</ele>
        <time>2023-01-12T12:36:52Z</time>
      </trkpt>
      <trkpt lat="45.36691" lon="5.58401">
        <ele>305.36</ele>
        <time>2023-01-12T12:36:53Z</time>
      </trkpt>
      <trkpt lat="45.36694" lon="5.58399">
        <ele>305.36</ele>
        <time>2023-01-12T12:36:54Z</time>
      </trkpt>
      <trkpt lat="45.3673" lon="5.5838">
        <ele>306.32</ele>
        <time>2023-01-12T12:37:05Z</time>
      </trkpt>
      <trkpt lat="45.3673" lon="5.58375">
        <ele>306.8</ele>
        <time>2023-01-12T12:37:06Z</time>
      </trkpt>
      <trkpt lat="45.3673" lon="5.5837">
        <ele>306.8</ele>
        <time>2023-01-12T12:37:07Z</time>
      </trkpt>
      <trkpt lat="45.36712" lon="5.58289">
        <ele>307.28</ele>
        <time>2023-01-12T12:37:22Z</time>
      </trkpt>
      <trkpt lat="45.36701" lon="5.58233">
        <ele>303.43</ele>
        <time>2023-01-12T12:37:34Z</time>
      </trkpt>
      <trkpt lat="45.367" lon="5.58228">
        <ele>308.72</ele>
        <time>2023-01-12T12:37:35Z</time>
      </trkpt>
      <trkpt lat="45.36698" lon="5.58219">
        <ele>311.12</ele>
        <time>2023-01-12T12:37:37Z</time>
      </trkpt>
      <trkpt lat="45.36697" lon="5.58215">
        <ele>306.8</ele>
        <time>2023-01-12T12:37:38Z</time>
      </trkpt>
      <trkpt lat="45.36696" lon="5.58211">
        <ele>309.2</ele>
        <time>2023-01-12T12:37:39Z</time>
      </trkpt>
      <trkpt lat="45.36691" lon="5.58184">
        <ele>305.36</ele>
        <time>2023-01-12T12:37:45Z</time>
      </trkpt>
      <trkpt lat="45.3669" lon="5.5818">
        <ele>314.01</ele>
        <time>2023-01-12T12:37:46Z</time>
      </trkpt>
      <trkpt lat="45.36689" lon="5.58176">
        <ele>312.09</ele>
        <time>2023-01-12T12:37:47Z</time>
      </trkpt>
      <trkpt lat="45.36687" lon="5.58158">
        <ele>310.64</ele>
        <time>2023-01-12T12:37:53Z</time>
      </trkpt>
      <trkpt lat="45.36688" lon="5.58156">
        <ele>310.64</ele>
        <time>2023-01-12T12:37:54Z</time>
      </trkpt>
      <trkpt lat="45.3669" lon="5.58155">
        <ele>310.64</ele>
        <time>2023-01-12T12:37:55Z</time>
      </trkpt>
      <trkpt lat="45.36691" lon="5.58155">
        <ele>310.64</ele>
        <time>2023-01-12T12:37:56Z</time>
      </trkpt>
      <trkpt lat="45.36694" lon="5.58154">
        <ele>310.64</ele>
        <time>2023-01-12T12:37:57Z</time>
      </trkpt>
      <trkpt lat="45.36696" lon="5.58153">
        <ele>311.12</ele>
        <time>2023-01-12T12:37:58Z</time>
      </trkpt>
      <trkpt lat="45.36697" lon="5.5815">
        <ele>311.12</ele>
        <time>2023-01-12T12:37:59Z</time>
        <extensions>
          <visugpx:TrkExtension xmlns:visugpx="https://www.visugpx.com/editgpx/">
            <visugpx:node>1</visugpx:node>
            </visugpx:TrkExtension>
        </extensions>
      </trkpt>
      <trkpt lat="45.36699" lon="5.58156">
        <ele>308.5</ele>
      </trkpt>
      <trkpt lat="45.36881" lon="5.58196">
        <ele>312.7</ele>
      </trkpt>
      <trkpt lat="45.36824" lon="5.58071">
        <ele>319.9</ele>
      </trkpt>
      <trkpt lat="45.3677" lon="5.57865">
        <ele>339.3</ele>
      </trkpt>
      <trkpt lat="45.36802" lon="5.57751">
        <ele>352.6</ele>
      </trkpt>
      <trkpt lat="45.36875" lon="5.57793">
        <ele>352.9</ele>
      </trkpt>
      <trkpt lat="45.36939" lon="5.57647">
        <ele>369.8</ele>
      </trkpt>
      <trkpt lat="45.36938" lon="5.57629">
        <ele>370.4</ele>
      </trkpt>
      <trkpt lat="45.3693" lon="5.57593">
        <ele>371.6</ele>
      </trkpt>
      <trkpt lat="45.3691" lon="5.57523">
        <ele>371</ele>
      </trkpt>
      <trkpt lat="45.36893" lon="5.57501">
        <ele>371</ele>
      </trkpt>
      <trkpt lat="45.36896" lon="5.57485">
        <ele>371</ele>
      </trkpt>
      <trkpt lat="45.36949" lon="5.57447">
        <ele>370.8</ele>
      </trkpt>
      <trkpt lat="45.36937" lon="5.57409">
        <ele>371.2</ele>
      </trkpt>
      <trkpt lat="45.36974" lon="5.5738">
        <ele>369.9</ele>
      </trkpt>
      <trkpt lat="45.36974" lon="5.57308">
        <ele>369.9</ele>
      </trkpt>
      <trkpt lat="45.36982" lon="5.57289">
        <ele>369.6</ele>
      </trkpt>
      <trkpt lat="45.3697" lon="5.5729">
        <ele>370</ele>
      </trkpt>
      <trkpt lat="45.37009" lon="5.573">
        <ele>374.09</ele>
        <time>2023-01-12T12:44:31Z</time>
      </trkpt>
      <trkpt lat="45.37054" lon="5.57306">
        <ele>374.09</ele>
        <time>2023-01-12T12:44:40Z</time>
      </trkpt>
      <trkpt lat="45.37111" lon="5.57284">
        <ele>377.45</ele>
        <time>2023-01-12T12:44:53Z</time>
      </trkpt>
      <trkpt lat="45.37123" lon="5.57276">
        <ele>378.9</ele>
        <time>2023-01-12T12:44:57Z</time>
      </trkpt>
      <trkpt lat="45.37139" lon="5.57262">
        <ele>379.86</ele>
        <time>2023-01-12T12:45:03Z</time>
      </trkpt>
      <trkpt lat="45.37188" lon="5.57244">
        <ele>381.78</ele>
        <time>2023-01-12T12:45:17Z</time>
      </trkpt>
      <trkpt lat="45.3719" lon="5.57239">
        <ele>381.3</ele>
        <time>2023-01-12T12:45:18Z</time>
      </trkpt>
      <trkpt lat="45.37192" lon="5.57233">
        <ele>381.78</ele>
        <time>2023-01-12T12:45:19Z</time>
      </trkpt>
      <trkpt lat="45.37193" lon="5.57228">
        <ele>381.78</ele>
        <time>2023-01-12T12:45:20Z</time>
      </trkpt>
      <trkpt lat="45.37194" lon="5.57222">
        <ele>382.26</ele>
        <time>2023-01-12T12:45:21Z</time>
      </trkpt>
      <trkpt lat="45.37194" lon="5.57216">
        <ele>382.26</ele>
        <time>2023-01-12T12:45:22Z</time>
      </trkpt>
      <trkpt lat="45.37195" lon="5.57157">
        <ele>385.15</ele>
        <time>2023-01-12T12:45:34Z</time>
      </trkpt>
      <trkpt lat="45.37189" lon="5.57095">
        <ele>388.51</ele>
        <time>2023-01-12T12:45:48Z</time>
      </trkpt>
      <trkpt lat="45.37179" lon="5.5699">
        <ele>390.43</ele>
        <time>2023-01-12T12:46:09Z</time>
      </trkpt>
      <trkpt lat="45.37181" lon="5.56987">
        <ele>389.95</ele>
        <time>2023-01-12T12:46:10Z</time>
      </trkpt>
      <trkpt lat="45.37184" lon="5.56985">
        <ele>390.43</ele>
        <time>2023-01-12T12:46:11Z</time>
      </trkpt>
      <trkpt lat="45.37188" lon="5.56984">
        <ele>389.95</ele>
        <time>2023-01-12T12:46:12Z</time>
      </trkpt>
      <trkpt lat="45.37246" lon="5.56968">
        <ele>393.32</ele>
        <time>2023-01-12T12:46:28Z</time>
      </trkpt>
      <trkpt lat="45.37277" lon="5.56929">
        <ele>396.68</ele>
        <time>2023-01-12T12:46:41Z</time>
      </trkpt>
      <trkpt lat="45.37281" lon="5.56899">
        <ele>397.64</ele>
        <time>2023-01-12T12:46:48Z</time>
      </trkpt>
      <trkpt lat="45.37283" lon="5.56898">
        <ele>397.16</ele>
        <time>2023-01-12T12:46:49Z</time>
      </trkpt>
      <trkpt lat="45.37286" lon="5.569">
        <ele>397.16</ele>
        <time>2023-01-12T12:46:50Z</time>
      </trkpt>
      <trkpt lat="45.37288" lon="5.56904">
        <ele>397.16</ele>
        <time>2023-01-12T12:46:51Z</time>
      </trkpt>
      <trkpt lat="45.37291" lon="5.56908">
        <ele>397.16</ele>
        <time>2023-01-12T12:46:52Z</time>
      </trkpt>
      <trkpt lat="45.37301" lon="5.56925">
        <ele>395.72</ele>
        <time>2023-01-12T12:46:55Z</time>
      </trkpt>
      <trkpt lat="45.37306" lon="5.56931">
        <ele>395.24</ele>
        <time>2023-01-12T12:46:56Z</time>
      </trkpt>
      <trkpt lat="45.37312" lon="5.56934">
        <ele>394.76</ele>
        <time>2023-01-12T12:46:57Z</time>
      </trkpt>
      <trkpt lat="45.37317" lon="5.56935">
        <ele>394.28</ele>
        <time>2023-01-12T12:46:58Z</time>
      </trkpt>
      <trkpt lat="45.37323" lon="5.56934">
        <ele>395.24</ele>
        <time>2023-01-12T12:46:59Z</time>
      </trkpt>
      <trkpt lat="45.37327" lon="5.56932">
        <ele>394.76</ele>
        <time>2023-01-12T12:47:00Z</time>
      </trkpt>
      <trkpt lat="45.37332" lon="5.5693">
        <ele>394.76</ele>
        <time>2023-01-12T12:47:01Z</time>
      </trkpt>
      <trkpt lat="45.37336" lon="5.56928">
        <ele>395.24</ele>
        <time>2023-01-12T12:47:02Z</time>
      </trkpt>
      <trkpt lat="45.37379" lon="5.56902">
        <ele>398.12</ele>
        <time>2023-01-12T12:47:15Z</time>
      </trkpt>
      <trkpt lat="45.37424" lon="5.56881">
        <ele>401.49</ele>
        <time>2023-01-12T12:47:30Z</time>
      </trkpt>
      <trkpt lat="45.3744" lon="5.56874">
        <ele>401.49</ele>
        <time>2023-01-12T12:47:36Z</time>
      </trkpt>
      <trkpt lat="45.37441" lon="5.56871">
        <ele>401.49</ele>
        <time>2023-01-12T12:47:37Z</time>
      </trkpt>
      <trkpt lat="45.37441" lon="5.56867">
        <ele>401.49</ele>
        <time>2023-01-12T12:47:38Z</time>
      </trkpt>
      <trkpt lat="45.37446" lon="5.56832">
        <ele>404.37</ele>
        <time>2023-01-12T12:47:49Z</time>
      </trkpt>
      <trkpt lat="45.37462" lon="5.56815">
        <ele>404.85</ele>
        <time>2023-01-12T12:47:58Z</time>
      </trkpt>
      <trkpt lat="45.37466" lon="5.56806">
        <ele>405.33</ele>
        <time>2023-01-12T12:48:03Z</time>
      </trkpt>
      <trkpt lat="45.37466" lon="5.568">
        <ele>406.77</ele>
        <time>2023-01-12T12:48:06Z</time>
      </trkpt>
      <trkpt lat="45.37467" lon="5.56784">
        <ele>409.18</ele>
        <time>2023-01-12T12:48:13Z</time>
      </trkpt>
      <trkpt lat="45.37466" lon="5.56778">
        <ele>409.66</ele>
        <time>2023-01-12T12:48:16Z</time>
      </trkpt>
      <trkpt lat="45.37457" lon="5.56763">
        <ele>412.06</ele>
        <time>2023-01-12T12:48:25Z</time>
      </trkpt>
      <trkpt lat="45.37454" lon="5.56758">
        <ele>412.54</ele>
        <time>2023-01-12T12:48:28Z</time>
      </trkpt>
      <trkpt lat="45.37437" lon="5.56734">
        <ele>414.95</ele>
        <time>2023-01-12T12:48:41Z</time>
      </trkpt>
      <trkpt lat="45.37428" lon="5.56718">
        <ele>415.91</ele>
        <time>2023-01-12T12:48:48Z</time>
      </trkpt>
      <trkpt lat="45.37421" lon="5.56705">
        <ele>417.35</ele>
        <time>2023-01-12T12:48:54Z</time>
      </trkpt>
      <trkpt lat="45.3741" lon="5.56686">
        <ele>418.79</ele>
        <time>2023-01-12T12:49:04Z</time>
      </trkpt>
      <trkpt lat="45.37398" lon="5.56688">
        <ele>418.79</ele>
        <time>2023-01-12T12:49:08Z</time>
      </trkpt>
      <trkpt lat="45.37391" lon="5.5668">
        <ele>418.79</ele>
        <time>2023-01-12T12:49:12Z</time>
      </trkpt>
      <trkpt lat="45.37391" lon="5.56677">
        <ele>418.79</ele>
        <time>2023-01-12T12:49:13Z</time>
      </trkpt>
      <trkpt lat="45.37391" lon="5.56673">
        <ele>419.27</ele>
        <time>2023-01-12T12:49:14Z</time>
      </trkpt>
      <trkpt lat="45.3739" lon="5.5667">
        <ele>419.75</ele>
        <time>2023-01-12T12:49:15Z</time>
      </trkpt>
      <trkpt lat="45.37389" lon="5.56668">
        <ele>419.75</ele>
        <time>2023-01-12T12:49:16Z</time>
      </trkpt>
      <trkpt lat="45.3737" lon="5.56641">
        <ele>421.68</ele>
        <time>2023-01-12T12:49:29Z</time>
      </trkpt>
      <trkpt lat="45.3737" lon="5.56638">
        <ele>422.16</ele>
        <time>2023-01-12T12:49:30Z</time>
      </trkpt>
      <trkpt lat="45.37369" lon="5.56635">
        <ele>421.68</ele>
        <time>2023-01-12T12:49:31Z</time>
      </trkpt>
      <trkpt lat="45.37367" lon="5.56632">
        <ele>421.68</ele>
        <time>2023-01-12T12:49:32Z</time>
      </trkpt>
      <trkpt lat="45.37364" lon="5.56629">
        <ele>422.16</ele>
        <time>2023-01-12T12:49:33Z</time>
      </trkpt>
      <trkpt lat="45.37363" lon="5.56626">
        <ele>422.16</ele>
        <time>2023-01-12T12:49:34Z</time>
      </trkpt>
      <trkpt lat="45.37361" lon="5.56623">
        <ele>423.12</ele>
        <time>2023-01-12T12:49:35Z</time>
      </trkpt>
      <trkpt lat="45.37336" lon="5.56572">
        <ele>423.12</ele>
        <time>2023-01-12T12:49:49Z</time>
      </trkpt>
      <trkpt lat="45.37302" lon="5.56524">
        <ele>423.6</ele>
        <time>2023-01-12T12:50:01Z</time>
      </trkpt>
      <trkpt lat="45.37274" lon="5.56468">
        <ele>424.08</ele>
        <time>2023-01-12T12:50:13Z</time>
      </trkpt>
      <trkpt lat="45.37233" lon="5.56396">
        <ele>423.12</ele>
        <time>2023-01-12T12:50:27Z</time>
      </trkpt>
      <trkpt lat="45.37217" lon="5.56367">
        <ele>422.16</ele>
        <time>2023-01-12T12:50:32Z</time>
      </trkpt>
      <trkpt lat="45.372" lon="5.56348">
        <ele>421.19</ele>
        <time>2023-01-12T12:50:36Z</time>
      </trkpt>
      <trkpt lat="45.37197" lon="5.56343">
        <ele>421.19</ele>
        <time>2023-01-12T12:50:37Z</time>
      </trkpt>
      <trkpt lat="45.37196" lon="5.56337">
        <ele>420.71</ele>
        <time>2023-01-12T12:50:38Z</time>
      </trkpt>
      <trkpt lat="45.37195" lon="5.5633">
        <ele>420.71</ele>
        <time>2023-01-12T12:50:39Z</time>
      </trkpt>
      <trkpt lat="45.37192" lon="5.56318">
        <ele>421.19</ele>
        <time>2023-01-12T12:50:41Z</time>
      </trkpt>
      <trkpt lat="45.37182" lon="5.56291">
        <ele>421.19</ele>
        <time>2023-01-12T12:50:46Z</time>
      </trkpt>
      <trkpt lat="45.3718" lon="5.56285">
        <ele>421.68</ele>
        <time>2023-01-12T12:50:47Z</time>
      </trkpt>
      <trkpt lat="45.37146" lon="5.56182">
        <ele>419.27</ele>
        <time>2023-01-12T12:51:03Z</time>
      </trkpt>
      <trkpt lat="45.37136" lon="5.5615">
        <ele>417.83</ele>
        <time>2023-01-12T12:51:07Z</time>
      </trkpt>
      <trkpt lat="45.37132" lon="5.5612">
        <ele>415.91</ele>
        <time>2023-01-12T12:51:10Z</time>
      </trkpt>
      <trkpt lat="45.37132" lon="5.5611">
        <ele>415.91</ele>
        <time>2023-01-12T12:51:11Z</time>
      </trkpt>
      <trkpt lat="45.37133" lon="5.56055">
        <ele>413.02</ele>
        <time>2023-01-12T12:51:16Z</time>
      </trkpt>
      <trkpt lat="45.37132" lon="5.56022">
        <ele>411.1</ele>
        <time>2023-01-12T12:51:19Z</time>
      </trkpt>
      <trkpt lat="45.3713" lon="5.56012">
        <ele>411.1</ele>
        <time>2023-01-12T12:51:20Z</time>
      </trkpt>
      <trkpt lat="45.37115" lon="5.55918">
        <ele>407.74</ele>
        <time>2023-01-12T12:51:30Z</time>
      </trkpt>
      <trkpt lat="45.37111" lon="5.55884">
        <ele>407.74</ele>
        <time>2023-01-12T12:51:34Z</time>
      </trkpt>
      <trkpt lat="45.37112" lon="5.55876">
        <ele>407.74</ele>
        <time>2023-01-12T12:51:35Z</time>
      </trkpt>
      <trkpt lat="45.37113" lon="5.55867">
        <ele>407.74</ele>
        <time>2023-01-12T12:51:36Z</time>
      </trkpt>
      <trkpt lat="45.3712" lon="5.55829">
        <ele>405.81</ele>
        <time>2023-01-12T12:51:40Z</time>
      </trkpt>
      <trkpt lat="45.37138" lon="5.55739">
        <ele>403.41</ele>
        <time>2023-01-12T12:51:50Z</time>
      </trkpt>
      <trkpt lat="45.3715" lon="5.55696">
        <ele>402.93</ele>
        <time>2023-01-12T12:51:56Z</time>
      </trkpt>
      <trkpt lat="45.37152" lon="5.55681">
        <ele>402.45</ele>
        <time>2023-01-12T12:51:58Z</time>
      </trkpt>
      <trkpt lat="45.37154" lon="5.55675">
        <ele>402.45</ele>
        <time>2023-01-12T12:51:59Z</time>
      </trkpt>
      <trkpt lat="45.37156" lon="5.55669">
        <ele>401.97</ele>
        <time>2023-01-12T12:52:00Z</time>
      </trkpt>
      <trkpt lat="45.37161" lon="5.55655">
        <ele>400.05</ele>
        <time>2023-01-12T12:52:03Z</time>
      </trkpt>
      <trkpt lat="45.37162" lon="5.55651">
        <ele>399.08</ele>
        <time>2023-01-12T12:52:04Z</time>
      </trkpt>
      <trkpt lat="45.37163" lon="5.55648">
        <ele>398.12</ele>
        <time>2023-01-12T12:52:05Z</time>
      </trkpt>
      <trkpt lat="45.37164" lon="5.55645">
        <ele>398.12</ele>
        <time>2023-01-12T12:52:06Z</time>
      </trkpt>
      <trkpt lat="45.37164" lon="5.55642">
        <ele>397.16</ele>
        <time>2023-01-12T12:52:07Z</time>
      </trkpt>
      <trkpt lat="45.37165" lon="5.55639">
        <ele>397.16</ele>
        <time>2023-01-12T12:52:08Z</time>
      </trkpt>
      <trkpt lat="45.37165" lon="5.55636">
        <ele>396.68</ele>
        <time>2023-01-12T12:52:09Z</time>
      </trkpt>
      <trkpt lat="45.37167" lon="5.55633">
        <ele>396.2</ele>
        <time>2023-01-12T12:52:10Z</time>
      </trkpt>
      <trkpt lat="45.37167" lon="5.5563">
        <ele>395.72</ele>
        <time>2023-01-12T12:52:11Z</time>
      </trkpt>
      <trkpt lat="45.37168" lon="5.55627">
        <ele>395.72</ele>
        <time>2023-01-12T12:52:12Z</time>
      </trkpt>
      <trkpt lat="45.37168" lon="5.55623">
        <ele>394.76</ele>
        <time>2023-01-12T12:52:13Z</time>
      </trkpt>
      <trkpt lat="45.37167" lon="5.5562">
        <ele>393.8</ele>
        <time>2023-01-12T12:52:14Z</time>
      </trkpt>
      <trkpt lat="45.37165" lon="5.55617">
        <ele>392.84</ele>
        <time>2023-01-12T12:52:15Z</time>
      </trkpt>
      <trkpt lat="45.37163" lon="5.55614">
        <ele>391.87</ele>
        <time>2023-01-12T12:52:16Z</time>
      </trkpt>
      <trkpt lat="45.37161" lon="5.5561">
        <ele>391.87</ele>
        <time>2023-01-12T12:52:17Z</time>
      </trkpt>
      <trkpt lat="45.37158" lon="5.55605">
        <ele>391.39</ele>
        <time>2023-01-12T12:52:18Z</time>
      </trkpt>
      <trkpt lat="45.37156" lon="5.55599">
        <ele>389.95</ele>
        <time>2023-01-12T12:52:19Z</time>
      </trkpt>
      <trkpt lat="45.37154" lon="5.55593">
        <ele>389.47</ele>
        <time>2023-01-12T12:52:20Z</time>
      </trkpt>
      <trkpt lat="45.37151" lon="5.55587">
        <ele>388.51</ele>
        <time>2023-01-12T12:52:21Z</time>
      </trkpt>
      <trkpt lat="45.37149" lon="5.55581">
        <ele>387.55</ele>
        <time>2023-01-12T12:52:22Z</time>
      </trkpt>
      <trkpt lat="45.37147" lon="5.55574">
        <ele>387.07</ele>
        <time>2023-01-12T12:52:23Z</time>
      </trkpt>
      <trkpt lat="45.37144" lon="5.55567">
        <ele>386.11</ele>
        <time>2023-01-12T12:52:24Z</time>
      </trkpt>
      <trkpt lat="45.37141" lon="5.5556">
        <ele>385.15</ele>
        <time>2023-01-12T12:52:25Z</time>
      </trkpt>
      <trkpt lat="45.37139" lon="5.55552">
        <ele>384.66</ele>
        <time>2023-01-12T12:52:26Z</time>
      </trkpt>
      <trkpt lat="45.37138" lon="5.55544">
        <ele>384.18</ele>
        <time>2023-01-12T12:52:27Z</time>
      </trkpt>
      <trkpt lat="45.37136" lon="5.55536">
        <ele>384.18</ele>
        <time>2023-01-12T12:52:28Z</time>
      </trkpt>
      <trkpt lat="45.37136" lon="5.55529">
        <ele>384.18</ele>
        <time>2023-01-12T12:52:29Z</time>
      </trkpt>
      <trkpt lat="45.37135" lon="5.55515">
        <ele>384.66</ele>
        <time>2023-01-12T12:52:31Z</time>
      </trkpt>
      <trkpt lat="45.37134" lon="5.55508">
        <ele>384.66</ele>
        <time>2023-01-12T12:52:32Z</time>
      </trkpt>
      <trkpt lat="45.37134" lon="5.55479">
        <ele>386.11</ele>
        <time>2023-01-12T12:52:38Z</time>
      </trkpt>
      <trkpt lat="45.37136" lon="5.55477">
        <ele>386.11</ele>
        <time>2023-01-12T12:52:39Z</time>
      </trkpt>
      <trkpt lat="45.37138" lon="5.55474">
        <ele>387.07</ele>
        <time>2023-01-12T12:52:41Z</time>
      </trkpt>
      <trkpt lat="45.37147" lon="5.55473">
        <ele>389.95</ele>
        <time>2023-01-12T12:52:49Z</time>
      </trkpt>
      <trkpt lat="45.37161" lon="5.55475">
        <ele>393.32</ele>
        <time>2023-01-12T12:52:59Z</time>
      </trkpt>
      <trkpt lat="45.37163" lon="5.55475">
        <ele>393.8</ele>
        <time>2023-01-12T12:53:00Z</time>
      </trkpt>
      <trkpt lat="45.37166" lon="5.55474">
        <ele>395.24</ele>
        <time>2023-01-12T12:53:02Z</time>
      </trkpt>
      <trkpt lat="45.37173" lon="5.55476">
        <ele>396.68</ele>
        <time>2023-01-12T12:53:07Z</time>
      </trkpt>
      <trkpt lat="45.37184" lon="5.55483">
        <ele>399.08</ele>
        <time>2023-01-12T12:53:17Z</time>
      </trkpt>
      <trkpt lat="45.37198" lon="5.5549">
        <ele>401.49</ele>
        <time>2023-01-12T12:53:26Z</time>
      </trkpt>
      <trkpt lat="45.37202" lon="5.55493">
        <ele>401.49</ele>
        <time>2023-01-12T12:53:29Z</time>
      </trkpt>
      <trkpt lat="45.37209" lon="5.55496">
        <ele>402.93</ele>
        <time>2023-01-12T12:53:33Z</time>
      </trkpt>
      <trkpt lat="45.37245" lon="5.5551">
        <ele>404.85</ele>
        <time>2023-01-12T12:53:52Z</time>
      </trkpt>
      <trkpt lat="45.37287" lon="5.55528">
        <ele>405.81</ele>
        <time>2023-01-12T12:54:09Z</time>
      </trkpt>
      <trkpt lat="45.3729" lon="5.55526">
        <ele>405.81</ele>
        <time>2023-01-12T12:54:10Z</time>
      </trkpt>
      <trkpt lat="45.37292" lon="5.55523">
        <ele>405.81</ele>
        <time>2023-01-12T12:54:11Z</time>
      </trkpt>
      <trkpt lat="45.37293" lon="5.5552">
        <ele>405.81</ele>
        <time>2023-01-12T12:54:12Z</time>
      </trkpt>
      <trkpt lat="45.37293" lon="5.55516">
        <ele>405.81</ele>
        <time>2023-01-12T12:54:13Z</time>
      </trkpt>
      <trkpt lat="45.37293" lon="5.55511">
        <ele>406.29</ele>
        <time>2023-01-12T12:54:14Z</time>
      </trkpt>
      <trkpt lat="45.3729" lon="5.55423">
        <ele>407.26</ele>
        <time>2023-01-12T12:54:31Z</time>
      </trkpt>
      <trkpt lat="45.37289" lon="5.55417">
        <ele>407.26</ele>
        <time>2023-01-12T12:54:32Z</time>
      </trkpt>
      <trkpt lat="45.37282" lon="5.55385">
        <ele>407.26</ele>
        <time>2023-01-12T12:54:37Z</time>
      </trkpt>
      <trkpt lat="45.37266" lon="5.55343">
        <ele>406.77</ele>
        <time>2023-01-12T12:54:44Z</time>
      </trkpt>
      <trkpt lat="45.37247" lon="5.55228">
        <ele>404.37</ele>
        <time>2023-01-12T12:54:58Z</time>
      </trkpt>
      <trkpt lat="45.37227" lon="5.55123">
        <ele>403.89</ele>
        <time>2023-01-12T12:55:11Z</time>
      </trkpt>
      <trkpt lat="45.37211" lon="5.5509">
        <ele>403.89</ele>
        <time>2023-01-12T12:55:16Z</time>
      </trkpt>
      <trkpt lat="45.37208" lon="5.55084">
        <ele>404.37</ele>
        <time>2023-01-12T12:55:17Z</time>
      </trkpt>
      <trkpt lat="45.37203" lon="5.5507">
        <ele>403.89</ele>
        <time>2023-01-12T12:55:19Z</time>
      </trkpt>
      <trkpt lat="45.37177" lon="5.54956">
        <ele>401.49</ele>
        <time>2023-01-12T12:55:36Z</time>
      </trkpt>
      <trkpt lat="45.37174" lon="5.5493">
        <ele>401.97</ele>
        <time>2023-01-12T12:55:41Z</time>
      </trkpt>
      <trkpt lat="45.37172" lon="5.54924">
        <ele>401.97</ele>
        <time>2023-01-12T12:55:42Z</time>
      </trkpt>
      <trkpt lat="45.3717" lon="5.54918">
        <ele>401.49</ele>
        <time>2023-01-12T12:55:43Z</time>
      </trkpt>
      <trkpt lat="45.37154" lon="5.54829">
        <ele>402.93</ele>
        <time>2023-01-12T12:55:57Z</time>
      </trkpt>
      <trkpt lat="45.37153" lon="5.54823">
        <ele>403.41</ele>
        <time>2023-01-12T12:55:58Z</time>
      </trkpt>
      <trkpt lat="45.37143" lon="5.54787">
        <ele>404.37</ele>
        <time>2023-01-12T12:56:04Z</time>
      </trkpt>
      <trkpt lat="45.37137" lon="5.54748">
        <ele>404.85</ele>
        <time>2023-01-12T12:56:10Z</time>
      </trkpt>
      <trkpt lat="45.37137" lon="5.54741">
        <ele>404.85</ele>
        <time>2023-01-12T12:56:11Z</time>
      </trkpt>
      <trkpt lat="45.37138" lon="5.54735">
        <ele>405.33</ele>
        <time>2023-01-12T12:56:12Z</time>
      </trkpt>
      <trkpt lat="45.37139" lon="5.54729">
        <ele>404.85</ele>
        <time>2023-01-12T12:56:13Z</time>
      </trkpt>
      <trkpt lat="45.3714" lon="5.54723">
        <ele>405.33</ele>
        <time>2023-01-12T12:56:14Z</time>
      </trkpt>
      <trkpt lat="45.37152" lon="5.54623">
        <ele>406.77</ele>
        <time>2023-01-12T12:56:29Z</time>
      </trkpt>
      <trkpt lat="45.37153" lon="5.54617">
        <ele>405.81</ele>
        <time>2023-01-12T12:56:30Z</time>
      </trkpt>
      <trkpt lat="45.37161" lon="5.5459">
        <ele>405.81</ele>
        <time>2023-01-12T12:56:34Z</time>
      </trkpt>
      <trkpt lat="45.37165" lon="5.54576">
        <ele>406.77</ele>
        <time>2023-01-12T12:56:36Z</time>
      </trkpt>
      <trkpt lat="45.37189" lon="5.5449">
        <ele>406.29</ele>
        <time>2023-01-12T12:56:49Z</time>
      </trkpt>
      <trkpt lat="45.3719" lon="5.54476">
        <ele>406.29</ele>
        <time>2023-01-12T12:56:51Z</time>
      </trkpt>
      <trkpt lat="45.37191" lon="5.54469">
        <ele>406.77</ele>
        <time>2023-01-12T12:56:52Z</time>
      </trkpt>
      <trkpt lat="45.37204" lon="5.5443">
        <ele>406.77</ele>
        <time>2023-01-12T12:56:58Z</time>
      </trkpt>
      <trkpt lat="45.37211" lon="5.54419">
        <ele>406.29</ele>
        <time>2023-01-12T12:57:00Z</time>
      </trkpt>
      <trkpt lat="45.37214" lon="5.54412">
        <ele>406.29</ele>
        <time>2023-01-12T12:57:01Z</time>
      </trkpt>
      <trkpt lat="45.37221" lon="5.54391">
        <ele>406.29</ele>
        <time>2023-01-12T12:57:04Z</time>
      </trkpt>
      <trkpt lat="45.37222" lon="5.54384">
        <ele>406.29</ele>
        <time>2023-01-12T12:57:05Z</time>
      </trkpt>
      <trkpt lat="45.37224" lon="5.54378">
        <ele>406.29</ele>
        <time>2023-01-12T12:57:06Z</time>
      </trkpt>
      <trkpt lat="45.37232" lon="5.54358">
        <ele>405.81</ele>
        <time>2023-01-12T12:57:09Z</time>
      </trkpt>
      <trkpt lat="45.37236" lon="5.54351">
        <ele>405.81</ele>
        <time>2023-01-12T12:57:10Z</time>
      </trkpt>
      <trkpt lat="45.37268" lon="5.54273">
        <ele>404.37</ele>
        <time>2023-01-12T12:57:21Z</time>
      </trkpt>
      <trkpt lat="45.37272" lon="5.54267">
        <ele>404.37</ele>
        <time>2023-01-12T12:57:22Z</time>
      </trkpt>
      <trkpt lat="45.37276" lon="5.54263">
        <ele>404.37</ele>
        <time>2023-01-12T12:57:23Z</time>
      </trkpt>
      <trkpt lat="45.37281" lon="5.5426">
        <ele>404.85</ele>
        <time>2023-01-12T12:57:24Z</time>
      </trkpt>
      <trkpt lat="45.37287" lon="5.54257">
        <ele>403.89</ele>
        <time>2023-01-12T12:57:25Z</time>
      </trkpt>
      <trkpt lat="45.37292" lon="5.54254">
        <ele>404.37</ele>
        <time>2023-01-12T12:57:26Z</time>
      </trkpt>
      <trkpt lat="45.37297" lon="5.5425">
        <ele>403.89</ele>
        <time>2023-01-12T12:57:27Z</time>
      </trkpt>
      <trkpt lat="45.37303" lon="5.54247">
        <ele>404.37</ele>
        <time>2023-01-12T12:57:28Z</time>
      </trkpt>
      <trkpt lat="45.37351" lon="5.54213">
        <ele>401.49</ele>
        <time>2023-01-12T12:57:37Z</time>
      </trkpt>
      <trkpt lat="45.37361" lon="5.54207">
        <ele>401.49</ele>
        <time>2023-01-12T12:57:39Z</time>
      </trkpt>
      <trkpt lat="45.37365" lon="5.54202">
        <ele>400.53</ele>
        <time>2023-01-12T12:57:40Z</time>
      </trkpt>
      <trkpt lat="45.37366" lon="5.54195">
        <ele>401.01</ele>
        <time>2023-01-12T12:57:41Z</time>
      </trkpt>
      <trkpt lat="45.37366" lon="5.54189">
        <ele>400.53</ele>
        <time>2023-01-12T12:57:42Z</time>
      </trkpt>
      <trkpt lat="45.37364" lon="5.54183">
        <ele>400.53</ele>
        <time>2023-01-12T12:57:43Z</time>
      </trkpt>
      <trkpt lat="45.37362" lon="5.54177">
        <ele>400.53</ele>
        <time>2023-01-12T12:57:44Z</time>
      </trkpt>
      <trkpt lat="45.3736" lon="5.54171">
        <ele>401.01</ele>
        <time>2023-01-12T12:57:45Z</time>
      </trkpt>
      <trkpt lat="45.37359" lon="5.54165">
        <ele>400.53</ele>
        <time>2023-01-12T12:57:46Z</time>
      </trkpt>
      <trkpt lat="45.37357" lon="5.54158">
        <ele>401.01</ele>
        <time>2023-01-12T12:57:47Z</time>
      </trkpt>
      <trkpt lat="45.3735" lon="5.5408">
        <ele>401.49</ele>
        <time>2023-01-12T12:57:58Z</time>
      </trkpt>
      <trkpt lat="45.3735" lon="5.54073">
        <ele>401.01</ele>
        <time>2023-01-12T12:57:59Z</time>
      </trkpt>
      <trkpt lat="45.3735" lon="5.54066">
        <ele>401.49</ele>
        <time>2023-01-12T12:58:00Z</time>
      </trkpt>
      <trkpt lat="45.37329" lon="5.53957">
        <ele>401.97</ele>
        <time>2023-01-12T12:58:16Z</time>
      </trkpt>
      <trkpt lat="45.37309" lon="5.53883">
        <ele>401.01</ele>
        <time>2023-01-12T12:58:27Z</time>
      </trkpt>
      <trkpt lat="45.37296" lon="5.53835">
        <ele>401.01</ele>
        <time>2023-01-12T12:58:34Z</time>
      </trkpt>
      <trkpt lat="45.37294" lon="5.53822">
        <ele>401.01</ele>
        <time>2023-01-12T12:58:36Z</time>
      </trkpt>
      <trkpt lat="45.37286" lon="5.53797">
        <ele>400.05</ele>
        <time>2023-01-12T12:58:40Z</time>
      </trkpt>
      <trkpt lat="45.37285" lon="5.53791">
        <ele>400.53</ele>
        <time>2023-01-12T12:58:41Z</time>
      </trkpt>
      <trkpt lat="45.37281" lon="5.53769">
        <ele>399.57</ele>
        <time>2023-01-12T12:58:46Z</time>
      </trkpt>
      <trkpt lat="45.37278" lon="5.5377">
        <ele>400.53</ele>
        <time>2023-01-12T12:58:52Z</time>
      </trkpt>
      <trkpt lat="45.37278" lon="5.53771">
        <ele>400.05</ele>
        <time>2023-01-12T12:58:53Z</time>
      </trkpt>
      <trkpt lat="45.37278" lon="5.53773">
        <ele>400.05</ele>
        <time>2023-01-12T12:58:54Z</time>
      </trkpt>
      <trkpt lat="45.37279" lon="5.53775">
        <ele>400.05</ele>
        <time>2023-01-12T12:58:55Z</time>
      </trkpt>
      <trkpt lat="45.37281" lon="5.53775">
        <ele>400.05</ele>
        <time>2023-01-12T12:58:56Z</time>
      </trkpt>
      <trkpt lat="45.37284" lon="5.53774">
        <ele>399.57</ele>
        <time>2023-01-12T12:58:57Z</time>
      </trkpt>
      <trkpt lat="45.37287" lon="5.53773">
        <ele>400.53</ele>
        <time>2023-01-12T12:58:58Z</time>
      </trkpt>
      <trkpt lat="45.37291" lon="5.53772">
        <ele>400.53</ele>
        <time>2023-01-12T12:58:59Z</time>
      </trkpt>
      <trkpt lat="45.37295" lon="5.53773">
        <ele>400.05</ele>
        <time>2023-01-12T12:59:00Z</time>
      </trkpt>
      <trkpt lat="45.373" lon="5.53773">
        <ele>399.57</ele>
        <time>2023-01-12T12:59:01Z</time>
      </trkpt>
      <trkpt lat="45.37353" lon="5.53771">
        <ele>396.68</ele>
        <time>2023-01-12T12:59:09Z</time>
      </trkpt>
      <trkpt lat="45.37401" lon="5.53772">
        <ele>394.76</ele>
        <time>2023-01-12T12:59:16Z</time>
      </trkpt>
      <trkpt lat="45.37407" lon="5.5377">
        <ele>395.24</ele>
        <time>2023-01-12T12:59:17Z</time>
      </trkpt>
      <trkpt lat="45.37412" lon="5.53767">
        <ele>394.76</ele>
        <time>2023-01-12T12:59:18Z</time>
      </trkpt>
      <trkpt lat="45.37417" lon="5.53763">
        <ele>394.76</ele>
        <time>2023-01-12T12:59:19Z</time>
      </trkpt>
      <trkpt lat="45.37422" lon="5.53759">
        <ele>394.76</ele>
        <time>2023-01-12T12:59:20Z</time>
      </trkpt>
      <trkpt lat="45.37427" lon="5.53754">
        <ele>394.76</ele>
        <time>2023-01-12T12:59:21Z</time>
      </trkpt>
      <trkpt lat="45.37431" lon="5.53749">
        <ele>395.24</ele>
        <time>2023-01-12T12:59:22Z</time>
      </trkpt>
      <trkpt lat="45.37435" lon="5.53743">
        <ele>395.72</ele>
        <time>2023-01-12T12:59:23Z</time>
      </trkpt>
      <trkpt lat="45.37458" lon="5.53718">
        <ele>399.08</ele>
        <time>2023-01-12T12:59:31Z</time>
      </trkpt>
      <trkpt lat="45.37477" lon="5.53709">
        <ele>401.97</ele>
        <time>2023-01-12T12:59:37Z</time>
      </trkpt>
      <trkpt lat="45.37542" lon="5.53709">
        <ele>403.89</ele>
        <time>2023-01-12T12:59:54Z</time>
      </trkpt>
      <trkpt lat="45.37599" lon="5.5373">
        <ele>405.33</ele>
        <time>2023-01-12T13:00:09Z</time>
      </trkpt>
      <trkpt lat="45.37654" lon="5.53767">
        <ele>403.89</ele>
        <time>2023-01-12T13:00:22Z</time>
      </trkpt>
      <trkpt lat="45.37658" lon="5.53768">
        <ele>403.89</ele>
        <time>2023-01-12T13:00:23Z</time>
      </trkpt>
      <trkpt lat="45.3766" lon="5.53764">
        <ele>403.41</ele>
        <time>2023-01-12T13:00:24Z</time>
      </trkpt>
      <trkpt lat="45.3766" lon="5.5376">
        <ele>402.93</ele>
        <time>2023-01-12T13:00:25Z</time>
      </trkpt>
      <trkpt lat="45.37659" lon="5.53754">
        <ele>401.97</ele>
        <time>2023-01-12T13:00:26Z</time>
      </trkpt>
      <trkpt lat="45.37658" lon="5.53748">
        <ele>402.45</ele>
        <time>2023-01-12T13:00:27Z</time>
      </trkpt>
      <trkpt lat="45.37654" lon="5.53741">
        <ele>401.49</ele>
        <time>2023-01-12T13:00:28Z</time>
      </trkpt>
      <trkpt lat="45.37652" lon="5.53733">
        <ele>401.01</ele>
        <time>2023-01-12T13:00:29Z</time>
      </trkpt>
      <trkpt lat="45.3765" lon="5.53725">
        <ele>401.01</ele>
        <time>2023-01-12T13:00:30Z</time>
      </trkpt>
      <trkpt lat="45.37648" lon="5.53717">
        <ele>400.53</ele>
        <time>2023-01-12T13:00:31Z</time>
      </trkpt>
      <trkpt lat="45.37646" lon="5.53708">
        <ele>400.05</ele>
        <time>2023-01-12T13:00:32Z</time>
      </trkpt>
      <trkpt lat="45.37644" lon="5.5369">
        <ele>398.6</ele>
        <time>2023-01-12T13:00:34Z</time>
      </trkpt>
      <trkpt lat="45.37642" lon="5.5367">
        <ele>399.08</ele>
        <time>2023-01-12T13:00:36Z</time>
      </trkpt>
      <trkpt lat="45.3764" lon="5.5366">
        <ele>398.6</ele>
        <time>2023-01-12T13:00:37Z</time>
      </trkpt>
      <trkpt lat="45.37638" lon="5.53651">
        <ele>398.12</ele>
        <time>2023-01-12T13:00:38Z</time>
      </trkpt>
      <trkpt lat="45.37635" lon="5.53642">
        <ele>397.64</ele>
        <time>2023-01-12T13:00:39Z</time>
      </trkpt>
      <trkpt lat="45.37631" lon="5.53634">
        <ele>398.12</ele>
        <time>2023-01-12T13:00:40Z</time>
      </trkpt>
      <trkpt lat="45.37628" lon="5.53626">
        <ele>397.16</ele>
        <time>2023-01-12T13:00:41Z</time>
      </trkpt>
      <trkpt lat="45.37623" lon="5.53618">
        <ele>397.16</ele>
        <time>2023-01-12T13:00:42Z</time>
      </trkpt>
      <trkpt lat="45.37606" lon="5.53595">
        <ele>395.24</ele>
        <time>2023-01-12T13:00:45Z</time>
      </trkpt>
      <trkpt lat="45.37602" lon="5.53586">
        <ele>394.76</ele>
        <time>2023-01-12T13:00:46Z</time>
      </trkpt>
      <trkpt lat="45.37597" lon="5.53577">
        <ele>394.76</ele>
        <time>2023-01-12T13:00:47Z</time>
      </trkpt>
      <trkpt lat="45.37594" lon="5.53568">
        <ele>394.76</ele>
        <time>2023-01-12T13:00:48Z</time>
      </trkpt>
      <trkpt lat="45.37592" lon="5.53559">
        <ele>394.28</ele>
        <time>2023-01-12T13:00:49Z</time>
      </trkpt>
      <trkpt lat="45.3759" lon="5.53551">
        <ele>394.28</ele>
        <time>2023-01-12T13:00:50Z</time>
      </trkpt>
      <trkpt lat="45.37589" lon="5.53545">
        <ele>393.8</ele>
        <time>2023-01-12T13:00:51Z</time>
      </trkpt>
      <trkpt lat="45.37584" lon="5.53497">
        <ele>393.32</ele>
        <time>2023-01-12T13:01:01Z</time>
      </trkpt>
      <trkpt lat="45.37581" lon="5.53422">
        <ele>395.24</ele>
        <time>2023-01-12T13:01:16Z</time>
      </trkpt>
      <trkpt lat="45.37573" lon="5.53393">
        <ele>398.6</ele>
        <time>2023-01-12T13:01:27Z</time>
      </trkpt>
      <trkpt lat="45.3757" lon="5.5337">
        <ele>401.97</ele>
        <time>2023-01-12T13:01:37Z</time>
      </trkpt>
      <trkpt lat="45.37569" lon="5.53368">
        <ele>401.97</ele>
        <time>2023-01-12T13:01:38Z</time>
      </trkpt>
      <trkpt lat="45.37568" lon="5.53366">
        <ele>402.45</ele>
        <time>2023-01-12T13:01:39Z</time>
      </trkpt>
      <trkpt lat="45.37561" lon="5.53354">
        <ele>403.89</ele>
        <time>2023-01-12T13:01:46Z</time>
      </trkpt>
      <trkpt lat="45.37561" lon="5.53352">
        <ele>403.89</ele>
        <time>2023-01-12T13:01:47Z</time>
      </trkpt>
      <trkpt lat="45.3756" lon="5.53351">
        <ele>404.85</ele>
        <time>2023-01-12T13:01:48Z</time>
      </trkpt>
      <trkpt lat="45.37559" lon="5.53349">
        <ele>404.85</ele>
        <time>2023-01-12T13:01:49Z</time>
      </trkpt>
      <trkpt lat="45.37558" lon="5.53347">
        <ele>404.85</ele>
        <time>2023-01-12T13:01:50Z</time>
      </trkpt>
      <trkpt lat="45.37547" lon="5.53326">
        <ele>408.22</ele>
        <time>2023-01-12T13:02:02Z</time>
      </trkpt>
      <trkpt lat="45.37539" lon="5.53308">
        <ele>411.1</ele>
        <time>2023-01-12T13:02:12Z</time>
      </trkpt>
      <trkpt lat="45.3753" lon="5.53285">
        <ele>414.47</ele>
        <time>2023-01-12T13:02:26Z</time>
      </trkpt>
      <trkpt lat="45.37527" lon="5.53279">
        <ele>414.47</ele>
        <time>2023-01-12T13:02:30Z</time>
      </trkpt>
      <trkpt lat="45.37526" lon="5.53278">
        <ele>415.43</ele>
        <time>2023-01-12T13:02:31Z</time>
      </trkpt>
      <trkpt lat="45.37525" lon="5.53276">
        <ele>415.43</ele>
        <time>2023-01-12T13:02:32Z</time>
      </trkpt>
      <trkpt lat="45.37524" lon="5.53274">
        <ele>415.43</ele>
        <time>2023-01-12T13:02:33Z</time>
      </trkpt>
      <trkpt lat="45.37523" lon="5.53273">
        <ele>415.43</ele>
        <time>2023-01-12T13:02:34Z</time>
      </trkpt>
      <trkpt lat="45.37522" lon="5.53271">
        <ele>415.43</ele>
        <time>2023-01-12T13:02:35Z</time>
      </trkpt>
      <trkpt lat="45.37521" lon="5.5327">
        <ele>415.91</ele>
        <time>2023-01-12T13:02:36Z</time>
      </trkpt>
      <trkpt lat="45.37504" lon="5.53235">
        <ele>418.31</ele>
        <time>2023-01-12T13:02:53Z</time>
      </trkpt>
      <trkpt lat="45.37476" lon="5.53184">
        <ele>420.23</ele>
        <time>2023-01-12T13:03:12Z</time>
      </trkpt>
      <trkpt lat="45.37446" lon="5.53139">
        <ele>422.16</ele>
        <time>2023-01-12T13:03:28Z</time>
      </trkpt>
      <trkpt lat="45.37411" lon="5.53079">
        <ele>425.52</ele>
        <time>2023-01-12T13:03:47Z</time>
      </trkpt>
      <trkpt lat="45.37371" lon="5.53012">
        <ele>426</ele>
        <time>2023-01-12T13:04:06Z</time>
      </trkpt>
      <trkpt lat="45.37368" lon="5.52997">
        <ele>425.52</ele>
        <time>2023-01-12T13:04:10Z</time>
      </trkpt>
      <trkpt lat="45.37369" lon="5.52994">
        <ele>426</ele>
        <time>2023-01-12T13:04:11Z</time>
      </trkpt>
      <trkpt lat="45.37372" lon="5.52992">
        <ele>426</ele>
        <time>2023-01-12T13:04:12Z</time>
      </trkpt>
      <trkpt lat="45.37271" lon="5.5287">
        <ele>413.3</ele>
      </trkpt>
      <trkpt lat="45.37217" lon="5.52831">
        <ele>409.4</ele>
      </trkpt>
      <trkpt lat="45.37144" lon="5.52724">
        <ele>403.7</ele>
      </trkpt>
      <trkpt lat="45.37111" lon="5.52668">
        <ele>397</ele>
      </trkpt>
      <trkpt lat="45.37021" lon="5.52702">
        <ele>391.7</ele>
      </trkpt>
      <trkpt lat="45.3697" lon="5.52775">
        <ele>383.6</ele>
      </trkpt>
      <trkpt lat="45.36846" lon="5.52878">
        <ele>368.2</ele>
      </trkpt>
      <trkpt lat="45.3678" lon="5.52741">
        <ele>361.5</ele>
      </trkpt>
      <trkpt lat="45.36569" lon="5.52814">
        <ele>369.6</ele>
      </trkpt>
      <trkpt lat="45.36472" lon="5.52582">
        <ele>360</ele>
      </trkpt>
      <trkpt lat="45.36401" lon="5.52477">
        <ele>377</ele>
      </trkpt>
      <trkpt lat="45.36425" lon="5.52342">
        <ele>381.8</ele>
      </trkpt>
      <trkpt lat="45.36345" lon="5.52477">
        <ele>399.9</ele>
      </trkpt>
      <trkpt lat="45.36332" lon="5.52387">
        <ele>410.5</ele>
      </trkpt>
      <trkpt lat="45.36273" lon="5.52385">
        <ele>413.9</ele>
      </trkpt>
      <trkpt lat="45.36269" lon="5.5228">
        <ele>407.8</ele>
      </trkpt>
      <trkpt lat="45.36154" lon="5.52458">
        <ele>410.3</ele>
      </trkpt>
      <trkpt lat="45.36094" lon="5.52479">
        <ele>407.6</ele>
      </trkpt>
      <trkpt lat="45.3611" lon="5.52527">
        <ele>412.8</ele>
      </trkpt>
      <trkpt lat="45.3614" lon="5.52711">
        <ele>420.6</ele>
      </trkpt>
      <trkpt lat="45.36116" lon="5.52784">
        <ele>421</ele>
      </trkpt>
      <trkpt lat="45.36005" lon="5.52638">
        <ele>403.8</ele>
      </trkpt>
      <trkpt lat="45.36041" lon="5.52325">
        <ele>373.6</ele>
      </trkpt>
      <trkpt lat="45.36062" lon="5.52252">
        <ele>364</ele>
      </trkpt>
      <trkpt lat="45.36017" lon="5.52269">
        <ele>353.7</ele>
      </trkpt>
      <trkpt lat="45.36059" lon="5.52192">
        <ele>348.6</ele>
      </trkpt>
      <trkpt lat="45.36017" lon="5.52179">
        <ele>338.4</ele>
      </trkpt>
      <trkpt lat="45.36122" lon="5.52084">
        <ele>338.8</ele>
      </trkpt>
      <trkpt lat="45.36077" lon="5.51831">
        <ele>337.3</ele>
      </trkpt>
      <trkpt lat="45.35815" lon="5.51797">
        <ele>342.5</ele>
      </trkpt>
      <trkpt lat="45.35993" lon="5.51582">
        <ele>362.8</ele>
      </trkpt>
      <trkpt lat="45.36213" lon="5.51329">
        <ele>386.3</ele>
      </trkpt>
      <trkpt lat="45.36137" lon="5.51321">
        <ele>397.4</ele>
      </trkpt>
      <trkpt lat="45.36083" lon="5.51269">
        <ele>398</ele>
      </trkpt>
      <trkpt lat="45.36195" lon="5.50969">
        <ele>402</ele>
      </trkpt>
      <trkpt lat="45.36412" lon="5.50754">
        <ele>403</ele>
      </trkpt>
      <trkpt lat="45.36575" lon="5.50565">
        <ele>404</ele>
      </trkpt>
      <trkpt lat="45.36777" lon="5.50085">
        <ele>399.9</ele>
      </trkpt>
      <trkpt lat="45.3681" lon="5.50192">
        <ele>405.5</ele>
      </trkpt>
      <trkpt lat="45.36755" lon="5.50325">
        <ele>404.3</ele>
      </trkpt>
      <trkpt lat="45.36801" lon="5.50325">
        <ele>403.6</ele>
      </trkpt>
      <trkpt lat="45.36825" lon="5.50162">
        <ele>403.8</ele>
      </trkpt>
      <trkpt lat="45.37042" lon="5.49986">
        <ele>427.8</ele>
      </trkpt>
      <trkpt lat="45.37141" lon="5.5011">
        <ele>439.5</ele>
      </trkpt>
      <trkpt lat="45.37181" lon="5.50239">
        <ele>438</ele>
      </trkpt>
      <trkpt lat="45.37374" lon="5.50346">
        <ele>446.9</ele>
      </trkpt>
      <trkpt lat="45.37434" lon="5.50488">
        <ele>449.9</ele>
      </trkpt>
      <trkpt lat="45.37512" lon="5.50703">
        <ele>455.4</ele>
      </trkpt>
      <trkpt lat="45.37612" lon="5.50746">
        <ele>453.9</ele>
      </trkpt>
      <trkpt lat="45.37805" lon="5.50904">
        <ele>461.6</ele>
      </trkpt>
      <trkpt lat="45.37823" lon="5.51119">
        <ele>464.7</ele>
      </trkpt>
      <trkpt lat="45.37859" lon="5.5123">
        <ele>464.3</ele>
      </trkpt>
      <trkpt lat="45.38016" lon="5.51389">
        <ele>464</ele>
      </trkpt>
      <trkpt lat="45.38221" lon="5.51685">
        <ele>466</ele>
      </trkpt>
      <trkpt lat="45.38175" lon="5.51801">
        <ele>471</ele>
      </trkpt>
      <trkpt lat="45.38091" lon="5.51806">
        <ele>476.7</ele>
      </trkpt>
      <trkpt lat="45.38139" lon="5.52102">
        <ele>478.7</ele>
      </trkpt>
      <trkpt lat="45.38296" lon="5.52385">
        <ele>482.2</ele>
      </trkpt>
      <trkpt lat="45.38429" lon="5.52595">
        <ele>476.5</ele>
      </trkpt>
      <trkpt lat="45.38441" lon="5.52617">
        <ele>480.32</ele>
        <time>2023-01-12T13:13:31Z</time>
      </trkpt>
      <trkpt lat="45.38486" lon="5.52605">
        <ele>480.32</ele>
        <time>2023-01-12T13:13:45Z</time>
      </trkpt>
      <trkpt lat="45.38564" lon="5.52584">
        <ele>479.35</ele>
        <time>2023-01-12T13:14:03Z</time>
      </trkpt>
      <trkpt lat="45.38578" lon="5.52585">
        <ele>479.35</ele>
        <time>2023-01-12T13:14:06Z</time>
      </trkpt>
      <trkpt lat="45.38582" lon="5.52586">
        <ele>478.87</ele>
        <time>2023-01-12T13:14:07Z</time>
      </trkpt>
      <trkpt lat="45.38586" lon="5.52588">
        <ele>479.35</ele>
        <time>2023-01-12T13:14:08Z</time>
      </trkpt>
      <trkpt lat="45.38637" lon="5.52628">
        <ele>478.39</ele>
        <time>2023-01-12T13:14:24Z</time>
      </trkpt>
      <trkpt lat="45.38643" lon="5.52656">
        <ele>477.91</ele>
        <time>2023-01-12T13:14:35Z</time>
      </trkpt>
      <trkpt lat="45.38663" lon="5.5268">
        <ele>477.91</ele>
        <time>2023-01-12T13:14:45Z</time>
      </trkpt>
      <trkpt lat="45.38666" lon="5.52684">
        <ele>477.91</ele>
        <time>2023-01-12T13:14:46Z</time>
      </trkpt>
      <trkpt lat="45.38668" lon="5.52688">
        <ele>477.43</ele>
        <time>2023-01-12T13:14:47Z</time>
      </trkpt>
      <trkpt lat="45.38671" lon="5.52692">
        <ele>477.43</ele>
        <time>2023-01-12T13:14:48Z</time>
      </trkpt>
      <trkpt lat="45.38674" lon="5.52696">
        <ele>477.43</ele>
        <time>2023-01-12T13:14:49Z</time>
      </trkpt>
      <trkpt lat="45.38676" lon="5.527">
        <ele>477.43</ele>
        <time>2023-01-12T13:14:50Z</time>
      </trkpt>
      <trkpt lat="45.38678" lon="5.52704">
        <ele>476.95</ele>
        <time>2023-01-12T13:14:51Z</time>
      </trkpt>
      <trkpt lat="45.38685" lon="5.52714">
        <ele>476.95</ele>
        <time>2023-01-12T13:14:54Z</time>
      </trkpt>
      <trkpt lat="45.38688" lon="5.52716">
        <ele>476.47</ele>
        <time>2023-01-12T13:14:55Z</time>
      </trkpt>
      <trkpt lat="45.38699" lon="5.52731">
        <ele>475.99</ele>
        <time>2023-01-12T13:14:59Z</time>
      </trkpt>
      <trkpt lat="45.38703" lon="5.52734">
        <ele>476.47</ele>
        <time>2023-01-12T13:15:00Z</time>
      </trkpt>
      <trkpt lat="45.38714" lon="5.52744">
        <ele>476.95</ele>
        <time>2023-01-12T13:15:03Z</time>
      </trkpt>
      <trkpt lat="45.38718" lon="5.52746">
        <ele>476.47</ele>
        <time>2023-01-12T13:15:04Z</time>
      </trkpt>
      <trkpt lat="45.38721" lon="5.52748">
        <ele>476.95</ele>
        <time>2023-01-12T13:15:05Z</time>
      </trkpt>
      <trkpt lat="45.38753" lon="5.52771">
        <ele>476.95</ele>
        <time>2023-01-12T13:15:14Z</time>
      </trkpt>
      <trkpt lat="45.38765" lon="5.52778">
        <ele>476.47</ele>
        <time>2023-01-12T13:15:17Z</time>
      </trkpt>
      <trkpt lat="45.38834" lon="5.52832">
        <ele>477.91</ele>
        <time>2023-01-12T13:15:36Z</time>
      </trkpt>
      <trkpt lat="45.3888" lon="5.52875">
        <ele>480.8</ele>
        <time>2023-01-12T13:15:51Z</time>
      </trkpt>
      <trkpt lat="45.38907" lon="5.529">
        <ele>483.68</ele>
        <time>2023-01-12T13:16:04Z</time>
      </trkpt>
      <trkpt lat="45.38941" lon="5.52924">
        <ele>486.56</ele>
        <time>2023-01-12T13:16:20Z</time>
      </trkpt>
      <trkpt lat="45.38959" lon="5.52932">
        <ele>490.41</ele>
        <time>2023-01-12T13:16:30Z</time>
      </trkpt>
      <trkpt lat="45.38987" lon="5.52932">
        <ele>491.85</ele>
        <time>2023-01-12T13:16:44Z</time>
      </trkpt>
      <trkpt lat="45.38994" lon="5.5293">
        <ele>493.29</ele>
        <time>2023-01-12T13:16:47Z</time>
      </trkpt>
      <trkpt lat="45.3903" lon="5.52937">
        <ele>496.66</ele>
        <time>2023-01-12T13:17:05Z</time>
      </trkpt>
      <trkpt lat="45.39055" lon="5.52944">
        <ele>499.06</ele>
        <time>2023-01-12T13:17:21Z</time>
      </trkpt>
      <trkpt lat="45.39078" lon="5.52948">
        <ele>500.5</ele>
        <time>2023-01-12T13:17:33Z</time>
      </trkpt>
      <trkpt lat="45.39094" lon="5.52963">
        <ele>500.02</ele>
        <time>2023-01-12T13:17:42Z</time>
      </trkpt>
      <trkpt lat="45.39097" lon="5.52965">
        <ele>500.02</ele>
        <time>2023-01-12T13:17:53Z</time>
      </trkpt>
      <trkpt lat="45.391" lon="5.52965">
        <ele>500.02</ele>
        <time>2023-01-12T13:18:23Z</time>
      </trkpt>
      <trkpt lat="45.39099" lon="5.52961">
        <ele>500.02</ele>
        <time>2023-01-12T13:19:04Z</time>
      </trkpt>
      <trkpt lat="45.39098" lon="5.5297">
        <ele>500.02</ele>
        <time>2023-01-12T13:19:40Z</time>
      </trkpt>
      <trkpt lat="45.39095" lon="5.52965">
        <ele>500.02</ele>
        <time>2023-01-12T13:20:05Z</time>
      </trkpt>
      <trkpt lat="45.39095" lon="5.52963">
        <ele>500.02</ele>
        <time>2023-01-12T13:20:16Z</time>
      </trkpt>
      <trkpt lat="45.39098" lon="5.52964">
        <ele>500.5</ele>
        <time>2023-01-12T13:20:34Z</time>
      </trkpt>
      <trkpt lat="45.39098" lon="5.5297">
        <ele>500.02</ele>
        <time>2023-01-12T13:20:43Z</time>
      </trkpt>
      <trkpt lat="45.391" lon="5.52972">
        <ele>500.5</ele>
        <time>2023-01-12T13:20:44Z</time>
      </trkpt>
      <trkpt lat="45.39111" lon="5.52982">
        <ele>498.1</ele>
        <time>2023-01-12T13:20:48Z</time>
      </trkpt>
      <trkpt lat="45.39118" lon="5.52991">
        <ele>496.66</ele>
        <time>2023-01-12T13:20:50Z</time>
      </trkpt>
      <trkpt lat="45.39127" lon="5.53002">
        <ele>495.22</ele>
        <time>2023-01-12T13:20:52Z</time>
      </trkpt>
      <trkpt lat="45.39142" lon="5.53017">
        <ele>493.29</ele>
        <time>2023-01-12T13:20:55Z</time>
      </trkpt>
      <trkpt lat="45.39147" lon="5.53019">
        <ele>492.33</ele>
        <time>2023-01-12T13:20:56Z</time>
      </trkpt>
      <trkpt lat="45.39152" lon="5.5302">
        <ele>492.33</ele>
        <time>2023-01-12T13:20:57Z</time>
      </trkpt>
      <trkpt lat="45.39157" lon="5.53021">
        <ele>491.37</ele>
        <time>2023-01-12T13:20:58Z</time>
      </trkpt>
      <trkpt lat="45.39164" lon="5.5302">
        <ele>491.37</ele>
        <time>2023-01-12T13:20:59Z</time>
      </trkpt>
      <trkpt lat="45.39172" lon="5.53019">
        <ele>490.89</ele>
        <time>2023-01-12T13:21:00Z</time>
      </trkpt>
      <trkpt lat="45.39193" lon="5.53019">
        <ele>489.93</ele>
        <time>2023-01-12T13:21:03Z</time>
      </trkpt>
      <trkpt lat="45.39256" lon="5.53044">
        <ele>488.49</ele>
        <time>2023-01-12T13:21:13Z</time>
      </trkpt>
      <trkpt lat="45.39305" lon="5.53077">
        <ele>489.45</ele>
        <time>2023-01-12T13:21:24Z</time>
      </trkpt>
      <trkpt lat="45.39318" lon="5.53083">
        <ele>489.93</ele>
        <time>2023-01-12T13:21:27Z</time>
      </trkpt>
      <trkpt lat="45.39323" lon="5.53084">
        <ele>489.93</ele>
        <time>2023-01-12T13:21:28Z</time>
      </trkpt>
      <trkpt lat="45.39328" lon="5.53083">
        <ele>489.45</ele>
        <time>2023-01-12T13:21:29Z</time>
      </trkpt>
      <trkpt lat="45.39332" lon="5.53082">
        <ele>488.49</ele>
        <time>2023-01-12T13:21:30Z</time>
      </trkpt>
      <trkpt lat="45.39337" lon="5.5308">
        <ele>488.97</ele>
        <time>2023-01-12T13:21:31Z</time>
      </trkpt>
      <trkpt lat="45.39342" lon="5.53079">
        <ele>489.45</ele>
        <time>2023-01-12T13:21:32Z</time>
      </trkpt>
      <trkpt lat="45.39347" lon="5.53078">
        <ele>488.97</ele>
        <time>2023-01-12T13:21:33Z</time>
      </trkpt>
      <trkpt lat="45.39352" lon="5.53079">
        <ele>488.97</ele>
        <time>2023-01-12T13:21:34Z</time>
      </trkpt>
      <trkpt lat="45.39361" lon="5.53081">
        <ele>488.49</ele>
        <time>2023-01-12T13:21:36Z</time>
      </trkpt>
      <trkpt lat="45.39365" lon="5.53083">
        <ele>488.49</ele>
        <time>2023-01-12T13:21:37Z</time>
      </trkpt>
      <trkpt lat="45.3937" lon="5.53086">
        <ele>488.01</ele>
        <time>2023-01-12T13:21:38Z</time>
      </trkpt>
      <trkpt lat="45.39374" lon="5.53089">
        <ele>488.01</ele>
        <time>2023-01-12T13:21:39Z</time>
      </trkpt>
      <trkpt lat="45.39379" lon="5.53093">
        <ele>487.53</ele>
        <time>2023-01-12T13:21:40Z</time>
      </trkpt>
      <trkpt lat="45.39383" lon="5.53096">
        <ele>487.53</ele>
        <time>2023-01-12T13:21:41Z</time>
      </trkpt>
      <trkpt lat="45.39387" lon="5.531">
        <ele>488.01</ele>
        <time>2023-01-12T13:21:42Z</time>
      </trkpt>
      <trkpt lat="45.39391" lon="5.53102">
        <ele>487.53</ele>
        <time>2023-01-12T13:21:43Z</time>
      </trkpt>
      <trkpt lat="45.39395" lon="5.53104">
        <ele>488.01</ele>
        <time>2023-01-12T13:21:44Z</time>
      </trkpt>
      <trkpt lat="45.39403" lon="5.53106">
        <ele>487.05</ele>
        <time>2023-01-12T13:21:47Z</time>
      </trkpt>
      <trkpt lat="45.39406" lon="5.53107">
        <ele>487.53</ele>
        <time>2023-01-12T13:21:48Z</time>
      </trkpt>
      <trkpt lat="45.39407" lon="5.53109">
        <ele>487.05</ele>
        <time>2023-01-12T13:21:49Z</time>
      </trkpt>
      <trkpt lat="45.39409" lon="5.5311">
        <ele>487.05</ele>
        <time>2023-01-12T13:21:50Z</time>
      </trkpt>
      <trkpt lat="45.39412" lon="5.53109">
        <ele>486.56</ele>
        <time>2023-01-12T13:21:51Z</time>
      </trkpt>
      <trkpt lat="45.39414" lon="5.53108">
        <ele>486.56</ele>
        <time>2023-01-12T13:21:52Z</time>
      </trkpt>
      <trkpt lat="45.39425" lon="5.53108">
        <ele>487.53</ele>
        <time>2023-01-12T13:21:56Z</time>
      </trkpt>
      <trkpt lat="45.39428" lon="5.5311">
        <ele>487.05</ele>
        <time>2023-01-12T13:21:57Z</time>
      </trkpt>
      <trkpt lat="45.39431" lon="5.53111">
        <ele>487.05</ele>
        <time>2023-01-12T13:21:58Z</time>
      </trkpt>
      <trkpt lat="45.39433" lon="5.53112">
        <ele>487.05</ele>
        <time>2023-01-12T13:21:59Z</time>
      </trkpt>
      <trkpt lat="45.39435" lon="5.53113">
        <ele>487.05</ele>
        <time>2023-01-12T13:22:00Z</time>
      </trkpt>
      <trkpt lat="45.39438" lon="5.53114">
        <ele>487.05</ele>
        <time>2023-01-12T13:22:02Z</time>
      </trkpt>
      <trkpt lat="45.39447" lon="5.53112">
        <ele>487.05</ele>
        <time>2023-01-12T13:22:11Z</time>
      </trkpt>
      <trkpt lat="45.3945" lon="5.5311">
        <ele>487.05</ele>
        <time>2023-01-12T13:22:13Z</time>
      </trkpt>
      <trkpt lat="45.39452" lon="5.53111">
        <ele>487.05</ele>
        <time>2023-01-12T13:22:14Z</time>
      </trkpt>
      <trkpt lat="45.39454" lon="5.53112">
        <ele>487.05</ele>
        <time>2023-01-12T13:22:15Z</time>
      </trkpt>
      <trkpt lat="45.39494" lon="5.5314">
        <ele>484.64</ele>
        <time>2023-01-12T13:22:26Z</time>
      </trkpt>
      <trkpt lat="45.39501" lon="5.53148">
        <ele>484.64</ele>
        <time>2023-01-12T13:22:28Z</time>
      </trkpt>
      <trkpt lat="45.39509" lon="5.53158">
        <ele>483.68</ele>
        <time>2023-01-12T13:22:30Z</time>
      </trkpt>
      <trkpt lat="45.39514" lon="5.53162">
        <ele>483.2</ele>
        <time>2023-01-12T13:22:31Z</time>
      </trkpt>
      <trkpt lat="45.3952" lon="5.53167">
        <ele>482.72</ele>
        <time>2023-01-12T13:22:32Z</time>
      </trkpt>
      <trkpt lat="45.39537" lon="5.53181">
        <ele>481.28</ele>
        <time>2023-01-12T13:22:35Z</time>
      </trkpt>
      <trkpt lat="45.39544" lon="5.53184">
        <ele>481.28</ele>
        <time>2023-01-12T13:22:36Z</time>
      </trkpt>
      <trkpt lat="45.3955" lon="5.53187">
        <ele>479.35</ele>
        <time>2023-01-12T13:22:37Z</time>
      </trkpt>
      <trkpt lat="45.39556" lon="5.53192">
        <ele>478.87</ele>
        <time>2023-01-12T13:22:38Z</time>
      </trkpt>
      <trkpt lat="45.3956" lon="5.53196">
        <ele>478.39</ele>
        <time>2023-01-12T13:22:39Z</time>
      </trkpt>
      <trkpt lat="45.39564" lon="5.53201">
        <ele>476.95</ele>
        <time>2023-01-12T13:22:40Z</time>
      </trkpt>
      <trkpt lat="45.39569" lon="5.53205">
        <ele>476.47</ele>
        <time>2023-01-12T13:22:41Z</time>
      </trkpt>
      <trkpt lat="45.39573" lon="5.53207">
        <ele>475.99</ele>
        <time>2023-01-12T13:22:42Z</time>
      </trkpt>
      <trkpt lat="45.39576" lon="5.53211">
        <ele>475.51</ele>
        <time>2023-01-12T13:22:43Z</time>
      </trkpt>
      <trkpt lat="45.39578" lon="5.53214">
        <ele>475.03</ele>
        <time>2023-01-12T13:22:44Z</time>
      </trkpt>
      <trkpt lat="45.39579" lon="5.53217">
        <ele>474.07</ele>
        <time>2023-01-12T13:22:45Z</time>
      </trkpt>
      <trkpt lat="45.39582" lon="5.53221">
        <ele>473.59</ele>
        <time>2023-01-12T13:22:46Z</time>
      </trkpt>
      <trkpt lat="45.39584" lon="5.53225">
        <ele>473.59</ele>
        <time>2023-01-12T13:22:47Z</time>
      </trkpt>
      <trkpt lat="45.39588" lon="5.53228">
        <ele>472.63</ele>
        <time>2023-01-12T13:22:48Z</time>
      </trkpt>
      <trkpt lat="45.39595" lon="5.53242">
        <ele>470.7</ele>
        <time>2023-01-12T13:22:52Z</time>
      </trkpt>
      <trkpt lat="45.39597" lon="5.53244">
        <ele>470.7</ele>
        <time>2023-01-12T13:22:53Z</time>
      </trkpt>
      <trkpt lat="45.39609" lon="5.53256">
        <ele>467.34</ele>
        <time>2023-01-12T13:22:58Z</time>
      </trkpt>
      <trkpt lat="45.39614" lon="5.53262">
        <ele>466.86</ele>
        <time>2023-01-12T13:23:00Z</time>
      </trkpt>
      <trkpt lat="45.39628" lon="5.53288">
        <ele>463.97</ele>
        <time>2023-01-12T13:23:05Z</time>
      </trkpt>
      <trkpt lat="45.39641" lon="5.53318">
        <ele>461.57</ele>
        <time>2023-01-12T13:23:10Z</time>
      </trkpt>
      <trkpt lat="45.39644" lon="5.53326">
        <ele>461.57</ele>
        <time>2023-01-12T13:23:11Z</time>
      </trkpt>
      <trkpt lat="45.39656" lon="5.5335">
        <ele>459.17</ele>
        <time>2023-01-12T13:23:14Z</time>
      </trkpt>
      <trkpt lat="45.3966" lon="5.53357">
        <ele>458.21</ele>
        <time>2023-01-12T13:23:15Z</time>
      </trkpt>
      <trkpt lat="45.39662" lon="5.53363">
        <ele>457.24</ele>
        <time>2023-01-12T13:23:16Z</time>
      </trkpt>
      <trkpt lat="45.39664" lon="5.53368">
        <ele>456.76</ele>
        <time>2023-01-12T13:23:17Z</time>
      </trkpt>
      <trkpt lat="45.39667" lon="5.53372">
        <ele>455.8</ele>
        <time>2023-01-12T13:23:18Z</time>
      </trkpt>
      <trkpt lat="45.39669" lon="5.53375">
        <ele>455.32</ele>
        <time>2023-01-12T13:23:19Z</time>
      </trkpt>
      <trkpt lat="45.39672" lon="5.53377">
        <ele>454.84</ele>
        <time>2023-01-12T13:23:20Z</time>
      </trkpt>
      <trkpt lat="45.39689" lon="5.53381">
        <ele>451</ele>
        <time>2023-01-12T13:23:27Z</time>
      </trkpt>
      <trkpt lat="45.39693" lon="5.53383">
        <ele>450.03</ele>
        <time>2023-01-12T13:23:29Z</time>
      </trkpt>
      <trkpt lat="45.39694" lon="5.53385">
        <ele>449.55</ele>
        <time>2023-01-12T13:23:30Z</time>
      </trkpt>
      <trkpt lat="45.39696" lon="5.53385">
        <ele>448.59</ele>
        <time>2023-01-12T13:23:31Z</time>
      </trkpt>
      <trkpt lat="45.39698" lon="5.53385">
        <ele>448.11</ele>
        <time>2023-01-12T13:23:32Z</time>
      </trkpt>
      <trkpt lat="45.39701" lon="5.53382">
        <ele>446.19</ele>
        <time>2023-01-12T13:23:35Z</time>
      </trkpt>
      <trkpt lat="45.3971" lon="5.53373">
        <ele>443.79</ele>
        <time>2023-01-12T13:23:40Z</time>
      </trkpt>
      <trkpt lat="45.3971" lon="5.5337">
        <ele>443.79</ele>
        <time>2023-01-12T13:23:41Z</time>
      </trkpt>
      <trkpt lat="45.3971" lon="5.53368">
        <ele>444.27</ele>
        <time>2023-01-12T13:23:42Z</time>
      </trkpt>
      <trkpt lat="45.3971" lon="5.53364">
        <ele>444.27</ele>
        <time>2023-01-12T13:23:43Z</time>
      </trkpt>
      <trkpt lat="45.39709" lon="5.5336">
        <ele>444.75</ele>
        <time>2023-01-12T13:23:44Z</time>
      </trkpt>
      <trkpt lat="45.39708" lon="5.53356">
        <ele>444.75</ele>
        <time>2023-01-12T13:23:45Z</time>
      </trkpt>
      <trkpt lat="45.39707" lon="5.53351">
        <ele>443.79</ele>
        <time>2023-01-12T13:23:46Z</time>
      </trkpt>
      <trkpt lat="45.39705" lon="5.53346">
        <ele>443.79</ele>
        <time>2023-01-12T13:23:47Z</time>
      </trkpt>
      <trkpt lat="45.39697" lon="5.53325">
        <ele>444.27</ele>
        <time>2023-01-12T13:23:51Z</time>
      </trkpt>
      <trkpt lat="45.39696" lon="5.53319">
        <ele>444.27</ele>
        <time>2023-01-12T13:23:52Z</time>
      </trkpt>
      <trkpt lat="45.39693" lon="5.53313">
        <ele>444.27</ele>
        <time>2023-01-12T13:23:53Z</time>
      </trkpt>
      <trkpt lat="45.39691" lon="5.53307">
        <ele>444.75</ele>
        <time>2023-01-12T13:23:54Z</time>
      </trkpt>
      <trkpt lat="45.39688" lon="5.53301">
        <ele>443.79</ele>
        <time>2023-01-12T13:23:55Z</time>
      </trkpt>
      <trkpt lat="45.39685" lon="5.53295">
        <ele>444.27</ele>
        <time>2023-01-12T13:23:56Z</time>
      </trkpt>
      <trkpt lat="45.39683" lon="5.53289">
        <ele>444.27</ele>
        <time>2023-01-12T13:23:57Z</time>
      </trkpt>
      <trkpt lat="45.3968" lon="5.53282">
        <ele>444.27</ele>
        <time>2023-01-12T13:23:58Z</time>
      </trkpt>
      <trkpt lat="45.39677" lon="5.53276">
        <ele>443.79</ele>
        <time>2023-01-12T13:23:59Z</time>
      </trkpt>
      <trkpt lat="45.39675" lon="5.53269">
        <ele>443.79</ele>
        <time>2023-01-12T13:24:00Z</time>
      </trkpt>
      <trkpt lat="45.39651" lon="5.53196">
        <ele>444.27</ele>
        <time>2023-01-12T13:24:10Z</time>
      </trkpt>
      <trkpt lat="45.39643" lon="5.5313">
        <ele>444.27</ele>
        <time>2023-01-12T13:24:18Z</time>
      </trkpt>
      <trkpt lat="45.39642" lon="5.53122">
        <ele>444.27</ele>
        <time>2023-01-12T13:24:19Z</time>
      </trkpt>
      <trkpt lat="45.3964" lon="5.53115">
        <ele>444.27</ele>
        <time>2023-01-12T13:24:20Z</time>
      </trkpt>
      <trkpt lat="45.39637" lon="5.53107">
        <ele>444.27</ele>
        <time>2023-01-12T13:24:21Z</time>
      </trkpt>
      <trkpt lat="45.39634" lon="5.531">
        <ele>444.27</ele>
        <time>2023-01-12T13:24:22Z</time>
      </trkpt>
      <trkpt lat="45.39631" lon="5.53094">
        <ele>444.27</ele>
        <time>2023-01-12T13:24:23Z</time>
      </trkpt>
      <trkpt lat="45.39628" lon="5.53087">
        <ele>443.79</ele>
        <time>2023-01-12T13:24:24Z</time>
      </trkpt>
      <trkpt lat="45.39624" lon="5.53082">
        <ele>444.27</ele>
        <time>2023-01-12T13:24:25Z</time>
      </trkpt>
      <trkpt lat="45.3962" lon="5.53076">
        <ele>444.27</ele>
        <time>2023-01-12T13:24:26Z</time>
      </trkpt>
      <trkpt lat="45.39616" lon="5.53071">
        <ele>443.31</ele>
        <time>2023-01-12T13:24:27Z</time>
      </trkpt>
      <trkpt lat="45.39548" lon="5.53006">
        <ele>442.34</ele>
        <time>2023-01-12T13:24:41Z</time>
      </trkpt>
      <trkpt lat="45.39514" lon="5.52983">
        <ele>441.86</ele>
        <time>2023-01-12T13:24:47Z</time>
      </trkpt>
      <trkpt lat="45.39511" lon="5.52976">
        <ele>441.86</ele>
        <time>2023-01-12T13:24:48Z</time>
      </trkpt>
      <trkpt lat="45.3951" lon="5.52968">
        <ele>441.86</ele>
        <time>2023-01-12T13:24:49Z</time>
      </trkpt>
      <trkpt lat="45.39511" lon="5.5296">
        <ele>441.86</ele>
        <time>2023-01-12T13:24:50Z</time>
      </trkpt>
      <trkpt lat="45.39513" lon="5.52951">
        <ele>441.86</ele>
        <time>2023-01-12T13:24:51Z</time>
      </trkpt>
      <trkpt lat="45.39515" lon="5.52943">
        <ele>441.38</ele>
        <time>2023-01-12T13:24:52Z</time>
      </trkpt>
      <trkpt lat="45.39533" lon="5.52877">
        <ele>439.46</ele>
        <time>2023-01-12T13:25:00Z</time>
      </trkpt>
      <trkpt lat="45.39541" lon="5.52863">
        <ele>438.5</ele>
        <time>2023-01-12T13:25:05Z</time>
      </trkpt>
      <trkpt lat="45.39542" lon="5.5286">
        <ele>438.98</ele>
        <time>2023-01-12T13:25:06Z</time>
      </trkpt>
      <trkpt lat="45.39543" lon="5.52856">
        <ele>438.98</ele>
        <time>2023-01-12T13:25:07Z</time>
      </trkpt>
      <trkpt lat="45.3954" lon="5.52846">
        <ele>438.98</ele>
        <time>2023-01-12T13:25:12Z</time>
      </trkpt>
      <trkpt lat="45.39539" lon="5.52845">
        <ele>439.46</ele>
        <time>2023-01-12T13:25:13Z</time>
      </trkpt>
      <trkpt lat="45.39536" lon="5.52845">
        <ele>438.5</ele>
        <time>2023-01-12T13:25:14Z</time>
      </trkpt>
      <trkpt lat="45.39529" lon="5.52844">
        <ele>438.5</ele>
        <time>2023-01-12T13:25:16Z</time>
      </trkpt>
      <trkpt lat="45.39524" lon="5.52843">
        <ele>438.5</ele>
        <time>2023-01-12T13:25:17Z</time>
      </trkpt>
      <trkpt lat="45.39519" lon="5.52841">
        <ele>438.02</ele>
        <time>2023-01-12T13:25:18Z</time>
      </trkpt>
      <trkpt lat="45.39487" lon="5.52819">
        <ele>437.06</ele>
        <time>2023-01-12T13:25:25Z</time>
      </trkpt>
      <trkpt lat="45.39455" lon="5.52797">
        <ele>437.54</ele>
        <time>2023-01-12T13:25:32Z</time>
      </trkpt>
      <trkpt lat="45.39432" lon="5.52774">
        <ele>437.54</ele>
        <time>2023-01-12T13:25:38Z</time>
      </trkpt>
      <trkpt lat="45.39415" lon="5.52762">
        <ele>437.06</ele>
        <time>2023-01-12T13:25:43Z</time>
      </trkpt>
      <trkpt lat="45.39412" lon="5.52764">
        <ele>437.06</ele>
        <time>2023-01-12T13:25:44Z</time>
      </trkpt>
      <trkpt lat="45.3941" lon="5.52769">
        <ele>437.06</ele>
        <time>2023-01-12T13:25:45Z</time>
      </trkpt>
      <trkpt lat="45.39406" lon="5.52779">
        <ele>436.1</ele>
        <time>2023-01-12T13:25:47Z</time>
      </trkpt>
      <trkpt lat="45.39383" lon="5.52764">
        <ele>436.1</ele>
        <time>2023-01-12T13:25:55Z</time>
      </trkpt>
      <trkpt lat="45.39377" lon="5.52748">
        <ele>436.1</ele>
        <time>2023-01-12T13:25:58Z</time>
      </trkpt>
      <trkpt lat="45.39375" lon="5.52742">
        <ele>436.1</ele>
        <time>2023-01-12T13:25:59Z</time>
      </trkpt>
      <trkpt lat="45.39347" lon="5.52714">
        <ele>436.1</ele>
        <time>2023-01-12T13:26:08Z</time>
      </trkpt>
      <trkpt lat="45.39331" lon="5.52704">
        <ele>436.1</ele>
        <time>2023-01-12T13:26:12Z</time>
      </trkpt>
      <trkpt lat="45.39327" lon="5.52701">
        <ele>436.1</ele>
        <time>2023-01-12T13:26:13Z</time>
      </trkpt>
      <trkpt lat="45.39324" lon="5.52697">
        <ele>436.58</ele>
        <time>2023-01-12T13:26:14Z</time>
      </trkpt>
      <trkpt lat="45.39321" lon="5.52693">
        <ele>436.1</ele>
        <time>2023-01-12T13:26:15Z</time>
      </trkpt>
      <trkpt lat="45.39318" lon="5.5269">
        <ele>436.1</ele>
        <time>2023-01-12T13:26:16Z</time>
      </trkpt>
      <trkpt lat="45.39289" lon="5.5266">
        <ele>435.61</ele>
        <time>2023-01-12T13:26:24Z</time>
      </trkpt>
      <trkpt lat="45.39273" lon="5.52639">
        <ele>436.1</ele>
        <time>2023-01-12T13:26:29Z</time>
      </trkpt>
      <trkpt lat="45.3927" lon="5.52634">
        <ele>435.61</ele>
        <time>2023-01-12T13:26:30Z</time>
      </trkpt>
      <trkpt lat="45.3925" lon="5.52598">
        <ele>435.61</ele>
        <time>2023-01-12T13:26:37Z</time>
      </trkpt>
      <trkpt lat="45.39246" lon="5.52587">
        <ele>436.1</ele>
        <time>2023-01-12T13:26:39Z</time>
      </trkpt>
      <trkpt lat="45.39244" lon="5.52581">
        <ele>436.1</ele>
        <time>2023-01-12T13:26:40Z</time>
      </trkpt>
      <trkpt lat="45.39233" lon="5.52502">
        <ele>435.13</ele>
        <time>2023-01-12T13:26:51Z</time>
      </trkpt>
      <trkpt lat="45.39231" lon="5.52495">
        <ele>434.65</ele>
        <time>2023-01-12T13:26:52Z</time>
      </trkpt>
      <trkpt lat="45.39229" lon="5.52488">
        <ele>434.65</ele>
        <time>2023-01-12T13:26:53Z</time>
      </trkpt>
      <trkpt lat="45.39226" lon="5.52481">
        <ele>434.65</ele>
        <time>2023-01-12T13:26:54Z</time>
      </trkpt>
      <trkpt lat="45.39224" lon="5.52473">
        <ele>434.17</ele>
        <time>2023-01-12T13:26:55Z</time>
      </trkpt>
      <trkpt lat="45.39223" lon="5.52466">
        <ele>434.17</ele>
        <time>2023-01-12T13:26:56Z</time>
      </trkpt>
      <trkpt lat="45.39211" lon="5.52397">
        <ele>433.21</ele>
        <time>2023-01-12T13:27:05Z</time>
      </trkpt>
      <trkpt lat="45.3921" lon="5.52384">
        <ele>433.69</ele>
        <time>2023-01-12T13:27:07Z</time>
      </trkpt>
      <trkpt lat="45.39208" lon="5.52359">
        <ele>433.21</ele>
        <time>2023-01-12T13:27:12Z</time>
      </trkpt>
      <trkpt lat="45.39209" lon="5.52357">
        <ele>433.21</ele>
        <time>2023-01-12T13:27:13Z</time>
      </trkpt>
      <trkpt lat="45.39212" lon="5.52355">
        <ele>433.21</ele>
        <time>2023-01-12T13:27:14Z</time>
      </trkpt>
      <trkpt lat="45.39214" lon="5.52355">
        <ele>433.21</ele>
        <time>2023-01-12T13:27:15Z</time>
      </trkpt>
      <trkpt lat="45.39217" lon="5.52357">
        <ele>433.21</ele>
        <time>2023-01-12T13:27:16Z</time>
      </trkpt>
      <trkpt lat="45.3922" lon="5.52358">
        <ele>433.21</ele>
        <time>2023-01-12T13:27:17Z</time>
      </trkpt>
      <trkpt lat="45.39222" lon="5.5236">
        <ele>433.21</ele>
        <time>2023-01-12T13:27:18Z</time>
      </trkpt>
      <trkpt lat="45.39241" lon="5.52368">
        <ele>432.73</ele>
        <time>2023-01-12T13:27:27Z</time>
      </trkpt>
      <trkpt lat="45.39244" lon="5.52368">
        <ele>432.73</ele>
        <time>2023-01-12T13:27:29Z</time>
      </trkpt>
      <trkpt lat="45.39282" lon="5.52367">
        <ele>433.21</ele>
        <time>2023-01-12T13:27:41Z</time>
      </trkpt>
      <trkpt lat="45.39315" lon="5.52344">
        <ele>434.65</ele>
        <time>2023-01-12T13:27:52Z</time>
      </trkpt>
      <trkpt lat="45.39354" lon="5.52294">
        <ele>436.58</ele>
        <time>2023-01-12T13:28:07Z</time>
      </trkpt>
      <trkpt lat="45.39388" lon="5.52253">
        <ele>438.5</ele>
        <time>2023-01-12T13:28:20Z</time>
      </trkpt>
      <trkpt lat="45.39401" lon="5.52239">
        <ele>438.98</ele>
        <time>2023-01-12T13:28:26Z</time>
      </trkpt>
      <trkpt lat="45.39403" lon="5.5224">
        <ele>438.98</ele>
        <time>2023-01-12T13:28:27Z</time>
      </trkpt>
      <trkpt lat="45.39405" lon="5.52235">
        <ele>439.46</ele>
        <time>2023-01-12T13:28:31Z</time>
      </trkpt>
      <trkpt lat="45.39406" lon="5.52233">
        <ele>438.98</ele>
        <time>2023-01-12T13:28:32Z</time>
      </trkpt>
      <trkpt lat="45.39408" lon="5.52231">
        <ele>438.98</ele>
        <time>2023-01-12T13:28:33Z</time>
      </trkpt>
      <trkpt lat="45.39433" lon="5.52204">
        <ele>439.94</ele>
        <time>2023-01-12T13:28:49Z</time>
      </trkpt>
      <trkpt lat="45.39434" lon="5.522">
        <ele>440.42</ele>
        <time>2023-01-12T13:28:53Z</time>
      </trkpt>
      <trkpt lat="45.39432" lon="5.52196">
        <ele>440.9</ele>
        <time>2023-01-12T13:29:08Z</time>
      </trkpt>
      <trkpt lat="45.39433" lon="5.522">
        <ele>440.42</ele>
        <time>2023-01-12T13:29:11Z</time>
      </trkpt>
      <trkpt lat="45.39444" lon="5.52214">
        <ele>443.31</ele>
        <time>2023-01-12T13:29:22Z</time>
      </trkpt>
      <trkpt lat="45.39465" lon="5.5222">
        <ele>445.23</ele>
        <time>2023-01-12T13:29:34Z</time>
      </trkpt>
      <trkpt lat="45.39479" lon="5.52206">
        <ele>445.71</ele>
        <time>2023-01-12T13:29:42Z</time>
      </trkpt>
      <trkpt lat="45.3948" lon="5.52159">
        <ele>449.55</ele>
        <time>2023-01-12T13:29:59Z</time>
      </trkpt>
      <trkpt lat="45.39484" lon="5.52118">
        <ele>451.96</ele>
        <time>2023-01-12T13:30:14Z</time>
      </trkpt>
      <trkpt lat="45.39481" lon="5.52102">
        <ele>452.44</ele>
        <time>2023-01-12T13:30:20Z</time>
      </trkpt>
      <trkpt lat="45.3948" lon="5.52099">
        <ele>452.44</ele>
        <time>2023-01-12T13:30:21Z</time>
      </trkpt>
      <trkpt lat="45.39479" lon="5.52097">
        <ele>452.92</ele>
        <time>2023-01-12T13:30:22Z</time>
      </trkpt>
      <trkpt lat="45.39478" lon="5.52094">
        <ele>452.92</ele>
        <time>2023-01-12T13:30:23Z</time>
      </trkpt>
      <trkpt lat="45.39478" lon="5.52091">
        <ele>453.4</ele>
        <time>2023-01-12T13:30:24Z</time>
      </trkpt>
      <trkpt lat="45.39478" lon="5.52089">
        <ele>453.4</ele>
        <time>2023-01-12T13:30:25Z</time>
      </trkpt>
      <trkpt lat="45.39478" lon="5.52086">
        <ele>453.4</ele>
        <time>2023-01-12T13:30:26Z</time>
      </trkpt>
      <trkpt lat="45.39478" lon="5.52083">
        <ele>453.88</ele>
        <time>2023-01-12T13:30:27Z</time>
      </trkpt>
      <trkpt lat="45.39478" lon="5.5208">
        <ele>453.88</ele>
        <time>2023-01-12T13:30:28Z</time>
      </trkpt>
      <trkpt lat="45.39485" lon="5.52038">
        <ele>456.28</ele>
        <time>2023-01-12T13:30:42Z</time>
      </trkpt>
      <trkpt lat="45.39485" lon="5.52026">
        <ele>457.24</ele>
        <time>2023-01-12T13:30:46Z</time>
      </trkpt>
      <trkpt lat="45.39486" lon="5.52024">
        <ele>456.76</ele>
        <time>2023-01-12T13:30:47Z</time>
      </trkpt>
      <trkpt lat="45.39488" lon="5.52019">
        <ele>457.24</ele>
        <time>2023-01-12T13:30:49Z</time>
      </trkpt>
      <trkpt lat="45.3949" lon="5.52018">
        <ele>457.24</ele>
        <time>2023-01-12T13:30:50Z</time>
      </trkpt>
      <trkpt lat="45.39492" lon="5.52017">
        <ele>457.72</ele>
        <time>2023-01-12T13:30:51Z</time>
      </trkpt>
      <trkpt lat="45.39494" lon="5.52017">
        <ele>457.72</ele>
        <time>2023-01-12T13:30:52Z</time>
      </trkpt>
      <trkpt lat="45.39496" lon="5.52018">
        <ele>458.21</ele>
        <time>2023-01-12T13:30:53Z</time>
      </trkpt>
      <trkpt lat="45.39503" lon="5.52025">
        <ele>458.21</ele>
        <time>2023-01-12T13:30:57Z</time>
      </trkpt>
      <trkpt lat="45.39504" lon="5.52028">
        <ele>458.69</ele>
        <time>2023-01-12T13:30:58Z</time>
      </trkpt>
      <trkpt lat="45.39504" lon="5.5203">
        <ele>458.69</ele>
        <time>2023-01-12T13:30:59Z</time>
      </trkpt>
      <trkpt lat="45.39503" lon="5.52034">
        <ele>459.17</ele>
        <time>2023-01-12T13:31:00Z</time>
      </trkpt>
      <trkpt lat="45.39502" lon="5.52037">
        <ele>458.69</ele>
        <time>2023-01-12T13:31:01Z</time>
      </trkpt>
      <trkpt lat="45.39501" lon="5.5204">
        <ele>458.69</ele>
        <time>2023-01-12T13:31:02Z</time>
      </trkpt>
      <trkpt lat="45.39499" lon="5.52043">
        <ele>459.65</ele>
        <time>2023-01-12T13:31:03Z</time>
      </trkpt>
      <trkpt lat="45.39494" lon="5.52092">
        <ele>461.57</ele>
        <time>2023-01-12T13:31:19Z</time>
      </trkpt>
      <trkpt lat="45.39498" lon="5.521">
        <ele>461.57</ele>
        <time>2023-01-12T13:31:22Z</time>
      </trkpt>
      <trkpt lat="45.39499" lon="5.52103">
        <ele>462.05</ele>
        <time>2023-01-12T13:31:23Z</time>
      </trkpt>
      <trkpt lat="45.39501" lon="5.52105">
        <ele>462.05</ele>
        <time>2023-01-12T13:31:24Z</time>
      </trkpt>
      <trkpt lat="45.39502" lon="5.52107">
        <ele>462.05</ele>
        <time>2023-01-12T13:31:25Z</time>
      </trkpt>
      <trkpt lat="45.39503" lon="5.5211">
        <ele>462.05</ele>
        <time>2023-01-12T13:31:26Z</time>
      </trkpt>
      <trkpt lat="45.39504" lon="5.52112">
        <ele>462.53</ele>
        <time>2023-01-12T13:31:27Z</time>
      </trkpt>
      <trkpt lat="45.39522" lon="5.52147">
        <ele>464.93</ele>
        <time>2023-01-12T13:31:42Z</time>
      </trkpt>
      <trkpt lat="45.39546" lon="5.52186">
        <ele>467.82</ele>
        <time>2023-01-12T13:31:59Z</time>
      </trkpt>
      <trkpt lat="45.39568" lon="5.52216">
        <ele>471.18</ele>
        <time>2023-01-12T13:32:15Z</time>
      </trkpt>
      <trkpt lat="45.39597" lon="5.52231">
        <ele>473.59</ele>
        <time>2023-01-12T13:32:32Z</time>
      </trkpt>
      <trkpt lat="45.39625" lon="5.52245">
        <ele>475.99</ele>
        <time>2023-01-12T13:32:47Z</time>
      </trkpt>
      <trkpt lat="45.39647" lon="5.52247">
        <ele>477.91</ele>
        <time>2023-01-12T13:32:58Z</time>
      </trkpt>
      <trkpt lat="45.39674" lon="5.52236">
        <ele>480.8</ele>
        <time>2023-01-12T13:33:12Z</time>
      </trkpt>
      <trkpt lat="45.39696" lon="5.52192">
        <ele>483.2</ele>
        <time>2023-01-12T13:33:30Z</time>
      </trkpt>
      <trkpt lat="45.39721" lon="5.52166">
        <ele>485.12</ele>
        <time>2023-01-12T13:33:45Z</time>
      </trkpt>
      <trkpt lat="45.39744" lon="5.5216">
        <ele>486.56</ele>
        <time>2023-01-12T13:33:56Z</time>
      </trkpt>
      <trkpt lat="45.39768" lon="5.52138">
        <ele>488.97</ele>
        <time>2023-01-12T13:34:10Z</time>
      </trkpt>
      <trkpt lat="45.39791" lon="5.52111">
        <ele>492.33</ele>
        <time>2023-01-12T13:34:27Z</time>
      </trkpt>
      <trkpt lat="45.39828" lon="5.52105">
        <ele>495.22</ele>
        <time>2023-01-12T13:34:46Z</time>
      </trkpt>
      <trkpt lat="45.39865" lon="5.52101">
        <ele>497.62</ele>
        <time>2023-01-12T13:35:04Z</time>
      </trkpt>
      <trkpt lat="45.39909" lon="5.52106">
        <ele>499.06</ele>
        <time>2023-01-12T13:35:21Z</time>
      </trkpt>
      <trkpt lat="45.39961" lon="5.52135">
        <ele>500.98</ele>
        <time>2023-01-12T13:35:39Z</time>
      </trkpt>
      <trkpt lat="45.40015" lon="5.52143">
        <ele>501.95</ele>
        <time>2023-01-12T13:35:55Z</time>
      </trkpt>
      <trkpt lat="45.40069" lon="5.52126">
        <ele>504.83</ele>
        <time>2023-01-12T13:36:12Z</time>
      </trkpt>
      <trkpt lat="45.40123" lon="5.52121">
        <ele>505.79</ele>
        <time>2023-01-12T13:36:27Z</time>
      </trkpt>
      <trkpt lat="45.40139" lon="5.52123">
        <ele>505.79</ele>
        <time>2023-01-12T13:36:31Z</time>
      </trkpt>
      <trkpt lat="45.40143" lon="5.52125">
        <ele>506.27</ele>
        <time>2023-01-12T13:36:32Z</time>
      </trkpt>
      <trkpt lat="45.40146" lon="5.52127">
        <ele>506.27</ele>
        <time>2023-01-12T13:36:33Z</time>
      </trkpt>
      <trkpt lat="45.4015" lon="5.52129">
        <ele>506.27</ele>
        <time>2023-01-12T13:36:34Z</time>
      </trkpt>
      <trkpt lat="45.40153" lon="5.52132">
        <ele>506.27</ele>
        <time>2023-01-12T13:36:35Z</time>
      </trkpt>
      <trkpt lat="45.40157" lon="5.52135">
        <ele>506.27</ele>
        <time>2023-01-12T13:36:36Z</time>
      </trkpt>
      <trkpt lat="45.4016" lon="5.52139">
        <ele>506.75</ele>
        <time>2023-01-12T13:36:37Z</time>
      </trkpt>
      <trkpt lat="45.402" lon="5.52207">
        <ele>507.71</ele>
        <time>2023-01-12T13:36:52Z</time>
      </trkpt>
      <trkpt lat="45.40245" lon="5.52261">
        <ele>509.64</ele>
        <time>2023-01-12T13:37:07Z</time>
      </trkpt>
      <trkpt lat="45.40298" lon="5.52297">
        <ele>510.6</ele>
        <time>2023-01-12T13:37:21Z</time>
      </trkpt>
      <trkpt lat="45.40301" lon="5.52298">
        <ele>510.6</ele>
        <time>2023-01-12T13:37:22Z</time>
      </trkpt>
      <trkpt lat="45.40363" lon="5.52324">
        <ele>512.52</ele>
        <time>2023-01-12T13:37:37Z</time>
      </trkpt>
      <trkpt lat="45.40426" lon="5.52351">
        <ele>514.44</ele>
        <time>2023-01-12T13:37:53Z</time>
      </trkpt>
      <trkpt lat="45.40482" lon="5.52375">
        <ele>515.4</ele>
        <time>2023-01-12T13:38:07Z</time>
      </trkpt>
      <trkpt lat="45.40485" lon="5.52378">
        <ele>515.4</ele>
        <time>2023-01-12T13:38:08Z</time>
      </trkpt>
      <trkpt lat="45.40502" lon="5.52397">
        <ele>515.88</ele>
        <time>2023-01-12T13:38:13Z</time>
      </trkpt>
      <trkpt lat="45.40505" lon="5.52401">
        <ele>516.37</ele>
        <time>2023-01-12T13:38:14Z</time>
      </trkpt>
      <trkpt lat="45.4051" lon="5.5241">
        <ele>516.37</ele>
        <time>2023-01-12T13:38:16Z</time>
      </trkpt>
      <trkpt lat="45.40561" lon="5.52467">
        <ele>517.81</ele>
        <time>2023-01-12T13:38:32Z</time>
      </trkpt>
      <trkpt lat="45.40597" lon="5.52506">
        <ele>518.77</ele>
        <time>2023-01-12T13:38:43Z</time>
      </trkpt>
      <trkpt lat="45.406" lon="5.52509">
        <ele>518.77</ele>
        <time>2023-01-12T13:38:44Z</time>
      </trkpt>
      <trkpt lat="45.4064" lon="5.52548">
        <ele>520.21</ele>
        <time>2023-01-12T13:38:56Z</time>
      </trkpt>
      <trkpt lat="45.40647" lon="5.52557">
        <ele>519.73</ele>
        <time>2023-01-12T13:38:58Z</time>
      </trkpt>
      <trkpt lat="45.40649" lon="5.52561">
        <ele>520.21</ele>
        <time>2023-01-12T13:38:59Z</time>
      </trkpt>
      <trkpt lat="45.40689" lon="5.52644">
        <ele>521.65</ele>
        <time>2023-01-12T13:39:16Z</time>
      </trkpt>
      <trkpt lat="45.40736" lon="5.52747">
        <ele>523.09</ele>
        <time>2023-01-12T13:39:37Z</time>
      </trkpt>
      <trkpt lat="45.40776" lon="5.52836">
        <ele>525.02</ele>
        <time>2023-01-12T13:39:56Z</time>
      </trkpt>
      <trkpt lat="45.40814" lon="5.52901">
        <ele>524.54</ele>
        <time>2023-01-12T13:40:13Z</time>
      </trkpt>
      <trkpt lat="45.40823" lon="5.52924">
        <ele>521.65</ele>
        <time>2023-01-12T13:40:19Z</time>
      </trkpt>
      <trkpt lat="45.40829" lon="5.52939">
        <ele>518.77</ele>
        <time>2023-01-12T13:40:24Z</time>
      </trkpt>
      <trkpt lat="45.40836" lon="5.52965">
        <ele>515.4</ele>
        <time>2023-01-12T13:40:29Z</time>
      </trkpt>
      <trkpt lat="45.40842" lon="5.52983">
        <ele>513</ele>
        <time>2023-01-12T13:40:32Z</time>
      </trkpt>
      <trkpt lat="45.40843" lon="5.5299">
        <ele>512.04</ele>
        <time>2023-01-12T13:40:33Z</time>
      </trkpt>
      <trkpt lat="45.40847" lon="5.53007">
        <ele>508.67</ele>
        <time>2023-01-12T13:40:36Z</time>
      </trkpt>
      <trkpt lat="45.40853" lon="5.53025">
        <ele>505.31</ele>
        <time>2023-01-12T13:40:40Z</time>
      </trkpt>
      <trkpt lat="45.40854" lon="5.53028">
        <ele>505.31</ele>
        <time>2023-01-12T13:40:41Z</time>
      </trkpt>
      <trkpt lat="45.40855" lon="5.53031">
        <ele>504.35</ele>
        <time>2023-01-12T13:40:42Z</time>
      </trkpt>
      <trkpt lat="45.40861" lon="5.53041">
        <ele>502.91</ele>
        <time>2023-01-12T13:40:45Z</time>
      </trkpt>
      <trkpt lat="45.40868" lon="5.53049">
        <ele>501.46</ele>
        <time>2023-01-12T13:40:47Z</time>
      </trkpt>
      <trkpt lat="45.40872" lon="5.53052">
        <ele>500.02</ele>
        <time>2023-01-12T13:40:48Z</time>
      </trkpt>
      <trkpt lat="45.40876" lon="5.53055">
        <ele>498.58</ele>
        <time>2023-01-12T13:40:49Z</time>
      </trkpt>
      <trkpt lat="45.40894" lon="5.53066">
        <ele>495.7</ele>
        <time>2023-01-12T13:40:52Z</time>
      </trkpt>
      <trkpt lat="45.40911" lon="5.53077">
        <ele>492.33</ele>
        <time>2023-01-12T13:40:55Z</time>
      </trkpt>
      <trkpt lat="45.40915" lon="5.5308">
        <ele>491.85</ele>
        <time>2023-01-12T13:40:56Z</time>
      </trkpt>
      <trkpt lat="45.40924" lon="5.53086">
        <ele>489.45</ele>
        <time>2023-01-12T13:40:58Z</time>
      </trkpt>
      <trkpt lat="45.40927" lon="5.5309">
        <ele>489.45</ele>
        <time>2023-01-12T13:40:59Z</time>
      </trkpt>
      <trkpt lat="45.40934" lon="5.53096">
        <ele>487.05</ele>
        <time>2023-01-12T13:41:01Z</time>
      </trkpt>
      <trkpt lat="45.40948" lon="5.53102">
        <ele>483.68</ele>
        <time>2023-01-12T13:41:05Z</time>
      </trkpt>
      <trkpt lat="45.40958" lon="5.53107">
        <ele>481.28</ele>
        <time>2023-01-12T13:41:08Z</time>
      </trkpt>
      <trkpt lat="45.4096" lon="5.5311">
        <ele>480.8</ele>
        <time>2023-01-12T13:41:09Z</time>
      </trkpt>
      <trkpt lat="45.40963" lon="5.53113">
        <ele>479.84</ele>
        <time>2023-01-12T13:41:10Z</time>
      </trkpt>
      <trkpt lat="45.40965" lon="5.53116">
        <ele>479.35</ele>
        <time>2023-01-12T13:41:11Z</time>
      </trkpt>
      <trkpt lat="45.40968" lon="5.53118">
        <ele>478.39</ele>
        <time>2023-01-12T13:41:12Z</time>
      </trkpt>
      <trkpt lat="45.4097" lon="5.53119">
        <ele>477.43</ele>
        <time>2023-01-12T13:41:13Z</time>
      </trkpt>
      <trkpt lat="45.40978" lon="5.53125">
        <ele>474.55</ele>
        <time>2023-01-12T13:41:16Z</time>
      </trkpt>
      <trkpt lat="45.40993" lon="5.53132">
        <ele>470.22</ele>
        <time>2023-01-12T13:41:20Z</time>
      </trkpt>
      <trkpt lat="45.41004" lon="5.53136">
        <ele>469.74</ele>
        <time>2023-01-12T13:41:22Z</time>
      </trkpt>
      <trkpt lat="45.41023" lon="5.53143">
        <ele>467.82</ele>
        <time>2023-01-12T13:41:25Z</time>
      </trkpt>
      <trkpt lat="45.41027" lon="5.53149">
        <ele>466.86</ele>
        <time>2023-01-12T13:41:26Z</time>
      </trkpt>
      <trkpt lat="45.41029" lon="5.53155">
        <ele>466.38</ele>
        <time>2023-01-12T13:41:27Z</time>
      </trkpt>
      <trkpt lat="45.41029" lon="5.5316">
        <ele>465.9</ele>
        <time>2023-01-12T13:41:28Z</time>
      </trkpt>
      <trkpt lat="45.4103" lon="5.53164">
        <ele>465.9</ele>
        <time>2023-01-12T13:41:29Z</time>
      </trkpt>
      <trkpt lat="45.4103" lon="5.53167">
        <ele>466.86</ele>
        <time>2023-01-12T13:41:30Z</time>
      </trkpt>
      <trkpt lat="45.41031" lon="5.5317">
        <ele>466.38</ele>
        <time>2023-01-12T13:41:31Z</time>
      </trkpt>
      <trkpt lat="45.41031" lon="5.53173">
        <ele>466.38</ele>
        <time>2023-01-12T13:41:32Z</time>
      </trkpt>
      <trkpt lat="45.41032" lon="5.53177">
        <ele>466.38</ele>
        <time>2023-01-12T13:41:33Z</time>
      </trkpt>
      <trkpt lat="45.41034" lon="5.53179">
        <ele>466.38</ele>
        <time>2023-01-12T13:41:34Z</time>
      </trkpt>
      <trkpt lat="45.41038" lon="5.53181">
        <ele>466.38</ele>
        <time>2023-01-12T13:41:35Z</time>
      </trkpt>
      <trkpt lat="45.41042" lon="5.53182">
        <ele>466.86</ele>
        <time>2023-01-12T13:41:36Z</time>
      </trkpt>
      <trkpt lat="45.41044" lon="5.53182">
        <ele>466.38</ele>
        <time>2023-01-12T13:41:37Z</time>
      </trkpt>
      <trkpt lat="45.41054" lon="5.53184">
        <ele>468.3</ele>
        <time>2023-01-12T13:41:44Z</time>
      </trkpt>
      <trkpt lat="45.41056" lon="5.53184">
        <ele>468.78</ele>
        <time>2023-01-12T13:41:45Z</time>
      </trkpt>
      <trkpt lat="45.41057" lon="5.53185">
        <ele>469.26</ele>
        <time>2023-01-12T13:41:46Z</time>
      </trkpt>
      <trkpt lat="45.41075" lon="5.5319">
        <ele>472.14</ele>
        <time>2023-01-12T13:41:59Z</time>
      </trkpt>
      <trkpt lat="45.41092" lon="5.53197">
        <ele>475.51</ele>
        <time>2023-01-12T13:42:10Z</time>
      </trkpt>
      <trkpt lat="45.41102" lon="5.53207">
        <ele>477.91</ele>
        <time>2023-01-12T13:42:20Z</time>
      </trkpt>
      <trkpt lat="45.41103" lon="5.53208">
        <ele>478.39</ele>
        <time>2023-01-12T13:42:21Z</time>
      </trkpt>
      <trkpt lat="45.41104" lon="5.5321">
        <ele>478.87</ele>
        <time>2023-01-12T13:42:22Z</time>
      </trkpt>
      <trkpt lat="45.41105" lon="5.53211">
        <ele>479.35</ele>
        <time>2023-01-12T13:42:23Z</time>
      </trkpt>
      <trkpt lat="45.41116" lon="5.53221">
        <ele>482.24</ele>
        <time>2023-01-12T13:42:31Z</time>
      </trkpt>
      <trkpt lat="45.41127" lon="5.53232">
        <ele>484.16</ele>
        <time>2023-01-12T13:42:43Z</time>
      </trkpt>
      <trkpt lat="45.41137" lon="5.5324">
        <ele>487.05</ele>
        <time>2023-01-12T13:43:00Z</time>
      </trkpt>
      <trkpt lat="45.41147" lon="5.53248">
        <ele>490.41</ele>
        <time>2023-01-12T13:43:14Z</time>
      </trkpt>
      <trkpt lat="45.41157" lon="5.5326">
        <ele>493.29</ele>
        <time>2023-01-12T13:43:28Z</time>
      </trkpt>
      <trkpt lat="45.41165" lon="5.53267">
        <ele>496.66</ele>
        <time>2023-01-12T13:43:42Z</time>
      </trkpt>
      <trkpt lat="45.41168" lon="5.53278">
        <ele>498.58</ele>
        <time>2023-01-12T13:43:56Z</time>
      </trkpt>
      <trkpt lat="45.41165" lon="5.53279">
        <ele>498.1</ele>
        <time>2023-01-12T13:43:59Z</time>
      </trkpt>
      <trkpt lat="45.41164" lon="5.53279">
        <ele>498.1</ele>
        <time>2023-01-12T13:44:00Z</time>
      </trkpt>
      <trkpt lat="45.41162" lon="5.53279">
        <ele>498.58</ele>
        <time>2023-01-12T13:44:01Z</time>
      </trkpt>
      <trkpt lat="45.41161" lon="5.53279">
        <ele>498.58</ele>
        <time>2023-01-12T13:44:02Z</time>
      </trkpt>
      <trkpt lat="45.41159" lon="5.53279">
        <ele>498.1</ele>
        <time>2023-01-12T13:44:03Z</time>
      </trkpt>
      <trkpt lat="45.41134" lon="5.53276">
        <ele>499.06</ele>
        <time>2023-01-12T13:44:15Z</time>
      </trkpt>
      <trkpt lat="45.4109" lon="5.53286">
        <ele>498.58</ele>
        <time>2023-01-12T13:44:28Z</time>
      </trkpt>
      <trkpt lat="45.41054" lon="5.53318">
        <ele>500.02</ele>
        <time>2023-01-12T13:44:40Z</time>
      </trkpt>
      <trkpt lat="45.40996" lon="5.5334">
        <ele>500.5</ele>
        <time>2023-01-12T13:44:54Z</time>
      </trkpt>
      <trkpt lat="45.40946" lon="5.53355">
        <ele>500.02</ele>
        <time>2023-01-12T13:45:04Z</time>
      </trkpt>
      <trkpt lat="45.40941" lon="5.53358">
        <ele>500.02</ele>
        <time>2023-01-12T13:45:05Z</time>
      </trkpt>
      <trkpt lat="45.40937" lon="5.53362">
        <ele>500.02</ele>
        <time>2023-01-12T13:45:06Z</time>
      </trkpt>
      <trkpt lat="45.40918" lon="5.53373">
        <ele>499.54</ele>
        <time>2023-01-12T13:45:13Z</time>
      </trkpt>
      <trkpt lat="45.40912" lon="5.53374">
        <ele>499.54</ele>
        <time>2023-01-12T13:45:26Z</time>
      </trkpt>
      <trkpt lat="45.40899" lon="5.53382">
        <ele>499.54</ele>
        <time>2023-01-12T13:45:30Z</time>
      </trkpt>
      <trkpt lat="45.4089" lon="5.53385">
        <ele>498.58</ele>
        <time>2023-01-12T13:45:32Z</time>
      </trkpt>
      <trkpt lat="45.40885" lon="5.53386">
        <ele>498.58</ele>
        <time>2023-01-12T13:45:33Z</time>
      </trkpt>
      <trkpt lat="45.4088" lon="5.53388">
        <ele>498.1</ele>
        <time>2023-01-12T13:45:34Z</time>
      </trkpt>
      <trkpt lat="45.40871" lon="5.53394">
        <ele>498.1</ele>
        <time>2023-01-12T13:45:36Z</time>
      </trkpt>
      <trkpt lat="45.40866" lon="5.53395">
        <ele>498.58</ele>
        <time>2023-01-12T13:45:37Z</time>
      </trkpt>
      <trkpt lat="45.40858" lon="5.53398">
        <ele>498.1</ele>
        <time>2023-01-12T13:45:39Z</time>
      </trkpt>
      <trkpt lat="45.40833" lon="5.53405">
        <ele>498.1</ele>
        <time>2023-01-12T13:45:44Z</time>
      </trkpt>
      <trkpt lat="45.40816" lon="5.53407">
        <ele>497.62</ele>
        <time>2023-01-12T13:45:47Z</time>
      </trkpt>
      <trkpt lat="45.40803" lon="5.53411">
        <ele>496.66</ele>
        <time>2023-01-12T13:45:49Z</time>
      </trkpt>
      <trkpt lat="45.40746" lon="5.53436">
        <ele>497.14</ele>
        <time>2023-01-12T13:46:00Z</time>
      </trkpt>
      <trkpt lat="45.40724" lon="5.53446">
        <ele>497.14</ele>
        <time>2023-01-12T13:46:05Z</time>
      </trkpt>
      <trkpt lat="45.40686" lon="5.5347">
        <ele>497.62</ele>
        <time>2023-01-12T13:46:15Z</time>
      </trkpt>
      <trkpt lat="45.40682" lon="5.53472">
        <ele>497.62</ele>
        <time>2023-01-12T13:46:16Z</time>
      </trkpt>
      <trkpt lat="45.40637" lon="5.53522">
        <ele>500.02</ele>
        <time>2023-01-12T13:46:32Z</time>
      </trkpt>
      <trkpt lat="45.40633" lon="5.53547">
        <ele>502.91</ele>
        <time>2023-01-12T13:46:42Z</time>
      </trkpt>
      <trkpt lat="45.40623" lon="5.53573">
        <ele>506.27</ele>
        <time>2023-01-12T13:46:54Z</time>
      </trkpt>
      <trkpt lat="45.40609" lon="5.53599">
        <ele>509.64</ele>
        <time>2023-01-12T13:47:07Z</time>
      </trkpt>
      <trkpt lat="45.40581" lon="5.53628">
        <ele>512.52</ele>
        <time>2023-01-12T13:47:26Z</time>
      </trkpt>
      <trkpt lat="45.40552" lon="5.53651">
        <ele>515.4</ele>
        <time>2023-01-12T13:47:44Z</time>
      </trkpt>
      <trkpt lat="45.40517" lon="5.53678">
        <ele>517.81</ele>
        <time>2023-01-12T13:48:04Z</time>
      </trkpt>
      <trkpt lat="45.40501" lon="5.53688">
        <ele>521.17</ele>
        <time>2023-01-12T13:48:14Z</time>
      </trkpt>
      <trkpt lat="45.40478" lon="5.53699">
        <ele>524.54</ele>
        <time>2023-01-12T13:48:30Z</time>
      </trkpt>
      <trkpt lat="45.40456" lon="5.5371">
        <ele>526.94</ele>
        <time>2023-01-12T13:48:45Z</time>
      </trkpt>
      <trkpt lat="45.40429" lon="5.53724">
        <ele>528.86</ele>
        <time>2023-01-12T13:48:59Z</time>
      </trkpt>
      <trkpt lat="45.40391" lon="5.53741">
        <ele>532.23</ele>
        <time>2023-01-12T13:49:17Z</time>
      </trkpt>
      <trkpt lat="45.40382" lon="5.5374">
        <ele>531.75</ele>
        <time>2023-01-12T13:49:29Z</time>
      </trkpt>
      <trkpt lat="45.40382" lon="5.5374">
        <ele>532.23</ele>
        <time>2023-01-12T13:49:32Z</time>
      </trkpt>
      <trkpt lat="45.40351" lon="5.53728">
        <ele>528.86</ele>
        <time>2023-01-12T13:49:41Z</time>
      </trkpt>
      <trkpt lat="45.40344" lon="5.53727">
        <ele>527.9</ele>
        <time>2023-01-12T13:49:42Z</time>
      </trkpt>
      <trkpt lat="45.40337" lon="5.53725">
        <ele>527.42</ele>
        <time>2023-01-12T13:49:43Z</time>
      </trkpt>
      <trkpt lat="45.40313" lon="5.5372">
        <ele>523.09</ele>
        <time>2023-01-12T13:49:46Z</time>
      </trkpt>
      <trkpt lat="45.40289" lon="5.53714">
        <ele>520.21</ele>
        <time>2023-01-12T13:49:49Z</time>
      </trkpt>
      <trkpt lat="45.40274" lon="5.53708">
        <ele>518.77</ele>
        <time>2023-01-12T13:49:51Z</time>
      </trkpt>
      <trkpt lat="45.40267" lon="5.53708">
        <ele>517.81</ele>
        <time>2023-01-12T13:49:52Z</time>
      </trkpt>
      <trkpt lat="45.40249" lon="5.53708">
        <ele>514.44</ele>
        <time>2023-01-12T13:49:54Z</time>
      </trkpt>
      <trkpt lat="45.4024" lon="5.53706">
        <ele>513.48</ele>
        <time>2023-01-12T13:49:55Z</time>
      </trkpt>
      <trkpt lat="45.40231" lon="5.53703">
        <ele>512.52</ele>
        <time>2023-01-12T13:49:56Z</time>
      </trkpt>
      <trkpt lat="45.40222" lon="5.53698">
        <ele>512.04</ele>
        <time>2023-01-12T13:49:57Z</time>
      </trkpt>
      <trkpt lat="45.40214" lon="5.53694">
        <ele>511.08</ele>
        <time>2023-01-12T13:49:58Z</time>
      </trkpt>
      <trkpt lat="45.40171" lon="5.53676">
        <ele>507.71</ele>
        <time>2023-01-12T13:50:03Z</time>
      </trkpt>
      <trkpt lat="45.40154" lon="5.53672">
        <ele>506.75</ele>
        <time>2023-01-12T13:50:05Z</time>
      </trkpt>
      <trkpt lat="45.40087" lon="5.53665">
        <ele>505.31</ele>
        <time>2023-01-12T13:50:16Z</time>
      </trkpt>
      <trkpt lat="45.40083" lon="5.53666">
        <ele>505.31</ele>
        <time>2023-01-12T13:50:17Z</time>
      </trkpt>
      <trkpt lat="45.40079" lon="5.53668">
        <ele>505.31</ele>
        <time>2023-01-12T13:50:18Z</time>
      </trkpt>
      <trkpt lat="45.40076" lon="5.53672">
        <ele>504.83</ele>
        <time>2023-01-12T13:50:19Z</time>
      </trkpt>
      <trkpt lat="45.40072" lon="5.53676">
        <ele>504.35</ele>
        <time>2023-01-12T13:50:20Z</time>
      </trkpt>
      <trkpt lat="45.40069" lon="5.53682">
        <ele>503.39</ele>
        <time>2023-01-12T13:50:21Z</time>
      </trkpt>
      <trkpt lat="45.40065" lon="5.53687">
        <ele>502.91</ele>
        <time>2023-01-12T13:50:22Z</time>
      </trkpt>
      <trkpt lat="45.40061" lon="5.53691">
        <ele>501.95</ele>
        <time>2023-01-12T13:50:23Z</time>
      </trkpt>
      <trkpt lat="45.40057" lon="5.53696">
        <ele>501.46</ele>
        <time>2023-01-12T13:50:24Z</time>
      </trkpt>
      <trkpt lat="45.40055" lon="5.53702">
        <ele>500.5</ele>
        <time>2023-01-12T13:50:25Z</time>
      </trkpt>
      <trkpt lat="45.40054" lon="5.53708">
        <ele>500.5</ele>
        <time>2023-01-12T13:50:26Z</time>
      </trkpt>
      <trkpt lat="45.40041" lon="5.53795">
        <ele>499.06</ele>
        <time>2023-01-12T13:50:40Z</time>
      </trkpt>
      <trkpt lat="45.4004" lon="5.53803">
        <ele>499.06</ele>
        <time>2023-01-12T13:50:41Z</time>
      </trkpt>
      <trkpt lat="45.4004" lon="5.5381">
        <ele>498.58</ele>
        <time>2023-01-12T13:50:42Z</time>
      </trkpt>
      <trkpt lat="45.4004" lon="5.53817">
        <ele>498.58</ele>
        <time>2023-01-12T13:50:43Z</time>
      </trkpt>
      <trkpt lat="45.40041" lon="5.53822">
        <ele>498.58</ele>
        <time>2023-01-12T13:50:44Z</time>
      </trkpt>
      <trkpt lat="45.40042" lon="5.53827">
        <ele>498.58</ele>
        <time>2023-01-12T13:50:45Z</time>
      </trkpt>
      <trkpt lat="45.40042" lon="5.53833">
        <ele>498.58</ele>
        <time>2023-01-12T13:50:46Z</time>
      </trkpt>
      <trkpt lat="45.40043" lon="5.53853">
        <ele>497.14</ele>
        <time>2023-01-12T13:50:49Z</time>
      </trkpt>
      <trkpt lat="45.40044" lon="5.53868">
        <ele>496.66</ele>
        <time>2023-01-12T13:50:51Z</time>
      </trkpt>
      <trkpt lat="45.40045" lon="5.53875">
        <ele>495.7</ele>
        <time>2023-01-12T13:50:52Z</time>
      </trkpt>
      <trkpt lat="45.40045" lon="5.53882">
        <ele>495.22</ele>
        <time>2023-01-12T13:50:53Z</time>
      </trkpt>
      <trkpt lat="45.40045" lon="5.53889">
        <ele>493.77</ele>
        <time>2023-01-12T13:50:54Z</time>
      </trkpt>
      <trkpt lat="45.40046" lon="5.53897">
        <ele>492.81</ele>
        <time>2023-01-12T13:50:55Z</time>
      </trkpt>
      <trkpt lat="45.40049" lon="5.53921">
        <ele>489.45</ele>
        <time>2023-01-12T13:50:58Z</time>
      </trkpt>
      <trkpt lat="45.40051" lon="5.53929">
        <ele>488.01</ele>
        <time>2023-01-12T13:50:59Z</time>
      </trkpt>
      <trkpt lat="45.40053" lon="5.53936">
        <ele>487.05</ele>
        <time>2023-01-12T13:51:00Z</time>
      </trkpt>
      <trkpt lat="45.40058" lon="5.53963">
        <ele>483.2</ele>
        <time>2023-01-12T13:51:03Z</time>
      </trkpt>
      <trkpt lat="45.4006" lon="5.5398">
        <ele>479.84</ele>
        <time>2023-01-12T13:51:05Z</time>
      </trkpt>
      <trkpt lat="45.40065" lon="5.54002">
        <ele>476.95</ele>
        <time>2023-01-12T13:51:07Z</time>
      </trkpt>
      <trkpt lat="45.40068" lon="5.54012">
        <ele>475.51</ele>
        <time>2023-01-12T13:51:08Z</time>
      </trkpt>
      <trkpt lat="45.40069" lon="5.54021">
        <ele>474.07</ele>
        <time>2023-01-12T13:51:09Z</time>
      </trkpt>
      <trkpt lat="45.40072" lon="5.54029">
        <ele>473.11</ele>
        <time>2023-01-12T13:51:10Z</time>
      </trkpt>
      <trkpt lat="45.40074" lon="5.54037">
        <ele>472.14</ele>
        <time>2023-01-12T13:51:11Z</time>
      </trkpt>
      <trkpt lat="45.40075" lon="5.54046">
        <ele>471.18</ele>
        <time>2023-01-12T13:51:12Z</time>
      </trkpt>
      <trkpt lat="45.40077" lon="5.54054">
        <ele>471.18</ele>
        <time>2023-01-12T13:51:13Z</time>
      </trkpt>
      <trkpt lat="45.40078" lon="5.54062">
        <ele>470.22</ele>
        <time>2023-01-12T13:51:14Z</time>
      </trkpt>
      <trkpt lat="45.40081" lon="5.54069">
        <ele>470.7</ele>
        <time>2023-01-12T13:51:15Z</time>
      </trkpt>
      <trkpt lat="45.40096" lon="5.54115">
        <ele>471.18</ele>
        <time>2023-01-12T13:51:25Z</time>
      </trkpt>
      <trkpt lat="45.40115" lon="5.54159">
        <ele>471.18</ele>
        <time>2023-01-12T13:51:32Z</time>
      </trkpt>
      <trkpt lat="45.40117" lon="5.54165">
        <ele>470.7</ele>
        <time>2023-01-12T13:51:33Z</time>
      </trkpt>
      <trkpt lat="45.40122" lon="5.54176">
        <ele>471.18</ele>
        <time>2023-01-12T13:51:35Z</time>
      </trkpt>
      <trkpt lat="45.40124" lon="5.54182">
        <ele>470.7</ele>
        <time>2023-01-12T13:51:36Z</time>
      </trkpt>
      <trkpt lat="45.40126" lon="5.54188">
        <ele>471.18</ele>
        <time>2023-01-12T13:51:37Z</time>
      </trkpt>
      <trkpt lat="45.40132" lon="5.542">
        <ele>471.66</ele>
        <time>2023-01-12T13:51:39Z</time>
      </trkpt>
      <trkpt lat="45.40155" lon="5.54276">
        <ele>470.22</ele>
        <time>2023-01-12T13:51:52Z</time>
      </trkpt>
      <trkpt lat="45.40167" lon="5.54339">
        <ele>471.18</ele>
        <time>2023-01-12T13:52:03Z</time>
      </trkpt>
      <trkpt lat="45.40186" lon="5.54393">
        <ele>471.18</ele>
        <time>2023-01-12T13:52:13Z</time>
      </trkpt>
      <trkpt lat="45.40189" lon="5.54398">
        <ele>471.18</ele>
        <time>2023-01-12T13:52:14Z</time>
      </trkpt>
      <trkpt lat="45.40193" lon="5.54402">
        <ele>470.7</ele>
        <time>2023-01-12T13:52:15Z</time>
      </trkpt>
      <trkpt lat="45.40196" lon="5.54406">
        <ele>470.7</ele>
        <time>2023-01-12T13:52:16Z</time>
      </trkpt>
      <trkpt lat="45.40199" lon="5.54411">
        <ele>470.22</ele>
        <time>2023-01-12T13:52:17Z</time>
      </trkpt>
      <trkpt lat="45.40235" lon="5.54454">
        <ele>470.7</ele>
        <time>2023-01-12T13:52:28Z</time>
      </trkpt>
      <trkpt lat="45.40273" lon="5.54487">
        <ele>471.66</ele>
        <time>2023-01-12T13:52:39Z</time>
      </trkpt>
      <trkpt lat="45.40312" lon="5.54536">
        <ele>473.59</ele>
        <time>2023-01-12T13:52:53Z</time>
      </trkpt>
      <trkpt lat="45.40327" lon="5.54584">
        <ele>475.51</ele>
        <time>2023-01-12T13:53:05Z</time>
      </trkpt>
      <trkpt lat="45.40344" lon="5.5463">
        <ele>477.43</ele>
        <time>2023-01-12T13:53:18Z</time>
      </trkpt>
      <trkpt lat="45.40378" lon="5.54631">
        <ele>478.87</ele>
        <time>2023-01-12T13:53:30Z</time>
      </trkpt>
      <trkpt lat="45.40413" lon="5.54632">
        <ele>480.32</ele>
        <time>2023-01-12T13:53:42Z</time>
      </trkpt>
      <trkpt lat="45.40458" lon="5.54613">
        <ele>483.2</ele>
        <time>2023-01-12T13:53:58Z</time>
      </trkpt>
      <trkpt lat="45.40504" lon="5.54603">
        <ele>485.12</ele>
        <time>2023-01-12T13:54:15Z</time>
      </trkpt>
      <trkpt lat="45.40542" lon="5.54619">
        <ele>486.56</ele>
        <time>2023-01-12T13:54:29Z</time>
      </trkpt>
      <trkpt lat="45.40598" lon="5.54641">
        <ele>488.49</ele>
        <time>2023-01-12T13:54:45Z</time>
      </trkpt>
      <trkpt lat="45.40617" lon="5.54648">
        <ele>488.49</ele>
        <time>2023-01-12T13:54:50Z</time>
      </trkpt>
      <trkpt lat="45.40626" lon="5.54647">
        <ele>488.49</ele>
        <time>2023-01-12T13:54:52Z</time>
      </trkpt>
      <trkpt lat="45.40629" lon="5.54648">
        <ele>488.97</ele>
        <time>2023-01-12T13:54:53Z</time>
      </trkpt>
      <trkpt lat="45.40656" lon="5.54656">
        <ele>489.45</ele>
        <time>2023-01-12T13:55:00Z</time>
      </trkpt>
      <trkpt lat="45.40661" lon="5.54657">
        <ele>488.97</ele>
        <time>2023-01-12T13:55:01Z</time>
      </trkpt>
      <trkpt lat="45.40669" lon="5.54658">
        <ele>488.97</ele>
        <time>2023-01-12T13:55:03Z</time>
      </trkpt>
      <trkpt lat="45.40678" lon="5.54658">
        <ele>489.45</ele>
        <time>2023-01-12T13:55:05Z</time>
      </trkpt>
      <trkpt lat="45.40682" lon="5.54659">
        <ele>488.97</ele>
        <time>2023-01-12T13:55:06Z</time>
      </trkpt>
      <trkpt lat="45.40686" lon="5.5466">
        <ele>489.45</ele>
        <time>2023-01-12T13:55:07Z</time>
      </trkpt>
      <trkpt lat="45.4069" lon="5.54662">
        <ele>489.45</ele>
        <time>2023-01-12T13:55:08Z</time>
      </trkpt>
      <trkpt lat="45.40693" lon="5.54663">
        <ele>489.45</ele>
        <time>2023-01-12T13:55:09Z</time>
      </trkpt>
      <trkpt lat="45.40697" lon="5.54665">
        <ele>489.45</ele>
        <time>2023-01-12T13:55:10Z</time>
      </trkpt>
      <trkpt lat="45.40701" lon="5.54666">
        <ele>488.97</ele>
        <time>2023-01-12T13:55:11Z</time>
      </trkpt>
      <trkpt lat="45.40728" lon="5.54673">
        <ele>489.45</ele>
        <time>2023-01-12T13:55:18Z</time>
      </trkpt>
      <trkpt lat="45.40732" lon="5.54676">
        <ele>488.97</ele>
        <time>2023-01-12T13:55:19Z</time>
      </trkpt>
      <trkpt lat="45.40735" lon="5.5468">
        <ele>488.97</ele>
        <time>2023-01-12T13:55:20Z</time>
      </trkpt>
      <trkpt lat="45.40738" lon="5.54685">
        <ele>488.97</ele>
        <time>2023-01-12T13:55:21Z</time>
      </trkpt>
      <trkpt lat="45.40741" lon="5.5469">
        <ele>488.01</ele>
        <time>2023-01-12T13:55:22Z</time>
      </trkpt>
      <trkpt lat="45.40744" lon="5.54696">
        <ele>488.01</ele>
        <time>2023-01-12T13:55:23Z</time>
      </trkpt>
      <trkpt lat="45.40783" lon="5.54775">
        <ele>484.64</ele>
        <time>2023-01-12T13:55:34Z</time>
      </trkpt>
      <trkpt lat="45.40791" lon="5.54791">
        <ele>483.68</ele>
        <time>2023-01-12T13:55:36Z</time>
      </trkpt>
      <trkpt lat="45.40815" lon="5.5484">
        <ele>481.76</ele>
        <time>2023-01-12T13:55:42Z</time>
      </trkpt>
      <trkpt lat="45.40826" lon="5.54865">
        <ele>480.32</ele>
        <time>2023-01-12T13:55:45Z</time>
      </trkpt>
      <trkpt lat="45.40855" lon="5.54953">
        <ele>476.47</ele>
        <time>2023-01-12T13:55:55Z</time>
      </trkpt>
      <trkpt lat="45.40861" lon="5.5497">
        <ele>475.99</ele>
        <time>2023-01-12T13:55:57Z</time>
      </trkpt>
      <trkpt lat="45.40879" lon="5.55012">
        <ele>474.07</ele>
        <time>2023-01-12T13:56:02Z</time>
      </trkpt>
      <trkpt lat="45.40897" lon="5.55056">
        <ele>472.14</ele>
        <time>2023-01-12T13:56:07Z</time>
      </trkpt>
      <trkpt lat="45.40913" lon="5.55087">
        <ele>472.14</ele>
        <time>2023-01-12T13:56:11Z</time>
      </trkpt>
      <trkpt lat="45.40917" lon="5.55094">
        <ele>471.66</ele>
        <time>2023-01-12T13:56:12Z</time>
      </trkpt>
      <trkpt lat="45.40921" lon="5.55101">
        <ele>471.66</ele>
        <time>2023-01-12T13:56:13Z</time>
      </trkpt>
      <trkpt lat="45.40966" lon="5.55188">
        <ele>472.14</ele>
        <time>2023-01-12T13:56:27Z</time>
      </trkpt>
      <trkpt lat="45.40975" lon="5.5521">
        <ele>473.11</ele>
        <time>2023-01-12T13:56:31Z</time>
      </trkpt>
      <trkpt lat="45.40975" lon="5.55216">
        <ele>473.11</ele>
        <time>2023-01-12T13:56:32Z</time>
      </trkpt>
      <trkpt lat="45.40974" lon="5.55222">
        <ele>473.59</ele>
        <time>2023-01-12T13:56:33Z</time>
      </trkpt>
      <trkpt lat="45.40972" lon="5.55227">
        <ele>474.07</ele>
        <time>2023-01-12T13:56:34Z</time>
      </trkpt>
      <trkpt lat="45.40971" lon="5.5523">
        <ele>473.59</ele>
        <time>2023-01-12T13:56:35Z</time>
      </trkpt>
      <trkpt lat="45.40931" lon="5.55289">
        <ele>475.03</ele>
        <time>2023-01-12T13:56:47Z</time>
      </trkpt>
      <trkpt lat="45.40912" lon="5.55318">
        <ele>474.55</ele>
        <time>2023-01-12T13:56:53Z</time>
      </trkpt>
      <trkpt lat="45.40884" lon="5.55349">
        <ele>475.03</ele>
        <time>2023-01-12T13:57:01Z</time>
      </trkpt>
      <trkpt lat="45.40871" lon="5.55364">
        <ele>475.51</ele>
        <time>2023-01-12T13:57:05Z</time>
      </trkpt>
      <trkpt lat="45.40868" lon="5.55368">
        <ele>475.51</ele>
        <time>2023-01-12T13:57:06Z</time>
      </trkpt>
      <trkpt lat="45.40865" lon="5.55373">
        <ele>475.51</ele>
        <time>2023-01-12T13:57:07Z</time>
      </trkpt>
      <trkpt lat="45.40847" lon="5.55401">
        <ele>475.51</ele>
        <time>2023-01-12T13:57:13Z</time>
      </trkpt>
      <trkpt lat="45.40808" lon="5.55462">
        <ele>475.99</ele>
        <time>2023-01-12T13:57:26Z</time>
      </trkpt>
      <trkpt lat="45.40805" lon="5.55466">
        <ele>474.55</ele>
        <time>2023-01-12T13:57:27Z</time>
      </trkpt>
      <trkpt lat="45.40802" lon="5.55471">
        <ele>475.51</ele>
        <time>2023-01-12T13:57:28Z</time>
      </trkpt>
      <trkpt lat="45.408" lon="5.55476">
        <ele>475.51</ele>
        <time>2023-01-12T13:57:29Z</time>
      </trkpt>
      <trkpt lat="45.40796" lon="5.55495">
        <ele>477.43</ele>
        <time>2023-01-12T13:57:36Z</time>
      </trkpt>
      <trkpt lat="45.40797" lon="5.55496">
        <ele>477.43</ele>
        <time>2023-01-12T13:57:37Z</time>
      </trkpt>
      <trkpt lat="45.40798" lon="5.55499">
        <ele>477.43</ele>
        <time>2023-01-12T13:57:38Z</time>
      </trkpt>
      <trkpt lat="45.40799" lon="5.55502">
        <ele>477.91</ele>
        <time>2023-01-12T13:57:39Z</time>
      </trkpt>
      <trkpt lat="45.408" lon="5.55505">
        <ele>478.39</ele>
        <time>2023-01-12T13:57:40Z</time>
      </trkpt>
      <trkpt lat="45.40802" lon="5.55508">
        <ele>478.39</ele>
        <time>2023-01-12T13:57:41Z</time>
      </trkpt>
      <trkpt lat="45.40805" lon="5.5551">
        <ele>477.91</ele>
        <time>2023-01-12T13:57:42Z</time>
      </trkpt>
      <trkpt lat="45.40808" lon="5.55513">
        <ele>477.91</ele>
        <time>2023-01-12T13:57:43Z</time>
      </trkpt>
      <trkpt lat="45.40812" lon="5.55515">
        <ele>477.91</ele>
        <time>2023-01-12T13:57:44Z</time>
      </trkpt>
      <trkpt lat="45.40816" lon="5.55518">
        <ele>478.39</ele>
        <time>2023-01-12T13:57:45Z</time>
      </trkpt>
      <trkpt lat="45.40838" lon="5.55539">
        <ele>477.91</ele>
        <time>2023-01-12T13:57:51Z</time>
      </trkpt>
      <trkpt lat="45.4084" lon="5.55544">
        <ele>478.39</ele>
        <time>2023-01-12T13:57:52Z</time>
      </trkpt>
      <trkpt lat="45.40842" lon="5.55549">
        <ele>478.39</ele>
        <time>2023-01-12T13:57:53Z</time>
      </trkpt>
      <trkpt lat="45.40845" lon="5.55552">
        <ele>479.35</ele>
        <time>2023-01-12T13:57:54Z</time>
      </trkpt>
      <trkpt lat="45.40848" lon="5.55555">
        <ele>478.87</ele>
        <time>2023-01-12T13:57:55Z</time>
      </trkpt>
      <trkpt lat="45.40852" lon="5.55557">
        <ele>479.35</ele>
        <time>2023-01-12T13:57:56Z</time>
      </trkpt>
      <trkpt lat="45.40917" lon="5.55586">
        <ele>478.87</ele>
        <time>2023-01-12T13:58:12Z</time>
      </trkpt>
      <trkpt lat="45.40965" lon="5.55634">
        <ele>478.87</ele>
        <time>2023-01-12T13:58:26Z</time>
      </trkpt>
      <trkpt lat="45.40972" lon="5.55642">
        <ele>478.87</ele>
        <time>2023-01-12T13:58:28Z</time>
      </trkpt>
      <trkpt lat="45.4098" lon="5.55658">
        <ele>478.87</ele>
        <time>2023-01-12T13:58:31Z</time>
      </trkpt>
      <trkpt lat="45.40981" lon="5.55664">
        <ele>478.87</ele>
        <time>2023-01-12T13:58:32Z</time>
      </trkpt>
      <trkpt lat="45.40993" lon="5.55726">
        <ele>482.24</ele>
        <time>2023-01-12T13:58:47Z</time>
      </trkpt>
      <trkpt lat="45.40989" lon="5.55754">
        <ele>485.12</ele>
        <time>2023-01-12T13:58:59Z</time>
      </trkpt>
      <trkpt lat="45.40977" lon="5.55783">
        <ele>488.49</ele>
        <time>2023-01-12T13:59:12Z</time>
      </trkpt>
      <trkpt lat="45.40976" lon="5.55825">
        <ele>489.93</ele>
        <time>2023-01-12T13:59:24Z</time>
      </trkpt>
      <trkpt lat="45.40995" lon="5.55858">
        <ele>488.49</ele>
        <time>2023-01-12T13:59:34Z</time>
      </trkpt>
      <trkpt lat="45.41011" lon="5.55867">
        <ele>488.97</ele>
        <time>2023-01-12T13:59:39Z</time>
      </trkpt>
      <trkpt lat="45.41012" lon="5.55871">
        <ele>488.97</ele>
        <time>2023-01-12T13:59:40Z</time>
      </trkpt>
      <trkpt lat="45.41012" lon="5.55876">
        <ele>488.49</ele>
        <time>2023-01-12T13:59:41Z</time>
      </trkpt>
      <trkpt lat="45.41011" lon="5.55881">
        <ele>488.49</ele>
        <time>2023-01-12T13:59:42Z</time>
      </trkpt>
      <trkpt lat="45.40989" lon="5.55939">
        <ele>485.12</ele>
        <time>2023-01-12T13:59:52Z</time>
      </trkpt>
      <trkpt lat="45.40988" lon="5.55945">
        <ele>485.12</ele>
        <time>2023-01-12T13:59:53Z</time>
      </trkpt>
      <trkpt lat="45.40985" lon="5.55957">
        <ele>484.16</ele>
        <time>2023-01-12T13:59:55Z</time>
      </trkpt>
      <trkpt lat="45.40983" lon="5.55962">
        <ele>483.68</ele>
        <time>2023-01-12T13:59:56Z</time>
      </trkpt>
      <trkpt lat="45.40981" lon="5.55967">
        <ele>483.68</ele>
        <time>2023-01-12T13:59:57Z</time>
      </trkpt>
      <trkpt lat="45.40978" lon="5.55972">
        <ele>483.2</ele>
        <time>2023-01-12T13:59:58Z</time>
      </trkpt>
      <trkpt lat="45.40962" lon="5.56037">
        <ele>482.24</ele>
        <time>2023-01-12T14:00:11Z</time>
      </trkpt>
      <trkpt lat="45.40961" lon="5.56048">
        <ele>483.2</ele>
        <time>2023-01-12T14:00:22Z</time>
      </trkpt>
      <trkpt lat="45.40958" lon="5.56049">
        <ele>483.2</ele>
        <time>2023-01-12T14:00:28Z</time>
      </trkpt>
      <trkpt lat="45.40957" lon="5.56049">
        <ele>483.68</ele>
        <time>2023-01-12T14:00:29Z</time>
      </trkpt>
      <trkpt lat="45.40954" lon="5.56056">
        <ele>483.2</ele>
        <time>2023-01-12T14:00:37Z</time>
      </trkpt>
      <trkpt lat="45.40955" lon="5.56059">
        <ele>482.72</ele>
        <time>2023-01-12T14:00:38Z</time>
      </trkpt>
      <trkpt lat="45.40956" lon="5.56062">
        <ele>483.68</ele>
        <time>2023-01-12T14:00:39Z</time>
      </trkpt>
      <trkpt lat="45.40958" lon="5.56113">
        <ele>483.68</ele>
        <time>2023-01-12T14:00:51Z</time>
      </trkpt>
      <trkpt lat="45.40958" lon="5.56116">
        <ele>484.16</ele>
        <time>2023-01-12T14:00:52Z</time>
      </trkpt>
      <trkpt lat="45.40958" lon="5.5612">
        <ele>484.16</ele>
        <time>2023-01-12T14:00:53Z</time>
      </trkpt>
      <trkpt lat="45.40959" lon="5.56123">
        <ele>484.64</ele>
        <time>2023-01-12T14:00:54Z</time>
      </trkpt>
      <trkpt lat="45.40966" lon="5.56146">
        <ele>487.53</ele>
        <time>2023-01-12T14:01:04Z</time>
      </trkpt>
      <trkpt lat="45.40976" lon="5.5617">
        <ele>490.89</ele>
        <time>2023-01-12T14:01:17Z</time>
      </trkpt>
      <trkpt lat="45.40987" lon="5.56189">
        <ele>492.81</ele>
        <time>2023-01-12T14:01:28Z</time>
      </trkpt>
      <trkpt lat="45.40987" lon="5.5619">
        <ele>493.29</ele>
        <time>2023-01-12T14:01:29Z</time>
      </trkpt>
      <trkpt lat="45.40986" lon="5.56192">
        <ele>493.77</ele>
        <time>2023-01-12T14:01:30Z</time>
      </trkpt>
      <trkpt lat="45.40977" lon="5.56188">
        <ele>493.29</ele>
        <time>2023-01-12T14:01:38Z</time>
      </trkpt>
      <trkpt lat="45.40975" lon="5.56186">
        <ele>494.26</ele>
        <time>2023-01-12T14:01:39Z</time>
      </trkpt>
      <trkpt lat="45.40964" lon="5.56171">
        <ele>493.77</ele>
        <time>2023-01-12T14:01:44Z</time>
      </trkpt>
      <trkpt lat="45.4094" lon="5.56183">
        <ele>492.81</ele>
        <time>2023-01-12T14:01:52Z</time>
      </trkpt>
      <trkpt lat="45.40907" lon="5.56219">
        <ele>493.77</ele>
        <time>2023-01-12T14:02:05Z</time>
      </trkpt>
      <trkpt lat="45.40891" lon="5.56222">
        <ele>493.77</ele>
        <time>2023-01-12T14:02:10Z</time>
      </trkpt>
      <trkpt lat="45.40874" lon="5.56245">
        <ele>493.77</ele>
        <time>2023-01-12T14:02:17Z</time>
      </trkpt>
      <trkpt lat="45.40844" lon="5.56298">
        <ele>494.26</ele>
        <time>2023-01-12T14:02:30Z</time>
      </trkpt>
      <trkpt lat="45.40812" lon="5.56352">
        <ele>494.74</ele>
        <time>2023-01-12T14:02:43Z</time>
      </trkpt>
      <trkpt lat="45.408" lon="5.56369">
        <ele>494.26</ele>
        <time>2023-01-12T14:02:47Z</time>
      </trkpt>
      <trkpt lat="45.40759" lon="5.56436">
        <ele>495.22</ele>
        <time>2023-01-12T14:03:02Z</time>
      </trkpt>
      <trkpt lat="45.40756" lon="5.56441">
        <ele>495.22</ele>
        <time>2023-01-12T14:03:03Z</time>
      </trkpt>
      <trkpt lat="45.40753" lon="5.56445">
        <ele>495.22</ele>
        <time>2023-01-12T14:03:04Z</time>
      </trkpt>
      <trkpt lat="45.4075" lon="5.56449">
        <ele>495.22</ele>
        <time>2023-01-12T14:03:05Z</time>
      </trkpt>
      <trkpt lat="45.40747" lon="5.56451">
        <ele>494.74</ele>
        <time>2023-01-12T14:03:06Z</time>
      </trkpt>
      <trkpt lat="45.40743" lon="5.56453">
        <ele>495.22</ele>
        <time>2023-01-12T14:03:07Z</time>
      </trkpt>
      <trkpt lat="45.40737" lon="5.56459">
        <ele>495.22</ele>
        <time>2023-01-12T14:03:09Z</time>
      </trkpt>
      <trkpt lat="45.40734" lon="5.56464">
        <ele>494.74</ele>
        <time>2023-01-12T14:03:10Z</time>
      </trkpt>
      <trkpt lat="45.40732" lon="5.56468">
        <ele>495.7</ele>
        <time>2023-01-12T14:03:11Z</time>
      </trkpt>
      <trkpt lat="45.40699" lon="5.56565">
        <ele>496.66</ele>
        <time>2023-01-12T14:03:29Z</time>
      </trkpt>
      <trkpt lat="45.40693" lon="5.5666">
        <ele>499.06</ele>
        <time>2023-01-12T14:03:47Z</time>
      </trkpt>
      <trkpt lat="45.40689" lon="5.56722">
        <ele>502.43</ele>
        <time>2023-01-12T14:04:01Z</time>
      </trkpt>
      <trkpt lat="45.40668" lon="5.56773">
        <ele>505.79</ele>
        <time>2023-01-12T14:04:15Z</time>
      </trkpt>
      <trkpt lat="45.40644" lon="5.5683">
        <ele>508.67</ele>
        <time>2023-01-12T14:04:30Z</time>
      </trkpt>
      <trkpt lat="45.40623" lon="5.56874">
        <ele>512.04</ele>
        <time>2023-01-12T14:04:43Z</time>
      </trkpt>
      <trkpt lat="45.40584" lon="5.56926">
        <ele>514.92</ele>
        <time>2023-01-12T14:05:01Z</time>
      </trkpt>
      <trkpt lat="45.40543" lon="5.56971">
        <ele>517.33</ele>
        <time>2023-01-12T14:05:16Z</time>
      </trkpt>
      <trkpt lat="45.40529" lon="5.56986">
        <ele>518.29</ele>
        <time>2023-01-12T14:05:21Z</time>
      </trkpt>
      <trkpt lat="45.40492" lon="5.57024">
        <ele>517.81</ele>
        <time>2023-01-12T14:05:33Z</time>
      </trkpt>
      <trkpt lat="45.40456" lon="5.57058">
        <ele>514.92</ele>
        <time>2023-01-12T14:05:40Z</time>
      </trkpt>
      <trkpt lat="45.40421" lon="5.57086">
        <ele>512.04</ele>
        <time>2023-01-12T14:05:46Z</time>
      </trkpt>
      <trkpt lat="45.40409" lon="5.57096">
        <ele>510.6</ele>
        <time>2023-01-12T14:05:48Z</time>
      </trkpt>
      <trkpt lat="45.40371" lon="5.57138">
        <ele>507.71</ele>
        <time>2023-01-12T14:05:55Z</time>
      </trkpt>
      <trkpt lat="45.40362" lon="5.57151">
        <ele>506.75</ele>
        <time>2023-01-12T14:05:57Z</time>
      </trkpt>
      <trkpt lat="45.40298" lon="5.57241">
        <ele>504.83</ele>
        <time>2023-01-12T14:06:12Z</time>
      </trkpt>
      <trkpt lat="45.4027" lon="5.57321">
        <ele>505.31</ele>
        <time>2023-01-12T14:06:25Z</time>
      </trkpt>
      <trkpt lat="45.40268" lon="5.57327">
        <ele>504.83</ele>
        <time>2023-01-12T14:06:26Z</time>
      </trkpt>
      <trkpt lat="45.40226" lon="5.57435">
        <ele>505.31</ele>
        <time>2023-01-12T14:06:44Z</time>
      </trkpt>
      <trkpt lat="45.40217" lon="5.57458">
        <ele>505.31</ele>
        <time>2023-01-12T14:06:48Z</time>
      </trkpt>
      <trkpt lat="45.40215" lon="5.57465">
        <ele>505.31</ele>
        <time>2023-01-12T14:06:49Z</time>
      </trkpt>
      <trkpt lat="45.40212" lon="5.5747">
        <ele>505.31</ele>
        <time>2023-01-12T14:06:50Z</time>
      </trkpt>
      <trkpt lat="45.4021" lon="5.57476">
        <ele>505.31</ele>
        <time>2023-01-12T14:06:51Z</time>
      </trkpt>
      <trkpt lat="45.40207" lon="5.57481">
        <ele>505.31</ele>
        <time>2023-01-12T14:06:52Z</time>
      </trkpt>
      <trkpt lat="45.40166" lon="5.57578">
        <ele>502.91</ele>
        <time>2023-01-12T14:07:07Z</time>
      </trkpt>
      <trkpt lat="45.40151" lon="5.57619">
        <ele>502.43</ele>
        <time>2023-01-12T14:07:15Z</time>
      </trkpt>
      <trkpt lat="45.40147" lon="5.57638">
        <ele>501.95</ele>
        <time>2023-01-12T14:07:18Z</time>
      </trkpt>
      <trkpt lat="45.40146" lon="5.57644">
        <ele>502.43</ele>
        <time>2023-01-12T14:07:19Z</time>
      </trkpt>
      <trkpt lat="45.40135" lon="5.57713">
        <ele>503.87</ele>
        <time>2023-01-12T14:07:32Z</time>
      </trkpt>
      <trkpt lat="45.40133" lon="5.57717">
        <ele>503.39</ele>
        <time>2023-01-12T14:07:33Z</time>
      </trkpt>
      <trkpt lat="45.40127" lon="5.57732">
        <ele>503.87</ele>
        <time>2023-01-12T14:07:36Z</time>
      </trkpt>
      <trkpt lat="45.40125" lon="5.57737">
        <ele>503.39</ele>
        <time>2023-01-12T14:07:37Z</time>
      </trkpt>
      <trkpt lat="45.40091" lon="5.57822">
        <ele>503.39</ele>
        <time>2023-01-12T14:07:53Z</time>
      </trkpt>
      <trkpt lat="45.40048" lon="5.57908">
        <ele>503.39</ele>
        <time>2023-01-12T14:08:09Z</time>
      </trkpt>
      <trkpt lat="45.40044" lon="5.57919">
        <ele>502.91</ele>
        <time>2023-01-12T14:08:11Z</time>
      </trkpt>
      <trkpt lat="45.40027" lon="5.57971">
        <ele>504.35</ele>
        <time>2023-01-12T14:08:22Z</time>
      </trkpt>
      <trkpt lat="45.40024" lon="5.57981">
        <ele>504.35</ele>
        <time>2023-01-12T14:08:24Z</time>
      </trkpt>
      <trkpt lat="45.39998" lon="5.58078">
        <ele>504.83</ele>
        <time>2023-01-12T14:08:41Z</time>
      </trkpt>
      <trkpt lat="45.39972" lon="5.58106">
        <ele>505.79</ele>
        <time>2023-01-12T14:08:51Z</time>
      </trkpt>
      <trkpt lat="45.39929" lon="5.58116">
        <ele>503.87</ele>
        <time>2023-01-12T14:09:01Z</time>
      </trkpt>
      <trkpt lat="45.39925" lon="5.58116">
        <ele>503.39</ele>
        <time>2023-01-12T14:09:02Z</time>
      </trkpt>
      <trkpt lat="45.3992" lon="5.58116">
        <ele>503.87</ele>
        <time>2023-01-12T14:09:03Z</time>
      </trkpt>
      <trkpt lat="45.39863" lon="5.58092">
        <ele>505.31</ele>
        <time>2023-01-12T14:09:17Z</time>
      </trkpt>
      <trkpt lat="45.39852" lon="5.58085">
        <ele>505.79</ele>
        <time>2023-01-12T14:09:20Z</time>
      </trkpt>
      <trkpt lat="45.39807" lon="5.58064">
        <ele>506.75</ele>
        <time>2023-01-12T14:09:32Z</time>
      </trkpt>
      <trkpt lat="45.39756" lon="5.58066">
        <ele>509.16</ele>
        <time>2023-01-12T14:09:49Z</time>
      </trkpt>
      <trkpt lat="45.39708" lon="5.58052">
        <ele>512.04</ele>
        <time>2023-01-12T14:10:06Z</time>
      </trkpt>
      <trkpt lat="45.3967" lon="5.58022">
        <ele>514.44</ele>
        <time>2023-01-12T14:10:21Z</time>
      </trkpt>
      <trkpt lat="45.39634" lon="5.58005">
        <ele>517.33</ele>
        <time>2023-01-12T14:10:35Z</time>
      </trkpt>
      <trkpt lat="45.39591" lon="5.58008">
        <ele>519.25</ele>
        <time>2023-01-12T14:10:52Z</time>
      </trkpt>
      <trkpt lat="45.39558" lon="5.58029">
        <ele>521.65</ele>
        <time>2023-01-12T14:11:06Z</time>
      </trkpt>
      <trkpt lat="45.39527" lon="5.58066">
        <ele>524.54</ele>
        <time>2023-01-12T14:11:24Z</time>
      </trkpt>
      <trkpt lat="45.39525" lon="5.58094">
        <ele>527.9</ele>
        <time>2023-01-12T14:11:35Z</time>
      </trkpt>
      <trkpt lat="45.39517" lon="5.58108">
        <ele>529.82</ele>
        <time>2023-01-12T14:11:44Z</time>
      </trkpt>
      <trkpt lat="45.39516" lon="5.5811">
        <ele>530.79</ele>
        <time>2023-01-12T14:11:45Z</time>
      </trkpt>
      <trkpt lat="45.39515" lon="5.58112">
        <ele>530.79</ele>
        <time>2023-01-12T14:11:46Z</time>
      </trkpt>
      <trkpt lat="45.39515" lon="5.58114">
        <ele>530.79</ele>
        <time>2023-01-12T14:11:47Z</time>
      </trkpt>
      <trkpt lat="45.39514" lon="5.58117">
        <ele>530.79</ele>
        <time>2023-01-12T14:11:48Z</time>
      </trkpt>
      <trkpt lat="45.39514" lon="5.5812">
        <ele>530.79</ele>
        <time>2023-01-12T14:11:49Z</time>
      </trkpt>
      <trkpt lat="45.39513" lon="5.5818">
        <ele>532.71</ele>
        <time>2023-01-12T14:12:06Z</time>
      </trkpt>
      <trkpt lat="45.39508" lon="5.58236">
        <ele>535.59</ele>
        <time>2023-01-12T14:12:23Z</time>
      </trkpt>
      <trkpt lat="45.39491" lon="5.58286">
        <ele>538.48</ele>
        <time>2023-01-12T14:12:39Z</time>
      </trkpt>
      <trkpt lat="45.39459" lon="5.58332">
        <ele>540.4</ele>
        <time>2023-01-12T14:12:56Z</time>
      </trkpt>
      <trkpt lat="45.39432" lon="5.58371">
        <ele>542.32</ele>
        <time>2023-01-12T14:13:11Z</time>
      </trkpt>
      <trkpt lat="45.39431" lon="5.58371">
        <ele>542.8</ele>
        <time>2023-01-12T14:13:12Z</time>
      </trkpt>
      <trkpt lat="45.39418" lon="5.58386">
        <ele>544.24</ele>
        <time>2023-01-12T14:13:26Z</time>
      </trkpt>
      <trkpt lat="45.39409" lon="5.58403">
        <ele>546.17</ele>
        <time>2023-01-12T14:13:35Z</time>
      </trkpt>
      <trkpt lat="45.39408" lon="5.58405">
        <ele>546.65</ele>
        <time>2023-01-12T14:13:36Z</time>
      </trkpt>
      <trkpt lat="45.39407" lon="5.58407">
        <ele>546.65</ele>
        <time>2023-01-12T14:13:37Z</time>
      </trkpt>
      <trkpt lat="45.39407" lon="5.5841">
        <ele>546.65</ele>
        <time>2023-01-12T14:13:38Z</time>
      </trkpt>
      <trkpt lat="45.39406" lon="5.58417">
        <ele>548.09</ele>
        <time>2023-01-12T14:13:41Z</time>
      </trkpt>
      <trkpt lat="45.39389" lon="5.58447">
        <ele>549.53</ele>
        <time>2023-01-12T14:13:52Z</time>
      </trkpt>
      <trkpt lat="45.39371" lon="5.5849">
        <ele>550.01</ele>
        <time>2023-01-12T14:14:03Z</time>
      </trkpt>
      <trkpt lat="45.39363" lon="5.58515">
        <ele>552.9</ele>
        <time>2023-01-12T14:14:11Z</time>
      </trkpt>
      <trkpt lat="45.39348" lon="5.58541">
        <ele>553.86</ele>
        <time>2023-01-12T14:14:21Z</time>
      </trkpt>
      <trkpt lat="45.39346" lon="5.58543">
        <ele>554.34</ele>
        <time>2023-01-12T14:14:22Z</time>
      </trkpt>
      <trkpt lat="45.3933" lon="5.58565">
        <ele>556.26</ele>
        <time>2023-01-12T14:14:33Z</time>
      </trkpt>
      <trkpt lat="45.39326" lon="5.58569">
        <ele>556.26</ele>
        <time>2023-01-12T14:14:35Z</time>
      </trkpt>
      <trkpt lat="45.39318" lon="5.58579">
        <ele>558.18</ele>
        <time>2023-01-12T14:14:39Z</time>
      </trkpt>
      <trkpt lat="45.39317" lon="5.58581">
        <ele>557.7</ele>
        <time>2023-01-12T14:14:40Z</time>
      </trkpt>
      <trkpt lat="45.39293" lon="5.58634">
        <ele>556.26</ele>
        <time>2023-01-12T14:14:52Z</time>
      </trkpt>
      <trkpt lat="45.39285" lon="5.58655">
        <ele>554.82</ele>
        <time>2023-01-12T14:14:55Z</time>
      </trkpt>
      <trkpt lat="45.39281" lon="5.58661">
        <ele>553.86</ele>
        <time>2023-01-12T14:14:56Z</time>
      </trkpt>
      <trkpt lat="45.39277" lon="5.58667">
        <ele>553.86</ele>
        <time>2023-01-12T14:14:57Z</time>
      </trkpt>
      <trkpt lat="45.39273" lon="5.58671">
        <ele>552.41</ele>
        <time>2023-01-12T14:14:58Z</time>
      </trkpt>
      <trkpt lat="45.39268" lon="5.58672">
        <ele>553.38</ele>
        <time>2023-01-12T14:14:59Z</time>
      </trkpt>
      <trkpt lat="45.39263" lon="5.58674">
        <ele>553.38</ele>
        <time>2023-01-12T14:15:00Z</time>
      </trkpt>
      <trkpt lat="45.3926" lon="5.58676">
        <ele>552.41</ele>
        <time>2023-01-12T14:15:01Z</time>
      </trkpt>
      <trkpt lat="45.39257" lon="5.58679">
        <ele>552.41</ele>
        <time>2023-01-12T14:15:02Z</time>
      </trkpt>
      <trkpt lat="45.39255" lon="5.58682">
        <ele>552.41</ele>
        <time>2023-01-12T14:15:03Z</time>
      </trkpt>
      <trkpt lat="45.39253" lon="5.58684">
        <ele>552.9</ele>
        <time>2023-01-12T14:15:04Z</time>
      </trkpt>
      <trkpt lat="45.3925" lon="5.58686">
        <ele>552.9</ele>
        <time>2023-01-12T14:15:05Z</time>
      </trkpt>
      <trkpt lat="45.39246" lon="5.58687">
        <ele>552.41</ele>
        <time>2023-01-12T14:15:06Z</time>
      </trkpt>
      <trkpt lat="45.39242" lon="5.58688">
        <ele>552.41</ele>
        <time>2023-01-12T14:15:07Z</time>
      </trkpt>
      <trkpt lat="45.39238" lon="5.58689">
        <ele>552.41</ele>
        <time>2023-01-12T14:15:08Z</time>
      </trkpt>
      <trkpt lat="45.39233" lon="5.5869">
        <ele>551.93</ele>
        <time>2023-01-12T14:15:09Z</time>
      </trkpt>
      <trkpt lat="45.39217" lon="5.58691">
        <ele>552.41</ele>
        <time>2023-01-12T14:15:13Z</time>
      </trkpt>
      <trkpt lat="45.39203" lon="5.58705">
        <ele>550.49</ele>
        <time>2023-01-12T14:15:18Z</time>
      </trkpt>
      <trkpt lat="45.39173" lon="5.58726">
        <ele>550.97</ele>
        <time>2023-01-12T14:15:28Z</time>
      </trkpt>
      <trkpt lat="45.39151" lon="5.58741">
        <ele>551.45</ele>
        <time>2023-01-12T14:15:35Z</time>
      </trkpt>
      <trkpt lat="45.3914" lon="5.58749">
        <ele>551.93</ele>
        <time>2023-01-12T14:15:39Z</time>
      </trkpt>
      <trkpt lat="45.39132" lon="5.58767">
        <ele>548.57</ele>
        <time>2023-01-12T14:15:45Z</time>
      </trkpt>
      <trkpt lat="45.39135" lon="5.58773">
        <ele>545.69</ele>
        <time>2023-01-12T14:15:48Z</time>
      </trkpt>
      <trkpt lat="45.39137" lon="5.58777">
        <ele>544.24</ele>
        <time>2023-01-12T14:15:49Z</time>
      </trkpt>
      <trkpt lat="45.3914" lon="5.58786">
        <ele>542.8</ele>
        <time>2023-01-12T14:15:51Z</time>
      </trkpt>
      <trkpt lat="45.39141" lon="5.58795">
        <ele>539.92</ele>
        <time>2023-01-12T14:15:53Z</time>
      </trkpt>
      <trkpt lat="45.39139" lon="5.58804">
        <ele>537.51</ele>
        <time>2023-01-12T14:15:56Z</time>
      </trkpt>
      <trkpt lat="45.39133" lon="5.58808">
        <ele>537.03</ele>
        <time>2023-01-12T14:16:02Z</time>
      </trkpt>
      <trkpt lat="45.39115" lon="5.58825">
        <ele>539.44</ele>
        <time>2023-01-12T14:16:15Z</time>
      </trkpt>
      <trkpt lat="45.39116" lon="5.58837">
        <ele>538.96</ele>
        <time>2023-01-12T14:16:25Z</time>
      </trkpt>
      <trkpt lat="45.39132" lon="5.58856">
        <ele>537.99</ele>
        <time>2023-01-12T14:16:36Z</time>
      </trkpt>
      <trkpt lat="45.39146" lon="5.58874">
        <ele>537.03</ele>
        <time>2023-01-12T14:16:46Z</time>
      </trkpt>
      <trkpt lat="45.39147" lon="5.58876">
        <ele>537.03</ele>
        <time>2023-01-12T14:16:47Z</time>
      </trkpt>
      <trkpt lat="45.39148" lon="5.58877">
        <ele>537.51</ele>
        <time>2023-01-12T14:16:48Z</time>
      </trkpt>
      <trkpt lat="45.39155" lon="5.58887">
        <ele>537.99</ele>
        <time>2023-01-12T14:16:54Z</time>
      </trkpt>
      <trkpt lat="45.39156" lon="5.58889">
        <ele>537.99</ele>
        <time>2023-01-12T14:16:55Z</time>
      </trkpt>
      <trkpt lat="45.39157" lon="5.58891">
        <ele>537.99</ele>
        <time>2023-01-12T14:16:56Z</time>
      </trkpt>
      <trkpt lat="45.39159" lon="5.58893">
        <ele>537.99</ele>
        <time>2023-01-12T14:16:57Z</time>
      </trkpt>
      <trkpt lat="45.39161" lon="5.58895">
        <ele>537.99</ele>
        <time>2023-01-12T14:16:58Z</time>
      </trkpt>
      <trkpt lat="45.39178" lon="5.58908">
        <ele>540.4</ele>
        <time>2023-01-12T14:17:08Z</time>
      </trkpt>
      <trkpt lat="45.39205" lon="5.58919">
        <ele>542.8</ele>
        <time>2023-01-12T14:17:21Z</time>
      </trkpt>
      <trkpt lat="45.39223" lon="5.58924">
        <ele>545.69</ele>
        <time>2023-01-12T14:17:31Z</time>
      </trkpt>
      <trkpt lat="45.39244" lon="5.58932">
        <ele>547.61</ele>
        <time>2023-01-12T14:17:45Z</time>
      </trkpt>
      <trkpt lat="45.39258" lon="5.58936">
        <ele>548.57</ele>
        <time>2023-01-12T14:17:52Z</time>
      </trkpt>
      <trkpt lat="45.39259" lon="5.58936">
        <ele>549.05</ele>
        <time>2023-01-12T14:17:53Z</time>
      </trkpt>
      <trkpt lat="45.3926" lon="5.58934">
        <ele>549.05</ele>
        <time>2023-01-12T14:18:02Z</time>
      </trkpt>
      <trkpt lat="45.39258" lon="5.58934">
        <ele>548.09</ele>
        <time>2023-01-12T14:18:34Z</time>
      </trkpt>
      <trkpt lat="45.39259" lon="5.58937">
        <ele>548.09</ele>
        <time>2023-01-12T14:19:07Z</time>
      </trkpt>
      <trkpt lat="45.39259" lon="5.5894">
        <ele>548.09</ele>
        <time>2023-01-12T14:19:47Z</time>
      </trkpt>
      <trkpt lat="45.39257" lon="5.58935">
        <ele>549.05</ele>
        <time>2023-01-12T14:20:33Z</time>
      </trkpt>
      <trkpt lat="45.39259" lon="5.58936">
        <ele>548.57</ele>
        <time>2023-01-12T14:21:15Z</time>
      </trkpt>
      <trkpt lat="45.39258" lon="5.58933">
        <ele>548.57</ele>
        <time>2023-01-12T14:21:47Z</time>
      </trkpt>
      <trkpt lat="45.39257" lon="5.58936">
        <ele>548.57</ele>
        <time>2023-01-12T14:22:14Z</time>
      </trkpt>
      <trkpt lat="45.39262" lon="5.58933">
        <ele>549.05</ele>
        <time>2023-01-12T14:22:47Z</time>
      </trkpt>
      <trkpt lat="45.39262" lon="5.58938">
        <ele>548.57</ele>
        <time>2023-01-12T14:23:18Z</time>
      </trkpt>
      <trkpt lat="45.39267" lon="5.58937">
        <ele>549.05</ele>
        <time>2023-01-12T14:23:44Z</time>
      </trkpt>
      <trkpt lat="45.39271" lon="5.58934">
        <ele>549.05</ele>
        <time>2023-01-12T14:23:49Z</time>
      </trkpt>
      <trkpt lat="45.3928" lon="5.5893">
        <ele>550.01</ele>
        <time>2023-01-12T14:23:59Z</time>
      </trkpt>
      <trkpt lat="45.39283" lon="5.58927">
        <ele>550.97</ele>
        <time>2023-01-12T14:24:02Z</time>
      </trkpt>
      <trkpt lat="45.39284" lon="5.58925">
        <ele>551.45</ele>
        <time>2023-01-12T14:24:03Z</time>
      </trkpt>
      <trkpt lat="45.39285" lon="5.58923">
        <ele>551.93</ele>
        <time>2023-01-12T14:24:04Z</time>
      </trkpt>
      <trkpt lat="45.39286" lon="5.58922">
        <ele>551.93</ele>
        <time>2023-01-12T14:24:05Z</time>
      </trkpt>
      <trkpt lat="45.39294" lon="5.58913">
        <ele>553.86</ele>
        <time>2023-01-12T14:24:12Z</time>
      </trkpt>
      <trkpt lat="45.393" lon="5.58909">
        <ele>554.34</ele>
        <time>2023-01-12T14:24:16Z</time>
      </trkpt>
      <trkpt lat="45.39308" lon="5.58904">
        <ele>554.82</ele>
        <time>2023-01-12T14:24:20Z</time>
      </trkpt>
      <trkpt lat="45.3931" lon="5.58903">
        <ele>554.34</ele>
        <time>2023-01-12T14:24:21Z</time>
      </trkpt>
      <trkpt lat="45.39312" lon="5.58901">
        <ele>554.82</ele>
        <time>2023-01-12T14:24:22Z</time>
      </trkpt>
      <trkpt lat="45.39314" lon="5.589">
        <ele>554.82</ele>
        <time>2023-01-12T14:24:23Z</time>
      </trkpt>
      <trkpt lat="45.39316" lon="5.58899">
        <ele>554.34</ele>
        <time>2023-01-12T14:24:24Z</time>
      </trkpt>
      <trkpt lat="45.3932" lon="5.58898">
        <ele>554.34</ele>
        <time>2023-01-12T14:24:25Z</time>
      </trkpt>
      <trkpt lat="45.39322" lon="5.58897">
        <ele>554.82</ele>
        <time>2023-01-12T14:24:26Z</time>
      </trkpt>
      <trkpt lat="45.39328" lon="5.58895">
        <ele>554.82</ele>
        <time>2023-01-12T14:24:28Z</time>
      </trkpt>
      <trkpt lat="45.39342" lon="5.58885">
        <ele>553.86</ele>
        <time>2023-01-12T14:24:32Z</time>
      </trkpt>
      <trkpt lat="45.39347" lon="5.58882">
        <ele>553.38</ele>
        <time>2023-01-12T14:24:33Z</time>
      </trkpt>
      <trkpt lat="45.39353" lon="5.5888">
        <ele>552.9</ele>
        <time>2023-01-12T14:24:34Z</time>
      </trkpt>
      <trkpt lat="45.39357" lon="5.58877">
        <ele>552.41</ele>
        <time>2023-01-12T14:24:35Z</time>
      </trkpt>
      <trkpt lat="45.39362" lon="5.58874">
        <ele>551.45</ele>
        <time>2023-01-12T14:24:36Z</time>
      </trkpt>
      <trkpt lat="45.39365" lon="5.5887">
        <ele>551.45</ele>
        <time>2023-01-12T14:24:37Z</time>
      </trkpt>
      <trkpt lat="45.39369" lon="5.58866">
        <ele>551.45</ele>
        <time>2023-01-12T14:24:38Z</time>
      </trkpt>
      <trkpt lat="45.39372" lon="5.58861">
        <ele>550.97</ele>
        <time>2023-01-12T14:24:39Z</time>
      </trkpt>
      <trkpt lat="45.39374" lon="5.58858">
        <ele>550.01</ele>
        <time>2023-01-12T14:24:40Z</time>
      </trkpt>
      <trkpt lat="45.39375" lon="5.58855">
        <ele>549.05</ele>
        <time>2023-01-12T14:24:41Z</time>
      </trkpt>
      <trkpt lat="45.39377" lon="5.58852">
        <ele>548.09</ele>
        <time>2023-01-12T14:24:42Z</time>
      </trkpt>
      <trkpt lat="45.39382" lon="5.58846">
        <ele>545.69</ele>
        <time>2023-01-12T14:24:44Z</time>
      </trkpt>
      <trkpt lat="45.39385" lon="5.58844">
        <ele>544.72</ele>
        <time>2023-01-12T14:24:45Z</time>
      </trkpt>
      <trkpt lat="45.39388" lon="5.58841">
        <ele>544.24</ele>
        <time>2023-01-12T14:24:46Z</time>
      </trkpt>
      <trkpt lat="45.39395" lon="5.58838">
        <ele>542.8</ele>
        <time>2023-01-12T14:24:48Z</time>
      </trkpt>
      <trkpt lat="45.39399" lon="5.58839">
        <ele>541.84</ele>
        <time>2023-01-12T14:24:49Z</time>
      </trkpt>
      <trkpt lat="45.39405" lon="5.58839">
        <ele>540.88</ele>
        <time>2023-01-12T14:24:50Z</time>
      </trkpt>
      <trkpt lat="45.3941" lon="5.58837">
        <ele>540.4</ele>
        <time>2023-01-12T14:24:51Z</time>
      </trkpt>
      <trkpt lat="45.39416" lon="5.58835">
        <ele>539.92</ele>
        <time>2023-01-12T14:24:52Z</time>
      </trkpt>
      <trkpt lat="45.39437" lon="5.58832">
        <ele>539.92</ele>
        <time>2023-01-12T14:24:55Z</time>
      </trkpt>
      <trkpt lat="45.3945" lon="5.58827">
        <ele>537.99</ele>
        <time>2023-01-12T14:24:57Z</time>
      </trkpt>
      <trkpt lat="45.39476" lon="5.58795">
        <ele>533.67</ele>
        <time>2023-01-12T14:25:02Z</time>
      </trkpt>
      <trkpt lat="45.39495" lon="5.5878">
        <ele>531.75</ele>
        <time>2023-01-12T14:25:05Z</time>
      </trkpt>
      <trkpt lat="45.39519" lon="5.58781">
        <ele>528.38</ele>
        <time>2023-01-12T14:25:09Z</time>
      </trkpt>
      <trkpt lat="45.39543" lon="5.58782">
        <ele>525.5</ele>
        <time>2023-01-12T14:25:13Z</time>
      </trkpt>
      <trkpt lat="45.39548" lon="5.58777">
        <ele>525.02</ele>
        <time>2023-01-12T14:25:14Z</time>
      </trkpt>
      <trkpt lat="45.39552" lon="5.5877">
        <ele>525.02</ele>
        <time>2023-01-12T14:25:15Z</time>
      </trkpt>
      <trkpt lat="45.39556" lon="5.58764">
        <ele>525.02</ele>
        <time>2023-01-12T14:25:16Z</time>
      </trkpt>
      <trkpt lat="45.39559" lon="5.58758">
        <ele>525.02</ele>
        <time>2023-01-12T14:25:17Z</time>
      </trkpt>
      <trkpt lat="45.39561" lon="5.58751">
        <ele>525.02</ele>
        <time>2023-01-12T14:25:18Z</time>
      </trkpt>
      <trkpt lat="45.39565" lon="5.58741">
        <ele>524.54</ele>
        <time>2023-01-12T14:25:20Z</time>
      </trkpt>
      <trkpt lat="45.3957" lon="5.58741">
        <ele>524.06</ele>
        <time>2023-01-12T14:25:22Z</time>
      </trkpt>
      <trkpt lat="45.39572" lon="5.58741">
        <ele>524.06</ele>
        <time>2023-01-12T14:25:23Z</time>
      </trkpt>
      <trkpt lat="45.39575" lon="5.58742">
        <ele>524.54</ele>
        <time>2023-01-12T14:25:24Z</time>
      </trkpt>
      <trkpt lat="45.39586" lon="5.58743">
        <ele>522.61</ele>
        <time>2023-01-12T14:25:29Z</time>
      </trkpt>
      <trkpt lat="45.39594" lon="5.58748">
        <ele>520.69</ele>
        <time>2023-01-12T14:25:31Z</time>
      </trkpt>
      <trkpt lat="45.396" lon="5.58756">
        <ele>519.73</ele>
        <time>2023-01-12T14:25:33Z</time>
      </trkpt>
      <trkpt lat="45.39609" lon="5.58762">
        <ele>516.37</ele>
        <time>2023-01-12T14:25:37Z</time>
      </trkpt>
      <trkpt lat="45.39621" lon="5.58765">
        <ele>511.56</ele>
        <time>2023-01-12T14:25:41Z</time>
      </trkpt>
      <trkpt lat="45.39641" lon="5.5878">
        <ele>508.19</ele>
        <time>2023-01-12T14:25:45Z</time>
      </trkpt>
      <trkpt lat="45.39653" lon="5.58777">
        <ele>507.71</ele>
        <time>2023-01-12T14:25:48Z</time>
      </trkpt>
      <trkpt lat="45.39657" lon="5.58774">
        <ele>508.19</ele>
        <time>2023-01-12T14:25:49Z</time>
      </trkpt>
      <trkpt lat="45.3966" lon="5.58771">
        <ele>508.67</ele>
        <time>2023-01-12T14:25:50Z</time>
      </trkpt>
      <trkpt lat="45.39686" lon="5.58757">
        <ele>508.19</ele>
        <time>2023-01-12T14:25:57Z</time>
      </trkpt>
      <trkpt lat="45.39689" lon="5.5876">
        <ele>508.19</ele>
        <time>2023-01-12T14:25:58Z</time>
      </trkpt>
      <trkpt lat="45.39693" lon="5.58764">
        <ele>507.23</ele>
        <time>2023-01-12T14:25:59Z</time>
      </trkpt>
      <trkpt lat="45.39707" lon="5.58784">
        <ele>507.23</ele>
        <time>2023-01-12T14:26:03Z</time>
      </trkpt>
      <trkpt lat="45.39735" lon="5.58819">
        <ele>506.27</ele>
        <time>2023-01-12T14:26:10Z</time>
      </trkpt>
      <trkpt lat="45.39738" lon="5.58823">
        <ele>506.27</ele>
        <time>2023-01-12T14:26:11Z</time>
      </trkpt>
      <trkpt lat="45.39769" lon="5.58853">
        <ele>506.27</ele>
        <time>2023-01-12T14:26:23Z</time>
      </trkpt>
      <trkpt lat="45.39772" lon="5.58854">
        <ele>506.27</ele>
        <time>2023-01-12T14:26:24Z</time>
      </trkpt>
      <trkpt lat="45.39774" lon="5.58852">
        <ele>506.27</ele>
        <time>2023-01-12T14:26:25Z</time>
      </trkpt>
      <trkpt lat="45.39776" lon="5.58849">
        <ele>506.27</ele>
        <time>2023-01-12T14:26:26Z</time>
      </trkpt>
      <trkpt lat="45.39778" lon="5.58848">
        <ele>506.27</ele>
        <time>2023-01-12T14:26:27Z</time>
      </trkpt>
      <trkpt lat="45.3978" lon="5.58848">
        <ele>505.79</ele>
        <time>2023-01-12T14:26:28Z</time>
      </trkpt>
      <trkpt lat="45.39782" lon="5.58848">
        <ele>505.79</ele>
        <time>2023-01-12T14:26:29Z</time>
      </trkpt>
      <trkpt lat="45.39784" lon="5.58848">
        <ele>505.79</ele>
        <time>2023-01-12T14:26:30Z</time>
      </trkpt>
      <trkpt lat="45.39787" lon="5.58848">
        <ele>505.79</ele>
        <time>2023-01-12T14:26:31Z</time>
      </trkpt>
      <trkpt lat="45.3979" lon="5.58847">
        <ele>505.79</ele>
        <time>2023-01-12T14:26:32Z</time>
      </trkpt>
      <trkpt lat="45.39793" lon="5.58848">
        <ele>506.27</ele>
        <time>2023-01-12T14:26:33Z</time>
      </trkpt>
      <trkpt lat="45.39839" lon="5.58867">
        <ele>507.23</ele>
        <time>2023-01-12T14:26:46Z</time>
      </trkpt>
      <trkpt lat="45.39859" lon="5.58889">
        <ele>508.67</ele>
        <time>2023-01-12T14:26:52Z</time>
      </trkpt>
      <trkpt lat="45.39861" lon="5.58894">
        <ele>508.67</ele>
        <time>2023-01-12T14:26:53Z</time>
      </trkpt>
      <trkpt lat="45.39864" lon="5.58898">
        <ele>508.67</ele>
        <time>2023-01-12T14:26:54Z</time>
      </trkpt>
      <trkpt lat="45.39868" lon="5.58902">
        <ele>508.67</ele>
        <time>2023-01-12T14:26:55Z</time>
      </trkpt>
      <trkpt lat="45.39871" lon="5.58906">
        <ele>508.67</ele>
        <time>2023-01-12T14:26:56Z</time>
      </trkpt>
      <trkpt lat="45.39873" lon="5.58911">
        <ele>508.67</ele>
        <time>2023-01-12T14:26:57Z</time>
      </trkpt>
      <trkpt lat="45.39889" lon="5.58938">
        <ele>507.71</ele>
        <time>2023-01-12T14:27:02Z</time>
      </trkpt>
      <trkpt lat="45.39896" lon="5.58952">
        <ele>507.71</ele>
        <time>2023-01-12T14:27:04Z</time>
      </trkpt>
      <trkpt lat="45.399" lon="5.58959">
        <ele>507.23</ele>
        <time>2023-01-12T14:27:05Z</time>
      </trkpt>
      <trkpt lat="45.39939" lon="5.59">
        <ele>504.35</ele>
        <time>2023-01-12T14:27:12Z</time>
      </trkpt>
      <trkpt lat="45.39946" lon="5.59005">
        <ele>503.39</ele>
        <time>2023-01-12T14:27:13Z</time>
      </trkpt>
      <trkpt lat="45.39963" lon="5.59022">
        <ele>502.43</ele>
        <time>2023-01-12T14:27:16Z</time>
      </trkpt>
      <trkpt lat="45.39968" lon="5.5903">
        <ele>502.43</ele>
        <time>2023-01-12T14:27:17Z</time>
      </trkpt>
      <trkpt lat="45.39972" lon="5.59038">
        <ele>502.43</ele>
        <time>2023-01-12T14:27:18Z</time>
      </trkpt>
      <trkpt lat="45.39974" lon="5.59046">
        <ele>502.43</ele>
        <time>2023-01-12T14:27:19Z</time>
      </trkpt>
      <trkpt lat="45.39975" lon="5.59054">
        <ele>502.43</ele>
        <time>2023-01-12T14:27:20Z</time>
      </trkpt>
      <trkpt lat="45.39997" lon="5.59215">
        <ele>503.39</ele>
        <time>2023-01-12T14:27:40Z</time>
      </trkpt>
      <trkpt lat="45.40006" lon="5.59289">
        <ele>502.91</ele>
        <time>2023-01-12T14:27:49Z</time>
      </trkpt>
      <trkpt lat="45.40006" lon="5.59298">
        <ele>503.39</ele>
        <time>2023-01-12T14:27:50Z</time>
      </trkpt>
      <trkpt lat="45.40005" lon="5.59306">
        <ele>503.39</ele>
        <time>2023-01-12T14:27:51Z</time>
      </trkpt>
      <trkpt lat="45.40003" lon="5.59314">
        <ele>503.39</ele>
        <time>2023-01-12T14:27:52Z</time>
      </trkpt>
      <trkpt lat="45.40001" lon="5.59322">
        <ele>503.39</ele>
        <time>2023-01-12T14:27:53Z</time>
      </trkpt>
      <trkpt lat="45.39968" lon="5.59484">
        <ele>502.91</ele>
        <time>2023-01-12T14:28:13Z</time>
      </trkpt>
      <trkpt lat="45.39968" lon="5.59648">
        <ele>502.91</ele>
        <time>2023-01-12T14:28:32Z</time>
      </trkpt>
      <trkpt lat="45.39972" lon="5.59847">
        <ele>500.98</ele>
        <time>2023-01-12T14:28:54Z</time>
      </trkpt>
      <trkpt lat="45.40002" lon="5.59997">
        <ele>500.98</ele>
        <time>2023-01-12T14:29:11Z</time>
      </trkpt>
      <trkpt lat="45.40041" lon="5.60177">
        <ele>500.5</ele>
        <time>2023-01-12T14:29:32Z</time>
      </trkpt>
      <trkpt lat="45.40043" lon="5.60212">
        <ele>500.02</ele>
        <time>2023-01-12T14:29:36Z</time>
      </trkpt>
      <trkpt lat="45.4004" lon="5.6022">
        <ele>500.02</ele>
        <time>2023-01-12T14:29:37Z</time>
      </trkpt>
      <trkpt lat="45.40034" lon="5.60226">
        <ele>500.02</ele>
        <time>2023-01-12T14:29:38Z</time>
      </trkpt>
      <trkpt lat="45.40028" lon="5.60229">
        <ele>499.54</ele>
        <time>2023-01-12T14:29:39Z</time>
      </trkpt>
      <trkpt lat="45.40022" lon="5.60233">
        <ele>500.02</ele>
        <time>2023-01-12T14:29:40Z</time>
      </trkpt>
      <trkpt lat="45.39913" lon="5.60312">
        <ele>497.62</ele>
        <time>2023-01-12T14:29:58Z</time>
      </trkpt>
      <trkpt lat="45.39847" lon="5.60353">
        <ele>496.18</ele>
        <time>2023-01-12T14:30:09Z</time>
      </trkpt>
      <trkpt lat="45.39766" lon="5.6044">
        <ele>496.18</ele>
        <time>2023-01-12T14:30:25Z</time>
      </trkpt>
      <trkpt lat="45.39731" lon="5.60498">
        <ele>494.74</ele>
        <time>2023-01-12T14:30:33Z</time>
      </trkpt>
      <trkpt lat="45.39713" lon="5.60546">
        <ele>494.74</ele>
        <time>2023-01-12T14:30:39Z</time>
      </trkpt>
      <trkpt lat="45.3971" lon="5.60553">
        <ele>494.74</ele>
        <time>2023-01-12T14:30:40Z</time>
      </trkpt>
      <trkpt lat="45.39706" lon="5.6056">
        <ele>494.74</ele>
        <time>2023-01-12T14:30:41Z</time>
      </trkpt>
      <trkpt lat="45.39635" lon="5.60664">
        <ele>497.62</ele>
        <time>2023-01-12T14:30:59Z</time>
      </trkpt>
      <trkpt lat="45.39601" lon="5.60696">
        <ele>498.58</ele>
        <time>2023-01-12T14:31:08Z</time>
      </trkpt>
      <trkpt lat="45.39598" lon="5.607">
        <ele>499.54</ele>
        <time>2023-01-12T14:31:09Z</time>
      </trkpt>
      <trkpt lat="45.39595" lon="5.60705">
        <ele>499.06</ele>
        <time>2023-01-12T14:31:10Z</time>
      </trkpt>
      <trkpt lat="45.39592" lon="5.60709">
        <ele>499.54</ele>
        <time>2023-01-12T14:31:11Z</time>
      </trkpt>
      <trkpt lat="45.39589" lon="5.60713">
        <ele>499.54</ele>
        <time>2023-01-12T14:31:12Z</time>
      </trkpt>
      <trkpt lat="45.39533" lon="5.60769">
        <ele>500.5</ele>
        <time>2023-01-12T14:31:28Z</time>
      </trkpt>
      <trkpt lat="45.39523" lon="5.60785">
        <ele>500.5</ele>
        <time>2023-01-12T14:31:37Z</time>
      </trkpt>
      <trkpt lat="45.39507" lon="5.608">
        <ele>499.06</ele>
        <time>2023-01-12T14:31:46Z</time>
      </trkpt>
      <trkpt lat="45.39473" lon="5.60836">
        <ele>495.7</ele>
        <time>2023-01-12T14:31:53Z</time>
      </trkpt>
      <trkpt lat="45.39452" lon="5.60863">
        <ele>491.85</ele>
        <time>2023-01-12T14:31:57Z</time>
      </trkpt>
      <trkpt lat="45.3943" lon="5.60891">
        <ele>488.97</ele>
        <time>2023-01-12T14:32:01Z</time>
      </trkpt>
      <trkpt lat="45.39425" lon="5.60897">
        <ele>487.05</ele>
        <time>2023-01-12T14:32:02Z</time>
      </trkpt>
      <trkpt lat="45.39419" lon="5.60902">
        <ele>487.05</ele>
        <time>2023-01-12T14:32:03Z</time>
      </trkpt>
      <trkpt lat="45.39413" lon="5.60906">
        <ele>487.05</ele>
        <time>2023-01-12T14:32:04Z</time>
      </trkpt>
      <trkpt lat="45.39407" lon="5.60909">
        <ele>486.08</ele>
        <time>2023-01-12T14:32:05Z</time>
      </trkpt>
      <trkpt lat="45.3933" lon="5.60937">
        <ele>485.12</ele>
        <time>2023-01-12T14:32:18Z</time>
      </trkpt>
      <trkpt lat="45.39277" lon="5.60962">
        <ele>484.64</ele>
        <time>2023-01-12T14:32:28Z</time>
      </trkpt>
      <trkpt lat="45.39266" lon="5.6097">
        <ele>485.12</ele>
        <time>2023-01-12T14:32:31Z</time>
      </trkpt>
      <trkpt lat="45.39262" lon="5.60974">
        <ele>484.64</ele>
        <time>2023-01-12T14:32:32Z</time>
      </trkpt>
      <trkpt lat="45.39258" lon="5.60979">
        <ele>484.64</ele>
        <time>2023-01-12T14:32:33Z</time>
      </trkpt>
      <trkpt lat="45.39234" lon="5.61021">
        <ele>481.76</ele>
        <time>2023-01-12T14:32:39Z</time>
      </trkpt>
      <trkpt lat="45.3921" lon="5.61062">
        <ele>478.87</ele>
        <time>2023-01-12T14:32:44Z</time>
      </trkpt>
      <trkpt lat="45.39189" lon="5.611">
        <ele>475.03</ele>
        <time>2023-01-12T14:32:48Z</time>
      </trkpt>
      <trkpt lat="45.39174" lon="5.6113">
        <ele>473.59</ele>
        <time>2023-01-12T14:32:51Z</time>
      </trkpt>
      <trkpt lat="45.39165" lon="5.61151">
        <ele>471.66</ele>
        <time>2023-01-12T14:32:53Z</time>
      </trkpt>
      <trkpt lat="45.39161" lon="5.61162">
        <ele>471.18</ele>
        <time>2023-01-12T14:32:54Z</time>
      </trkpt>
      <trkpt lat="45.39157" lon="5.61172">
        <ele>469.74</ele>
        <time>2023-01-12T14:32:55Z</time>
      </trkpt>
      <trkpt lat="45.39131" lon="5.61218">
        <ele>465.42</ele>
        <time>2023-01-12T14:33:00Z</time>
      </trkpt>
      <trkpt lat="45.39107" lon="5.61259">
        <ele>462.05</ele>
        <time>2023-01-12T14:33:05Z</time>
      </trkpt>
      <trkpt lat="45.391" lon="5.61274">
        <ele>459.65</ele>
        <time>2023-01-12T14:33:08Z</time>
      </trkpt>
      <trkpt lat="45.39102" lon="5.61278">
        <ele>459.17</ele>
        <time>2023-01-12T14:33:09Z</time>
      </trkpt>
      <trkpt lat="45.39105" lon="5.61281">
        <ele>459.65</ele>
        <time>2023-01-12T14:33:10Z</time>
      </trkpt>
      <trkpt lat="45.39109" lon="5.61284">
        <ele>459.17</ele>
        <time>2023-01-12T14:33:11Z</time>
      </trkpt>
      <trkpt lat="45.39113" lon="5.61286">
        <ele>459.17</ele>
        <time>2023-01-12T14:33:12Z</time>
      </trkpt>
      <trkpt lat="45.39118" lon="5.61288">
        <ele>460.13</ele>
        <time>2023-01-12T14:33:13Z</time>
      </trkpt>
      <trkpt lat="45.39122" lon="5.61292">
        <ele>459.17</ele>
        <time>2023-01-12T14:33:14Z</time>
      </trkpt>
      <trkpt lat="45.39125" lon="5.61298">
        <ele>459.65</ele>
        <time>2023-01-12T14:33:15Z</time>
      </trkpt>
      <trkpt lat="45.39128" lon="5.61305">
        <ele>459.17</ele>
        <time>2023-01-12T14:33:16Z</time>
      </trkpt>
      <trkpt lat="45.39131" lon="5.61312">
        <ele>459.65</ele>
        <time>2023-01-12T14:33:17Z</time>
      </trkpt>
      <trkpt lat="45.39134" lon="5.61318">
        <ele>459.65</ele>
        <time>2023-01-12T14:33:18Z</time>
      </trkpt>
      <trkpt lat="45.39161" lon="5.61376">
        <ele>459.17</ele>
        <time>2023-01-12T14:33:28Z</time>
      </trkpt>
      <trkpt lat="45.39163" lon="5.61383">
        <ele>459.17</ele>
        <time>2023-01-12T14:33:29Z</time>
      </trkpt>
      <trkpt lat="45.39163" lon="5.6139">
        <ele>459.65</ele>
        <time>2023-01-12T14:33:30Z</time>
      </trkpt>
      <trkpt lat="45.39163" lon="5.61397">
        <ele>459.17</ele>
        <time>2023-01-12T14:33:31Z</time>
      </trkpt>
      <trkpt lat="45.39161" lon="5.61404">
        <ele>459.17</ele>
        <time>2023-01-12T14:33:32Z</time>
      </trkpt>
      <trkpt lat="45.39158" lon="5.61411">
        <ele>458.69</ele>
        <time>2023-01-12T14:33:33Z</time>
      </trkpt>
      <trkpt lat="45.39154" lon="5.61417">
        <ele>458.69</ele>
        <time>2023-01-12T14:33:34Z</time>
      </trkpt>
      <trkpt lat="45.3915" lon="5.61423">
        <ele>458.21</ele>
        <time>2023-01-12T14:33:35Z</time>
      </trkpt>
      <trkpt lat="45.39124" lon="5.6146">
        <ele>456.76</ele>
        <time>2023-01-12T14:33:41Z</time>
      </trkpt>
      <trkpt lat="45.3912" lon="5.61466">
        <ele>456.76</ele>
        <time>2023-01-12T14:33:42Z</time>
      </trkpt>
      <trkpt lat="45.39109" lon="5.61481">
        <ele>455.8</ele>
        <time>2023-01-12T14:33:45Z</time>
      </trkpt>
      <trkpt lat="45.39107" lon="5.61487">
        <ele>455.8</ele>
        <time>2023-01-12T14:33:46Z</time>
      </trkpt>
      <trkpt lat="45.39106" lon="5.61493">
        <ele>456.28</ele>
        <time>2023-01-12T14:33:47Z</time>
      </trkpt>
      <trkpt lat="45.39107" lon="5.61499">
        <ele>455.8</ele>
        <time>2023-01-12T14:33:48Z</time>
      </trkpt>
      <trkpt lat="45.3911" lon="5.61503">
        <ele>455.8</ele>
        <time>2023-01-12T14:33:49Z</time>
      </trkpt>
      <trkpt lat="45.39112" lon="5.61508">
        <ele>455.8</ele>
        <time>2023-01-12T14:33:50Z</time>
      </trkpt>
      <trkpt lat="45.39115" lon="5.61512">
        <ele>455.8</ele>
        <time>2023-01-12T14:33:51Z</time>
      </trkpt>
      <trkpt lat="45.3915" lon="5.61559">
        <ele>455.32</ele>
        <time>2023-01-12T14:34:03Z</time>
      </trkpt>
      <trkpt lat="45.39149" lon="5.61563">
        <ele>455.8</ele>
        <time>2023-01-12T14:34:04Z</time>
      </trkpt>
      <trkpt lat="45.3912" lon="5.61602">
        <ele>454.36</ele>
        <time>2023-01-12T14:34:15Z</time>
      </trkpt>
      <trkpt lat="45.39096" lon="5.61638">
        <ele>452.92</ele>
        <time>2023-01-12T14:34:23Z</time>
      </trkpt>
      <trkpt lat="45.39096" lon="5.61678">
        <ele>452.44</ele>
        <time>2023-01-12T14:34:31Z</time>
      </trkpt>
      <trkpt lat="45.39041" lon="5.61764">
        <ele>450.03</ele>
        <time>2023-01-12T14:34:50Z</time>
      </trkpt>
      <trkpt lat="45.38994" lon="5.61834">
        <ele>448.11</ele>
        <time>2023-01-12T14:35:05Z</time>
      </trkpt>
      <trkpt lat="45.38992" lon="5.6184">
        <ele>448.11</ele>
        <time>2023-01-12T14:35:06Z</time>
      </trkpt>
      <trkpt lat="45.38992" lon="5.61851">
        <ele>447.63</ele>
        <time>2023-01-12T14:35:08Z</time>
      </trkpt>
      <trkpt lat="45.38995" lon="5.61856">
        <ele>448.11</ele>
        <time>2023-01-12T14:35:09Z</time>
      </trkpt>
      <trkpt lat="45.38998" lon="5.6186">
        <ele>447.63</ele>
        <time>2023-01-12T14:35:10Z</time>
      </trkpt>
      <trkpt lat="45.39021" lon="5.61889">
        <ele>448.59</ele>
        <time>2023-01-12T14:35:17Z</time>
      </trkpt>
      <trkpt lat="45.39023" lon="5.61895">
        <ele>448.59</ele>
        <time>2023-01-12T14:35:18Z</time>
      </trkpt>
      <trkpt lat="45.39023" lon="5.619">
        <ele>448.11</ele>
        <time>2023-01-12T14:35:19Z</time>
      </trkpt>
      <trkpt lat="45.39021" lon="5.61905">
        <ele>448.11</ele>
        <time>2023-01-12T14:35:20Z</time>
      </trkpt>
      <trkpt lat="45.39017" lon="5.61909">
        <ele>447.63</ele>
        <time>2023-01-12T14:35:21Z</time>
      </trkpt>
      <trkpt lat="45.39013" lon="5.61911">
        <ele>448.11</ele>
        <time>2023-01-12T14:35:22Z</time>
      </trkpt>
      <trkpt lat="45.39008" lon="5.61912">
        <ele>448.11</ele>
        <time>2023-01-12T14:35:23Z</time>
      </trkpt>
      <trkpt lat="45.39002" lon="5.61913">
        <ele>447.63</ele>
        <time>2023-01-12T14:35:24Z</time>
      </trkpt>
      <trkpt lat="45.38993" lon="5.61914">
        <ele>447.15</ele>
        <time>2023-01-12T14:35:26Z</time>
      </trkpt>
      <trkpt lat="45.38983" lon="5.61911">
        <ele>447.15</ele>
        <time>2023-01-12T14:35:28Z</time>
      </trkpt>
      <trkpt lat="45.38973" lon="5.61909">
        <ele>447.15</ele>
        <time>2023-01-12T14:35:30Z</time>
      </trkpt>
      <trkpt lat="45.38968" lon="5.6191">
        <ele>446.67</ele>
        <time>2023-01-12T14:35:31Z</time>
      </trkpt>
      <trkpt lat="45.38963" lon="5.61912">
        <ele>447.15</ele>
        <time>2023-01-12T14:35:32Z</time>
      </trkpt>
      <trkpt lat="45.38959" lon="5.61916">
        <ele>446.67</ele>
        <time>2023-01-12T14:35:33Z</time>
      </trkpt>
      <trkpt lat="45.38953" lon="5.6192">
        <ele>447.15</ele>
        <time>2023-01-12T14:35:34Z</time>
      </trkpt>
      <trkpt lat="45.38948" lon="5.61923">
        <ele>446.19</ele>
        <time>2023-01-12T14:35:35Z</time>
      </trkpt>
      <trkpt lat="45.38942" lon="5.61925">
        <ele>446.67</ele>
        <time>2023-01-12T14:35:36Z</time>
      </trkpt>
      <trkpt lat="45.38936" lon="5.61927">
        <ele>446.19</ele>
        <time>2023-01-12T14:35:37Z</time>
      </trkpt>
      <trkpt lat="45.38931" lon="5.61928">
        <ele>446.67</ele>
        <time>2023-01-12T14:35:38Z</time>
      </trkpt>
      <trkpt lat="45.38926" lon="5.61931">
        <ele>446.19</ele>
        <time>2023-01-12T14:35:39Z</time>
      </trkpt>
      <trkpt lat="45.38916" lon="5.61938">
        <ele>445.71</ele>
        <time>2023-01-12T14:35:41Z</time>
      </trkpt>
      <trkpt lat="45.389" lon="5.61955">
        <ele>444.75</ele>
        <time>2023-01-12T14:35:44Z</time>
      </trkpt>
      <trkpt lat="45.38895" lon="5.61961">
        <ele>445.23</ele>
        <time>2023-01-12T14:35:45Z</time>
      </trkpt>
      <trkpt lat="45.38869" lon="5.62">
        <ele>444.27</ele>
        <time>2023-01-12T14:35:51Z</time>
      </trkpt>
      <trkpt lat="45.38864" lon="5.62004">
        <ele>444.27</ele>
        <time>2023-01-12T14:35:52Z</time>
      </trkpt>
      <trkpt lat="45.38858" lon="5.62006">
        <ele>444.27</ele>
        <time>2023-01-12T14:35:53Z</time>
      </trkpt>
      <trkpt lat="45.38853" lon="5.62007">
        <ele>443.79</ele>
        <time>2023-01-12T14:35:54Z</time>
      </trkpt>
      <trkpt lat="45.38847" lon="5.62005">
        <ele>443.31</ele>
        <time>2023-01-12T14:35:55Z</time>
      </trkpt>
      <trkpt lat="45.38842" lon="5.62001">
        <ele>443.31</ele>
        <time>2023-01-12T14:35:56Z</time>
      </trkpt>
      <trkpt lat="45.38838" lon="5.61997">
        <ele>443.31</ele>
        <time>2023-01-12T14:35:57Z</time>
      </trkpt>
      <trkpt lat="45.38813" lon="5.6197">
        <ele>443.79</ele>
        <time>2023-01-12T14:36:02Z</time>
      </trkpt>
      <trkpt lat="45.38809" lon="5.61964">
        <ele>443.31</ele>
        <time>2023-01-12T14:36:03Z</time>
      </trkpt>
      <trkpt lat="45.38804" lon="5.6196">
        <ele>444.27</ele>
        <time>2023-01-12T14:36:04Z</time>
      </trkpt>
      <trkpt lat="45.38795" lon="5.6195">
        <ele>443.79</ele>
        <time>2023-01-12T14:36:06Z</time>
      </trkpt>
      <trkpt lat="45.38783" lon="5.61934">
        <ele>443.31</ele>
        <time>2023-01-12T14:36:09Z</time>
      </trkpt>
      <trkpt lat="45.38778" lon="5.61931">
        <ele>443.79</ele>
        <time>2023-01-12T14:36:10Z</time>
      </trkpt>
      <trkpt lat="45.38773" lon="5.6193">
        <ele>443.79</ele>
        <time>2023-01-12T14:36:11Z</time>
      </trkpt>
      <trkpt lat="45.38762" lon="5.6193">
        <ele>443.79</ele>
        <time>2023-01-12T14:36:13Z</time>
      </trkpt>
      <trkpt lat="45.38757" lon="5.61928">
        <ele>443.79</ele>
        <time>2023-01-12T14:36:14Z</time>
      </trkpt>
      <trkpt lat="45.38753" lon="5.61926">
        <ele>444.27</ele>
        <time>2023-01-12T14:36:15Z</time>
      </trkpt>
      <trkpt lat="45.38749" lon="5.61923">
        <ele>444.27</ele>
        <time>2023-01-12T14:36:16Z</time>
      </trkpt>
      <trkpt lat="45.38746" lon="5.6192">
        <ele>444.27</ele>
        <time>2023-01-12T14:36:17Z</time>
      </trkpt>
      <trkpt lat="45.38743" lon="5.61915">
        <ele>444.75</ele>
        <time>2023-01-12T14:36:18Z</time>
      </trkpt>
      <trkpt lat="45.3874" lon="5.61911">
        <ele>444.75</ele>
        <time>2023-01-12T14:36:19Z</time>
      </trkpt>
      <trkpt lat="45.38733" lon="5.61902">
        <ele>445.23</ele>
        <time>2023-01-12T14:36:21Z</time>
      </trkpt>
      <trkpt lat="45.38729" lon="5.61899">
        <ele>446.19</ele>
        <time>2023-01-12T14:36:22Z</time>
      </trkpt>
      <trkpt lat="45.38725" lon="5.61898">
        <ele>445.71</ele>
        <time>2023-01-12T14:36:23Z</time>
      </trkpt>
      <trkpt lat="45.38721" lon="5.61898">
        <ele>446.19</ele>
        <time>2023-01-12T14:36:24Z</time>
      </trkpt>
      <trkpt lat="45.38716" lon="5.61899">
        <ele>446.67</ele>
        <time>2023-01-12T14:36:25Z</time>
      </trkpt>
      <trkpt lat="45.38678" lon="5.61903">
        <ele>449.07</ele>
        <time>2023-01-12T14:36:36Z</time>
      </trkpt>
      <trkpt lat="45.38667" lon="5.61908">
        <ele>448.59</ele>
        <time>2023-01-12T14:36:39Z</time>
      </trkpt>
      <trkpt lat="45.38614" lon="5.61907">
        <ele>450.03</ele>
        <time>2023-01-12T14:36:53Z</time>
      </trkpt>
      <trkpt lat="45.38609" lon="5.61914">
        <ele>450.03</ele>
        <time>2023-01-12T14:36:55Z</time>
      </trkpt>
      <trkpt lat="45.38575" lon="5.62031">
        <ele>450.03</ele>
        <time>2023-01-12T14:37:14Z</time>
      </trkpt>
      <trkpt lat="45.38571" lon="5.62049">
        <ele>449.55</ele>
        <time>2023-01-12T14:37:17Z</time>
      </trkpt>
      <trkpt lat="45.38546" lon="5.62104">
        <ele>450.03</ele>
        <time>2023-01-12T14:37:30Z</time>
      </trkpt>
      <trkpt lat="45.38509" lon="5.62155">
        <ele>451.96</ele>
        <time>2023-01-12T14:37:42Z</time>
      </trkpt>
      <trkpt lat="45.38465" lon="5.62206">
        <ele>450.52</ele>
        <time>2023-01-12T14:37:54Z</time>
      </trkpt>
      <trkpt lat="45.38455" lon="5.62214">
        <ele>450.03</ele>
        <time>2023-01-12T14:37:56Z</time>
      </trkpt>
      <trkpt lat="45.38438" lon="5.62223">
        <ele>449.55</ele>
        <time>2023-01-12T14:37:59Z</time>
      </trkpt>
      <trkpt lat="45.38433" lon="5.62226">
        <ele>448.59</ele>
        <time>2023-01-12T14:38:00Z</time>
      </trkpt>
      <trkpt lat="45.38413" lon="5.62241">
        <ele>448.11</ele>
        <time>2023-01-12T14:38:04Z</time>
      </trkpt>
      <trkpt lat="45.38386" lon="5.62251">
        <ele>447.63</ele>
        <time>2023-01-12T14:38:12Z</time>
      </trkpt>
      <trkpt lat="45.38385" lon="5.62255">
        <ele>446.67</ele>
        <time>2023-01-12T14:38:13Z</time>
      </trkpt>
      <trkpt lat="45.38383" lon="5.6226">
        <ele>447.15</ele>
        <time>2023-01-12T14:38:14Z</time>
      </trkpt>
      <trkpt lat="45.38382" lon="5.62267">
        <ele>446.67</ele>
        <time>2023-01-12T14:38:15Z</time>
      </trkpt>
      <trkpt lat="45.38383" lon="5.62275">
        <ele>446.19</ele>
        <time>2023-01-12T14:38:16Z</time>
      </trkpt>
      <trkpt lat="45.38384" lon="5.62282">
        <ele>446.19</ele>
        <time>2023-01-12T14:38:17Z</time>
      </trkpt>
      <trkpt lat="45.38386" lon="5.6229">
        <ele>445.71</ele>
        <time>2023-01-12T14:38:18Z</time>
      </trkpt>
      <trkpt lat="45.38388" lon="5.62298">
        <ele>444.75</ele>
        <time>2023-01-12T14:38:19Z</time>
      </trkpt>
      <trkpt lat="45.3839" lon="5.62304">
        <ele>444.75</ele>
        <time>2023-01-12T14:38:20Z</time>
      </trkpt>
      <trkpt lat="45.3839" lon="5.62308">
        <ele>443.79</ele>
        <time>2023-01-12T14:38:21Z</time>
      </trkpt>
      <trkpt lat="45.38388" lon="5.62312">
        <ele>443.79</ele>
        <time>2023-01-12T14:38:22Z</time>
      </trkpt>
      <trkpt lat="45.38385" lon="5.62316">
        <ele>443.79</ele>
        <time>2023-01-12T14:38:23Z</time>
      </trkpt>
      <trkpt lat="45.38381" lon="5.62319">
        <ele>443.31</ele>
        <time>2023-01-12T14:38:24Z</time>
      </trkpt>
      <trkpt lat="45.38377" lon="5.62321">
        <ele>444.27</ele>
        <time>2023-01-12T14:38:25Z</time>
      </trkpt>
      <trkpt lat="45.38293" lon="5.62371">
        <ele>445.71</ele>
        <time>2023-01-12T14:38:42Z</time>
      </trkpt>
      <trkpt lat="45.38238" lon="5.62407">
        <ele>444.27</ele>
        <time>2023-01-12T14:38:52Z</time>
      </trkpt>
      <trkpt lat="45.38233" lon="5.62412">
        <ele>445.23</ele>
        <time>2023-01-12T14:38:53Z</time>
      </trkpt>
      <trkpt lat="45.38229" lon="5.62419">
        <ele>444.75</ele>
        <time>2023-01-12T14:38:54Z</time>
      </trkpt>
      <trkpt lat="45.38226" lon="5.62426">
        <ele>444.75</ele>
        <time>2023-01-12T14:38:55Z</time>
      </trkpt>
      <trkpt lat="45.38223" lon="5.62435">
        <ele>444.75</ele>
        <time>2023-01-12T14:38:56Z</time>
      </trkpt>
      <trkpt lat="45.38213" lon="5.62465">
        <ele>442.34</ele>
        <time>2023-01-12T14:38:59Z</time>
      </trkpt>
      <trkpt lat="45.38208" lon="5.62475">
        <ele>441.38</ele>
        <time>2023-01-12T14:39:00Z</time>
      </trkpt>
      <trkpt lat="45.38202" lon="5.62483">
        <ele>441.38</ele>
        <time>2023-01-12T14:39:01Z</time>
      </trkpt>
      <trkpt lat="45.3813" lon="5.6255">
        <ele>440.9</ele>
        <time>2023-01-12T14:39:14Z</time>
      </trkpt>
      <trkpt lat="45.38094" lon="5.62581">
        <ele>442.82</ele>
        <time>2023-01-12T14:39:22Z</time>
      </trkpt>
      <trkpt lat="45.3809" lon="5.62585">
        <ele>443.79</ele>
        <time>2023-01-12T14:39:23Z</time>
      </trkpt>
      <trkpt lat="45.38087" lon="5.62589">
        <ele>443.79</ele>
        <time>2023-01-12T14:39:24Z</time>
      </trkpt>
      <trkpt lat="45.38085" lon="5.62594">
        <ele>442.82</ele>
        <time>2023-01-12T14:39:25Z</time>
      </trkpt>
      <trkpt lat="45.38083" lon="5.626">
        <ele>442.82</ele>
        <time>2023-01-12T14:39:26Z</time>
      </trkpt>
      <trkpt lat="45.38081" lon="5.62607">
        <ele>442.34</ele>
        <time>2023-01-12T14:39:27Z</time>
      </trkpt>
      <trkpt lat="45.38072" lon="5.62641">
        <ele>440.42</ele>
        <time>2023-01-12T14:39:31Z</time>
      </trkpt>
      <trkpt lat="45.38067" lon="5.6269">
        <ele>438.5</ele>
        <time>2023-01-12T14:39:35Z</time>
      </trkpt>
      <trkpt lat="45.38061" lon="5.62743">
        <ele>434.17</ele>
        <time>2023-01-12T14:39:39Z</time>
      </trkpt>
      <trkpt lat="45.38057" lon="5.62785">
        <ele>433.21</ele>
        <time>2023-01-12T14:39:42Z</time>
      </trkpt>
      <trkpt lat="45.38057" lon="5.62799">
        <ele>432.25</ele>
        <time>2023-01-12T14:39:43Z</time>
      </trkpt>
      <trkpt lat="45.38059" lon="5.62866">
        <ele>429.37</ele>
        <time>2023-01-12T14:39:48Z</time>
      </trkpt>
      <trkpt lat="45.38059" lon="5.62891">
        <ele>427.92</ele>
        <time>2023-01-12T14:39:50Z</time>
      </trkpt>
      <trkpt lat="45.38045" lon="5.62967">
        <ele>424.56</ele>
        <time>2023-01-12T14:39:56Z</time>
      </trkpt>
      <trkpt lat="45.38024" lon="5.63016">
        <ele>421.19</ele>
        <time>2023-01-12T14:40:00Z</time>
      </trkpt>
      <trkpt lat="45.38017" lon="5.63041">
        <ele>420.23</ele>
        <time>2023-01-12T14:40:02Z</time>
      </trkpt>
      <trkpt lat="45.38015" lon="5.63053">
        <ele>419.75</ele>
        <time>2023-01-12T14:40:03Z</time>
      </trkpt>
      <trkpt lat="45.38013" lon="5.63065">
        <ele>419.27</ele>
        <time>2023-01-12T14:40:04Z</time>
      </trkpt>
      <trkpt lat="45.38001" lon="5.63184">
        <ele>420.23</ele>
        <time>2023-01-12T14:40:16Z</time>
      </trkpt>
      <trkpt lat="45.38" lon="5.63219">
        <ele>423.6</ele>
        <time>2023-01-12T14:40:23Z</time>
      </trkpt>
      <trkpt lat="45.38002" lon="5.63227">
        <ele>424.56</ele>
        <time>2023-01-12T14:40:25Z</time>
      </trkpt>
      <trkpt lat="45.38022" lon="5.63275">
        <ele>427.44</ele>
        <time>2023-01-12T14:40:38Z</time>
      </trkpt>
      <trkpt lat="45.38033" lon="5.63299">
        <ele>429.37</ele>
        <time>2023-01-12T14:40:45Z</time>
      </trkpt>
      <trkpt lat="45.38047" lon="5.6333">
        <ele>432.73</ele>
        <time>2023-01-12T14:40:56Z</time>
      </trkpt>
      <trkpt lat="45.3806" lon="5.63366">
        <ele>435.61</ele>
        <time>2023-01-12T14:41:09Z</time>
      </trkpt>
      <trkpt lat="45.38067" lon="5.6341">
        <ele>438.98</ele>
        <time>2023-01-12T14:41:23Z</time>
      </trkpt>
      <trkpt lat="45.38054" lon="5.63486">
        <ele>441.38</ele>
        <time>2023-01-12T14:41:43Z</time>
      </trkpt>
      <trkpt lat="45.38042" lon="5.63508">
        <ele>442.34</ele>
        <time>2023-01-12T14:41:49Z</time>
      </trkpt>
      <trkpt lat="45.38038" lon="5.63508">
        <ele>442.34</ele>
        <time>2023-01-12T14:41:50Z</time>
      </trkpt>
      <trkpt lat="45.38035" lon="5.63507">
        <ele>442.34</ele>
        <time>2023-01-12T14:41:51Z</time>
      </trkpt>
      <trkpt lat="45.38031" lon="5.63505">
        <ele>442.34</ele>
        <time>2023-01-12T14:41:52Z</time>
      </trkpt>
      <trkpt lat="45.38027" lon="5.63504">
        <ele>442.34</ele>
        <time>2023-01-12T14:41:53Z</time>
      </trkpt>
      <trkpt lat="45.38001" lon="5.63491">
        <ele>442.82</ele>
        <time>2023-01-12T14:42:00Z</time>
      </trkpt>
      <trkpt lat="45.3799" lon="5.63482">
        <ele>443.31</ele>
        <time>2023-01-12T14:42:03Z</time>
      </trkpt>
      <trkpt lat="45.37986" lon="5.6348">
        <ele>442.82</ele>
        <time>2023-01-12T14:42:04Z</time>
      </trkpt>
      <trkpt lat="45.37916" lon="5.63455">
        <ele>444.27</ele>
        <time>2023-01-12T14:42:21Z</time>
      </trkpt>
      <trkpt lat="45.37911" lon="5.63453">
        <ele>443.79</ele>
        <time>2023-01-12T14:42:22Z</time>
      </trkpt>
      <trkpt lat="45.37895" lon="5.63447">
        <ele>444.27</ele>
        <time>2023-01-12T14:42:26Z</time>
      </trkpt>
      <trkpt lat="45.37883" lon="5.6344">
        <ele>444.75</ele>
        <time>2023-01-12T14:42:29Z</time>
      </trkpt>
      <trkpt lat="45.37803" lon="5.63406">
        <ele>445.23</ele>
        <time>2023-01-12T14:42:47Z</time>
      </trkpt>
      <trkpt lat="45.37751" lon="5.63393">
        <ele>444.75</ele>
        <time>2023-01-12T14:42:57Z</time>
      </trkpt>
      <trkpt lat="45.37659" lon="5.63377">
        <ele>443.31</ele>
        <time>2023-01-12T14:43:13Z</time>
      </trkpt>
      <trkpt lat="45.37598" lon="5.6336">
        <ele>443.79</ele>
        <time>2023-01-12T14:43:24Z</time>
      </trkpt>
      <trkpt lat="45.37516" lon="5.63332">
        <ele>443.31</ele>
        <time>2023-01-12T14:43:39Z</time>
      </trkpt>
      <trkpt lat="45.37481" lon="5.63324">
        <ele>443.31</ele>
        <time>2023-01-12T14:43:45Z</time>
      </trkpt>
      <trkpt lat="45.3747" lon="5.6332">
        <ele>443.31</ele>
        <time>2023-01-12T14:43:47Z</time>
      </trkpt>
      <trkpt lat="45.37435" lon="5.63311">
        <ele>443.31</ele>
        <time>2023-01-12T14:43:53Z</time>
      </trkpt>
      <trkpt lat="45.37429" lon="5.63311">
        <ele>443.31</ele>
        <time>2023-01-12T14:43:54Z</time>
      </trkpt>
      <trkpt lat="45.37424" lon="5.63309">
        <ele>442.34</ele>
        <time>2023-01-12T14:43:55Z</time>
      </trkpt>
      <trkpt lat="45.37412" lon="5.63305">
        <ele>442.34</ele>
        <time>2023-01-12T14:43:57Z</time>
      </trkpt>
      <trkpt lat="45.37366" lon="5.6329">
        <ele>441.86</ele>
        <time>2023-01-12T14:44:05Z</time>
      </trkpt>
      <trkpt lat="45.37349" lon="5.63286">
        <ele>441.38</ele>
        <time>2023-01-12T14:44:08Z</time>
      </trkpt>
      <trkpt lat="45.37344" lon="5.63283">
        <ele>441.86</ele>
        <time>2023-01-12T14:44:09Z</time>
      </trkpt>
      <trkpt lat="45.37339" lon="5.6328">
        <ele>441.86</ele>
        <time>2023-01-12T14:44:10Z</time>
      </trkpt>
      <trkpt lat="45.37333" lon="5.63278">
        <ele>441.86</ele>
        <time>2023-01-12T14:44:11Z</time>
      </trkpt>
      <trkpt lat="45.37328" lon="5.63277">
        <ele>441.38</ele>
        <time>2023-01-12T14:44:12Z</time>
      </trkpt>
      <trkpt lat="45.37323" lon="5.63275">
        <ele>441.38</ele>
        <time>2023-01-12T14:44:13Z</time>
      </trkpt>
      <trkpt lat="45.37312" lon="5.63272">
        <ele>441.38</ele>
        <time>2023-01-12T14:44:15Z</time>
      </trkpt>
      <trkpt lat="45.37307" lon="5.63272">
        <ele>440.9</ele>
        <time>2023-01-12T14:44:16Z</time>
      </trkpt>
      <trkpt lat="45.37301" lon="5.63272">
        <ele>440.42</ele>
        <time>2023-01-12T14:44:17Z</time>
      </trkpt>
      <trkpt lat="45.37295" lon="5.63273">
        <ele>439.94</ele>
        <time>2023-01-12T14:44:18Z</time>
      </trkpt>
      <trkpt lat="45.37289" lon="5.63276">
        <ele>439.94</ele>
        <time>2023-01-12T14:44:19Z</time>
      </trkpt>
      <trkpt lat="45.37284" lon="5.63279">
        <ele>439.94</ele>
        <time>2023-01-12T14:44:20Z</time>
      </trkpt>
      <trkpt lat="45.37278" lon="5.63282">
        <ele>439.94</ele>
        <time>2023-01-12T14:44:21Z</time>
      </trkpt>
      <trkpt lat="45.37272" lon="5.63286">
        <ele>438.98</ele>
        <time>2023-01-12T14:44:22Z</time>
      </trkpt>
      <trkpt lat="45.37242" lon="5.63308">
        <ele>435.61</ele>
        <time>2023-01-12T14:44:27Z</time>
      </trkpt>
      <trkpt lat="45.37236" lon="5.63308">
        <ele>434.17</ele>
        <time>2023-01-12T14:44:28Z</time>
      </trkpt>
      <trkpt lat="45.3723" lon="5.63307">
        <ele>433.21</ele>
        <time>2023-01-12T14:44:29Z</time>
      </trkpt>
      <trkpt lat="45.37218" lon="5.63302">
        <ele>430.33</ele>
        <time>2023-01-12T14:44:32Z</time>
      </trkpt>
      <trkpt lat="45.37214" lon="5.63305">
        <ele>429.85</ele>
        <time>2023-01-12T14:44:33Z</time>
      </trkpt>
      <trkpt lat="45.3721" lon="5.6331">
        <ele>428.89</ele>
        <time>2023-01-12T14:44:34Z</time>
      </trkpt>
      <trkpt lat="45.37206" lon="5.63313">
        <ele>428.89</ele>
        <time>2023-01-12T14:44:35Z</time>
      </trkpt>
      <trkpt lat="45.37202" lon="5.63314">
        <ele>427.92</ele>
        <time>2023-01-12T14:44:36Z</time>
      </trkpt>
      <trkpt lat="45.37197" lon="5.63313">
        <ele>426.96</ele>
        <time>2023-01-12T14:44:37Z</time>
      </trkpt>
      <trkpt lat="45.37193" lon="5.63309">
        <ele>426.48</ele>
        <time>2023-01-12T14:44:38Z</time>
      </trkpt>
      <trkpt lat="45.37191" lon="5.63304">
        <ele>425.52</ele>
        <time>2023-01-12T14:44:39Z</time>
      </trkpt>
      <trkpt lat="45.37188" lon="5.63297">
        <ele>425.52</ele>
        <time>2023-01-12T14:44:40Z</time>
      </trkpt>
      <trkpt lat="45.3718" lon="5.63277">
        <ele>425.04</ele>
        <time>2023-01-12T14:44:43Z</time>
      </trkpt>
      <trkpt lat="45.37163" lon="5.63239">
        <ele>424.56</ele>
        <time>2023-01-12T14:44:48Z</time>
      </trkpt>
      <trkpt lat="45.3716" lon="5.63232">
        <ele>424.56</ele>
        <time>2023-01-12T14:44:49Z</time>
      </trkpt>
      <trkpt lat="45.37156" lon="5.63225">
        <ele>424.08</ele>
        <time>2023-01-12T14:44:50Z</time>
      </trkpt>
      <trkpt lat="45.37153" lon="5.63219">
        <ele>424.08</ele>
        <time>2023-01-12T14:44:51Z</time>
      </trkpt>
      <trkpt lat="45.3715" lon="5.63212">
        <ele>424.08</ele>
        <time>2023-01-12T14:44:52Z</time>
      </trkpt>
      <trkpt lat="45.37147" lon="5.63206">
        <ele>424.08</ele>
        <time>2023-01-12T14:44:53Z</time>
      </trkpt>
      <trkpt lat="45.37143" lon="5.632">
        <ele>424.08</ele>
        <time>2023-01-12T14:44:54Z</time>
      </trkpt>
      <trkpt lat="45.37116" lon="5.63157">
        <ele>423.6</ele>
        <time>2023-01-12T14:45:01Z</time>
      </trkpt>
      <trkpt lat="45.37097" lon="5.63139">
        <ele>423.12</ele>
        <time>2023-01-12T14:45:05Z</time>
      </trkpt>
      <trkpt lat="45.37092" lon="5.63135">
        <ele>423.12</ele>
        <time>2023-01-12T14:45:06Z</time>
      </trkpt>
      <trkpt lat="45.37087" lon="5.63132">
        <ele>423.12</ele>
        <time>2023-01-12T14:45:07Z</time>
      </trkpt>
      <trkpt lat="45.37082" lon="5.63129">
        <ele>423.12</ele>
        <time>2023-01-12T14:45:08Z</time>
      </trkpt>
      <trkpt lat="45.37076" lon="5.63127">
        <ele>423.6</ele>
        <time>2023-01-12T14:45:09Z</time>
      </trkpt>
      <trkpt lat="45.37065" lon="5.63121">
        <ele>422.16</ele>
        <time>2023-01-12T14:45:11Z</time>
      </trkpt>
      <trkpt lat="45.37059" lon="5.63117">
        <ele>422.64</ele>
        <time>2023-01-12T14:45:12Z</time>
      </trkpt>
      <trkpt lat="45.37053" lon="5.63112">
        <ele>421.68</ele>
        <time>2023-01-12T14:45:13Z</time>
      </trkpt>
      <trkpt lat="45.37022" lon="5.63088">
        <ele>420.23</ele>
        <time>2023-01-12T14:45:18Z</time>
      </trkpt>
      <trkpt lat="45.37016" lon="5.63082">
        <ele>419.75</ele>
        <time>2023-01-12T14:45:19Z</time>
      </trkpt>
      <trkpt lat="45.3701" lon="5.63077">
        <ele>419.27</ele>
        <time>2023-01-12T14:45:20Z</time>
      </trkpt>
      <trkpt lat="45.36989" lon="5.63067">
        <ele>417.83</ele>
        <time>2023-01-12T14:45:23Z</time>
      </trkpt>
      <trkpt lat="45.36954" lon="5.63054">
        <ele>414.47</ele>
        <time>2023-01-12T14:45:28Z</time>
      </trkpt>
      <trkpt lat="45.36924" lon="5.6304">
        <ele>410.62</ele>
        <time>2023-01-12T14:45:32Z</time>
      </trkpt>
      <trkpt lat="45.36899" lon="5.63031">
        <ele>407.26</ele>
        <time>2023-01-12T14:45:35Z</time>
      </trkpt>
      <trkpt lat="45.3689" lon="5.63029">
        <ele>406.29</ele>
        <time>2023-01-12T14:45:36Z</time>
      </trkpt>
      <trkpt lat="45.36854" lon="5.63026">
        <ele>403.41</ele>
        <time>2023-01-12T14:45:40Z</time>
      </trkpt>
      <trkpt lat="45.36845" lon="5.63024">
        <ele>402.93</ele>
        <time>2023-01-12T14:45:41Z</time>
      </trkpt>
      <trkpt lat="45.36837" lon="5.63018">
        <ele>401.49</ele>
        <time>2023-01-12T14:45:42Z</time>
      </trkpt>
      <trkpt lat="45.36829" lon="5.6301">
        <ele>400.53</ele>
        <time>2023-01-12T14:45:43Z</time>
      </trkpt>
      <trkpt lat="45.36807" lon="5.62981">
        <ele>398.12</ele>
        <time>2023-01-12T14:45:46Z</time>
      </trkpt>
      <trkpt lat="45.36801" lon="5.62971">
        <ele>397.16</ele>
        <time>2023-01-12T14:45:47Z</time>
      </trkpt>
      <trkpt lat="45.36769" lon="5.62902">
        <ele>394.28</ele>
        <time>2023-01-12T14:45:54Z</time>
      </trkpt>
      <trkpt lat="45.36763" lon="5.62884">
        <ele>393.8</ele>
        <time>2023-01-12T14:45:56Z</time>
      </trkpt>
      <trkpt lat="45.3676" lon="5.62875">
        <ele>393.32</ele>
        <time>2023-01-12T14:45:57Z</time>
      </trkpt>
      <trkpt lat="45.36741" lon="5.62815">
        <ele>393.32</ele>
        <time>2023-01-12T14:46:04Z</time>
      </trkpt>
      <trkpt lat="45.36737" lon="5.62801">
        <ele>393.8</ele>
        <time>2023-01-12T14:46:06Z</time>
      </trkpt>
      <trkpt lat="45.36731" lon="5.62779">
        <ele>393.32</ele>
        <time>2023-01-12T14:46:09Z</time>
      </trkpt>
      <trkpt lat="45.3672" lon="5.62749">
        <ele>393.32</ele>
        <time>2023-01-12T14:46:13Z</time>
      </trkpt>
      <trkpt lat="45.36718" lon="5.62742">
        <ele>393.32</ele>
        <time>2023-01-12T14:46:14Z</time>
      </trkpt>
      <trkpt lat="45.36705" lon="5.62708">
        <ele>393.8</ele>
        <time>2023-01-12T14:46:19Z</time>
      </trkpt>
      <trkpt lat="45.36703" lon="5.62701">
        <ele>394.28</ele>
        <time>2023-01-12T14:46:20Z</time>
      </trkpt>
      <trkpt lat="45.36702" lon="5.62694">
        <ele>394.76</ele>
        <time>2023-01-12T14:46:21Z</time>
      </trkpt>
      <trkpt lat="45.36689" lon="5.62545">
        <ele>395.72</ele>
        <time>2023-01-12T14:46:39Z</time>
      </trkpt>
      <trkpt lat="45.36665" lon="5.62385">
        <ele>397.16</ele>
        <time>2023-01-12T14:46:58Z</time>
      </trkpt>
      <trkpt lat="45.3662" lon="5.62247">
        <ele>399.08</ele>
        <time>2023-01-12T14:47:16Z</time>
      </trkpt>
      <trkpt lat="45.36567" lon="5.62174">
        <ele>400.05</ele>
        <time>2023-01-12T14:47:29Z</time>
      </trkpt>
      <trkpt lat="45.36532" lon="5.62125">
        <ele>400.53</ele>
        <time>2023-01-12T14:47:38Z</time>
      </trkpt>
      <trkpt lat="45.36529" lon="5.62117">
        <ele>401.01</ele>
        <time>2023-01-12T14:47:39Z</time>
      </trkpt>
      <trkpt lat="45.36527" lon="5.6211">
        <ele>401.01</ele>
        <time>2023-01-12T14:47:40Z</time>
      </trkpt>
      <trkpt lat="45.36523" lon="5.62085">
        <ele>400.53</ele>
        <time>2023-01-12T14:47:43Z</time>
      </trkpt>
      <trkpt lat="45.36524" lon="5.62043">
        <ele>399.08</ele>
        <time>2023-01-12T14:47:48Z</time>
      </trkpt>
      <trkpt lat="45.36525" lon="5.62037">
        <ele>398.6</ele>
        <time>2023-01-12T14:47:49Z</time>
      </trkpt>
      <trkpt lat="45.36525" lon="5.62034">
        <ele>398.12</ele>
        <time>2023-01-12T14:47:50Z</time>
      </trkpt>
      <trkpt lat="45.36524" lon="5.62031">
        <ele>397.16</ele>
        <time>2023-01-12T14:47:51Z</time>
      </trkpt>
      <trkpt lat="45.36521" lon="5.6203">
        <ele>395.72</ele>
        <time>2023-01-12T14:47:52Z</time>
      </trkpt>
      <trkpt lat="45.36518" lon="5.62031">
        <ele>394.76</ele>
        <time>2023-01-12T14:47:53Z</time>
      </trkpt>
      <trkpt lat="45.36516" lon="5.62035">
        <ele>394.76</ele>
        <time>2023-01-12T14:47:54Z</time>
      </trkpt>
      <trkpt lat="45.36513" lon="5.62039">
        <ele>394.76</ele>
        <time>2023-01-12T14:47:55Z</time>
      </trkpt>
      <trkpt lat="45.3651" lon="5.62045">
        <ele>394.76</ele>
        <time>2023-01-12T14:47:56Z</time>
      </trkpt>
      <trkpt lat="45.36486" lon="5.6208">
        <ele>393.8</ele>
        <time>2023-01-12T14:48:02Z</time>
      </trkpt>
      <trkpt lat="45.36481" lon="5.62085">
        <ele>393.8</ele>
        <time>2023-01-12T14:48:03Z</time>
      </trkpt>
      <trkpt lat="45.36476" lon="5.62089">
        <ele>393.32</ele>
        <time>2023-01-12T14:48:04Z</time>
      </trkpt>
      <trkpt lat="45.3647" lon="5.62091">
        <ele>393.32</ele>
        <time>2023-01-12T14:48:05Z</time>
      </trkpt>
      <trkpt lat="45.36463" lon="5.62091">
        <ele>392.36</ele>
        <time>2023-01-12T14:48:06Z</time>
      </trkpt>
      <trkpt lat="45.36418" lon="5.62093">
        <ele>388.51</ele>
        <time>2023-01-12T14:48:12Z</time>
      </trkpt>
      <trkpt lat="45.36383" lon="5.62092">
        <ele>384.66</ele>
        <time>2023-01-12T14:48:16Z</time>
      </trkpt>
      <trkpt lat="45.36375" lon="5.62091">
        <ele>383.7</ele>
        <time>2023-01-12T14:48:17Z</time>
      </trkpt>
      <trkpt lat="45.36367" lon="5.62087">
        <ele>381.78</ele>
        <time>2023-01-12T14:48:18Z</time>
      </trkpt>
      <trkpt lat="45.36362" lon="5.62079">
        <ele>380.34</ele>
        <time>2023-01-12T14:48:19Z</time>
      </trkpt>
      <trkpt lat="45.36359" lon="5.6207">
        <ele>379.86</ele>
        <time>2023-01-12T14:48:20Z</time>
      </trkpt>
      <trkpt lat="45.36357" lon="5.62058">
        <ele>378.9</ele>
        <time>2023-01-12T14:48:21Z</time>
      </trkpt>
      <trkpt lat="45.36356" lon="5.62046">
        <ele>378.42</ele>
        <time>2023-01-12T14:48:22Z</time>
      </trkpt>
      <trkpt lat="45.36355" lon="5.62035">
        <ele>376.97</ele>
        <time>2023-01-12T14:48:23Z</time>
      </trkpt>
      <trkpt lat="45.36355" lon="5.62023">
        <ele>376.01</ele>
        <time>2023-01-12T14:48:24Z</time>
      </trkpt>
      <trkpt lat="45.36354" lon="5.61978">
        <ele>373.13</ele>
        <time>2023-01-12T14:48:28Z</time>
      </trkpt>
      <trkpt lat="45.36352" lon="5.61958">
        <ele>370.24</ele>
        <time>2023-01-12T14:48:30Z</time>
      </trkpt>
      <trkpt lat="45.36347" lon="5.6194">
        <ele>368.8</ele>
        <time>2023-01-12T14:48:32Z</time>
      </trkpt>
      <trkpt lat="45.36344" lon="5.61933">
        <ele>368.8</ele>
        <time>2023-01-12T14:48:33Z</time>
      </trkpt>
      <trkpt lat="45.3634" lon="5.61925">
        <ele>368.32</ele>
        <time>2023-01-12T14:48:34Z</time>
      </trkpt>
      <trkpt lat="45.36336" lon="5.61919">
        <ele>366.88</ele>
        <time>2023-01-12T14:48:35Z</time>
      </trkpt>
      <trkpt lat="45.3633" lon="5.61913">
        <ele>366.88</ele>
        <time>2023-01-12T14:48:36Z</time>
      </trkpt>
      <trkpt lat="45.36323" lon="5.61908">
        <ele>365.92</ele>
        <time>2023-01-12T14:48:37Z</time>
      </trkpt>
      <trkpt lat="45.36316" lon="5.61905">
        <ele>365.44</ele>
        <time>2023-01-12T14:48:38Z</time>
      </trkpt>
      <trkpt lat="45.36309" lon="5.61902">
        <ele>364.48</ele>
        <time>2023-01-12T14:48:39Z</time>
      </trkpt>
      <trkpt lat="45.36296" lon="5.61896">
        <ele>363.04</ele>
        <time>2023-01-12T14:48:41Z</time>
      </trkpt>
      <trkpt lat="45.36291" lon="5.61891">
        <ele>362.07</ele>
        <time>2023-01-12T14:48:42Z</time>
      </trkpt>
      <trkpt lat="45.36272" lon="5.61868">
        <ele>359.19</ele>
        <time>2023-01-12T14:48:47Z</time>
      </trkpt>
      <trkpt lat="45.36265" lon="5.6186">
        <ele>357.27</ele>
        <time>2023-01-12T14:48:49Z</time>
      </trkpt>
      <trkpt lat="45.3626" lon="5.61858">
        <ele>356.79</ele>
        <time>2023-01-12T14:48:50Z</time>
      </trkpt>
      <trkpt lat="45.36251" lon="5.61853">
        <ele>355.83</ele>
        <time>2023-01-12T14:48:52Z</time>
      </trkpt>
      <trkpt lat="45.36222" lon="5.61841">
        <ele>352.94</ele>
        <time>2023-01-12T14:48:57Z</time>
      </trkpt>
      <trkpt lat="45.36204" lon="5.61835">
        <ele>351.5</ele>
        <time>2023-01-12T14:49:00Z</time>
      </trkpt>
      <trkpt lat="45.36184" lon="5.6183">
        <ele>350.06</ele>
        <time>2023-01-12T14:49:03Z</time>
      </trkpt>
      <trkpt lat="45.36165" lon="5.61829">
        <ele>348.13</ele>
        <time>2023-01-12T14:49:06Z</time>
      </trkpt>
      <trkpt lat="45.3616" lon="5.61832">
        <ele>347.65</ele>
        <time>2023-01-12T14:49:07Z</time>
      </trkpt>
      <trkpt lat="45.36081" lon="5.61887">
        <ele>345.25</ele>
        <time>2023-01-12T14:49:21Z</time>
      </trkpt>
      <trkpt lat="45.36073" lon="5.6189">
        <ele>344.29</ele>
        <time>2023-01-12T14:49:22Z</time>
      </trkpt>
      <trkpt lat="45.36066" lon="5.61892">
        <ele>344.29</ele>
        <time>2023-01-12T14:49:23Z</time>
      </trkpt>
      <trkpt lat="45.36012" lon="5.61904">
        <ele>341.41</ele>
        <time>2023-01-12T14:49:30Z</time>
      </trkpt>
      <trkpt lat="45.36004" lon="5.61906">
        <ele>340.92</ele>
        <time>2023-01-12T14:49:31Z</time>
      </trkpt>
      <trkpt lat="45.35898" lon="5.6193">
        <ele>337.56</ele>
        <time>2023-01-12T14:49:45Z</time>
      </trkpt>
      <trkpt lat="45.35824" lon="5.61956">
        <ele>334.68</ele>
        <time>2023-01-12T14:49:55Z</time>
      </trkpt>
      <trkpt lat="45.35817" lon="5.61959">
        <ele>334.68</ele>
        <time>2023-01-12T14:49:56Z</time>
      </trkpt>
      <trkpt lat="45.3581" lon="5.61961">
        <ele>334.68</ele>
        <time>2023-01-12T14:49:57Z</time>
      </trkpt>
      <trkpt lat="45.35786" lon="5.61967">
        <ele>333.71</ele>
        <time>2023-01-12T14:50:01Z</time>
      </trkpt>
      <trkpt lat="45.3578" lon="5.61967">
        <ele>333.23</ele>
        <time>2023-01-12T14:50:02Z</time>
      </trkpt>
      <trkpt lat="45.35774" lon="5.61964">
        <ele>332.75</ele>
        <time>2023-01-12T14:50:03Z</time>
      </trkpt>
      <trkpt lat="45.35768" lon="5.6196">
        <ele>332.75</ele>
        <time>2023-01-12T14:50:04Z</time>
      </trkpt>
      <trkpt lat="45.35762" lon="5.61956">
        <ele>332.75</ele>
        <time>2023-01-12T14:50:05Z</time>
      </trkpt>
      <trkpt lat="45.35733" lon="5.61933">
        <ele>332.75</ele>
        <time>2023-01-12T14:50:10Z</time>
      </trkpt>
      <trkpt lat="45.35729" lon="5.61927">
        <ele>332.75</ele>
        <time>2023-01-12T14:50:11Z</time>
      </trkpt>
      <trkpt lat="45.35725" lon="5.6192">
        <ele>333.23</ele>
        <time>2023-01-12T14:50:12Z</time>
      </trkpt>
      <trkpt lat="45.35713" lon="5.61882">
        <ele>334.2</ele>
        <time>2023-01-12T14:50:17Z</time>
      </trkpt>
      <trkpt lat="45.35703" lon="5.61849">
        <ele>334.68</ele>
        <time>2023-01-12T14:50:22Z</time>
      </trkpt>
      <trkpt lat="45.35704" lon="5.61844">
        <ele>335.16</ele>
        <time>2023-01-12T14:50:23Z</time>
      </trkpt>
      <trkpt lat="45.35706" lon="5.61839">
        <ele>334.2</ele>
        <time>2023-01-12T14:50:24Z</time>
      </trkpt>
      <trkpt lat="45.3571" lon="5.61836">
        <ele>335.16</ele>
        <time>2023-01-12T14:50:25Z</time>
      </trkpt>
      <trkpt lat="45.35714" lon="5.61834">
        <ele>334.68</ele>
        <time>2023-01-12T14:50:26Z</time>
      </trkpt>
      <trkpt lat="45.35719" lon="5.61831">
        <ele>334.68</ele>
        <time>2023-01-12T14:50:27Z</time>
      </trkpt>
      <trkpt lat="45.35729" lon="5.61823">
        <ele>334.2</ele>
        <time>2023-01-12T14:50:29Z</time>
      </trkpt>
      <trkpt lat="45.35735" lon="5.61817">
        <ele>333.71</ele>
        <time>2023-01-12T14:50:30Z</time>
      </trkpt>
      <trkpt lat="45.3574" lon="5.61811">
        <ele>332.75</ele>
        <time>2023-01-12T14:50:31Z</time>
      </trkpt>
      <trkpt lat="45.35743" lon="5.61802">
        <ele>331.79</ele>
        <time>2023-01-12T14:50:32Z</time>
      </trkpt>
      <trkpt lat="45.35745" lon="5.61791">
        <ele>330.83</ele>
        <time>2023-01-12T14:50:33Z</time>
      </trkpt>
      <trkpt lat="45.35746" lon="5.6178">
        <ele>330.35</ele>
        <time>2023-01-12T14:50:34Z</time>
      </trkpt>
      <trkpt lat="45.35751" lon="5.61742">
        <ele>326.02</ele>
        <time>2023-01-12T14:50:37Z</time>
      </trkpt>
      <trkpt lat="45.35754" lon="5.61704">
        <ele>322.66</ele>
        <time>2023-01-12T14:50:40Z</time>
      </trkpt>
      <trkpt lat="45.35758" lon="5.61683">
        <ele>321.22</ele>
        <time>2023-01-12T14:50:42Z</time>
      </trkpt>
      <trkpt lat="45.3576" lon="5.61675">
        <ele>320.74</ele>
        <time>2023-01-12T14:50:43Z</time>
      </trkpt>
      <trkpt lat="45.35762" lon="5.61669">
        <ele>319.78</ele>
        <time>2023-01-12T14:50:44Z</time>
      </trkpt>
      <trkpt lat="45.35761" lon="5.61662">
        <ele>319.3</ele>
        <time>2023-01-12T14:50:45Z</time>
      </trkpt>
      <trkpt lat="45.35759" lon="5.61656">
        <ele>319.78</ele>
        <time>2023-01-12T14:50:46Z</time>
      </trkpt>
      <trkpt lat="45.35756" lon="5.6165">
        <ele>319.3</ele>
        <time>2023-01-12T14:50:47Z</time>
      </trkpt>
      <trkpt lat="45.35752" lon="5.61645">
        <ele>319.3</ele>
        <time>2023-01-12T14:50:48Z</time>
      </trkpt>
      <trkpt lat="45.35748" lon="5.61639">
        <ele>319.3</ele>
        <time>2023-01-12T14:50:49Z</time>
      </trkpt>
      <trkpt lat="45.35744" lon="5.61632">
        <ele>319.3</ele>
        <time>2023-01-12T14:50:50Z</time>
      </trkpt>
      <trkpt lat="45.35735" lon="5.61621">
        <ele>321.22</ele>
        <time>2023-01-12T14:50:52Z</time>
      </trkpt>
      <trkpt lat="45.35731" lon="5.61617">
        <ele>320.74</ele>
        <time>2023-01-12T14:50:53Z</time>
      </trkpt>
      <trkpt lat="45.35727" lon="5.61614">
        <ele>321.22</ele>
        <time>2023-01-12T14:50:54Z</time>
      </trkpt>
      <trkpt lat="45.35724" lon="5.61612">
        <ele>320.74</ele>
        <time>2023-01-12T14:50:55Z</time>
      </trkpt>
      <trkpt lat="45.3572" lon="5.61611">
        <ele>322.66</ele>
        <time>2023-01-12T14:50:56Z</time>
      </trkpt>
      <trkpt lat="45.35705" lon="5.61605">
        <ele>325.54</ele>
        <time>2023-01-12T14:51:01Z</time>
      </trkpt>
      <trkpt lat="45.35683" lon="5.61589">
        <ele>324.1</ele>
        <time>2023-01-12T14:51:06Z</time>
      </trkpt>
      <trkpt lat="45.35665" lon="5.61582">
        <ele>323.62</ele>
        <time>2023-01-12T14:51:09Z</time>
      </trkpt>
      <trkpt lat="45.35641" lon="5.61568">
        <ele>323.14</ele>
        <time>2023-01-12T14:51:13Z</time>
      </trkpt>
      <trkpt lat="45.35623" lon="5.61549">
        <ele>321.7</ele>
        <time>2023-01-12T14:51:16Z</time>
      </trkpt>
      <trkpt lat="45.3558" lon="5.61503">
        <ele>318.33</ele>
        <time>2023-01-12T14:51:23Z</time>
      </trkpt>
      <trkpt lat="45.35574" lon="5.615">
        <ele>318.81</ele>
        <time>2023-01-12T14:51:24Z</time>
      </trkpt>
      <trkpt lat="45.35568" lon="5.61498">
        <ele>318.81</ele>
        <time>2023-01-12T14:51:25Z</time>
      </trkpt>
      <trkpt lat="45.3553" lon="5.61492">
        <ele>320.74</ele>
        <time>2023-01-12T14:51:33Z</time>
      </trkpt>
      <trkpt lat="45.35525" lon="5.61489">
        <ele>320.74</ele>
        <time>2023-01-12T14:51:34Z</time>
      </trkpt>
      <trkpt lat="45.35521" lon="5.61485">
        <ele>320.74</ele>
        <time>2023-01-12T14:51:35Z</time>
      </trkpt>
      <trkpt lat="45.35518" lon="5.61481">
        <ele>320.26</ele>
        <time>2023-01-12T14:51:36Z</time>
      </trkpt>
      <trkpt lat="45.35514" lon="5.61477">
        <ele>320.26</ele>
        <time>2023-01-12T14:51:37Z</time>
      </trkpt>
      <trkpt lat="45.35511" lon="5.61472">
        <ele>320.26</ele>
        <time>2023-01-12T14:51:38Z</time>
      </trkpt>
      <trkpt lat="45.35509" lon="5.61466">
        <ele>320.26</ele>
        <time>2023-01-12T14:51:39Z</time>
      </trkpt>
      <trkpt lat="45.35507" lon="5.61458">
        <ele>319.3</ele>
        <time>2023-01-12T14:51:40Z</time>
      </trkpt>
      <trkpt lat="45.35506" lon="5.61449">
        <ele>319.3</ele>
        <time>2023-01-12T14:51:41Z</time>
      </trkpt>
      <trkpt lat="45.35505" lon="5.61439">
        <ele>318.33</ele>
        <time>2023-01-12T14:51:42Z</time>
      </trkpt>
      <trkpt lat="45.35499" lon="5.61391">
        <ele>315.45</ele>
        <time>2023-01-12T14:51:47Z</time>
      </trkpt>
      <trkpt lat="45.35493" lon="5.61368">
        <ele>314.01</ele>
        <time>2023-01-12T14:51:50Z</time>
      </trkpt>
      <trkpt lat="45.35492" lon="5.61361">
        <ele>313.53</ele>
        <time>2023-01-12T14:51:51Z</time>
      </trkpt>
      <trkpt lat="45.35493" lon="5.61355">
        <ele>313.53</ele>
        <time>2023-01-12T14:51:52Z</time>
      </trkpt>
      <trkpt lat="45.35495" lon="5.61341">
        <ele>313.05</ele>
        <time>2023-01-12T14:51:54Z</time>
      </trkpt>
      <trkpt lat="45.35496" lon="5.61334">
        <ele>313.05</ele>
        <time>2023-01-12T14:51:55Z</time>
      </trkpt>
      <trkpt lat="45.35501" lon="5.61306">
        <ele>312.09</ele>
        <time>2023-01-12T14:51:59Z</time>
      </trkpt>
      <trkpt lat="45.355" lon="5.61301">
        <ele>312.09</ele>
        <time>2023-01-12T14:52:00Z</time>
      </trkpt>
      <trkpt lat="45.35496" lon="5.61299">
        <ele>311.6</ele>
        <time>2023-01-12T14:52:01Z</time>
      </trkpt>
      <trkpt lat="45.35492" lon="5.613">
        <ele>311.6</ele>
        <time>2023-01-12T14:52:02Z</time>
      </trkpt>
      <trkpt lat="45.35489" lon="5.61302">
        <ele>312.09</ele>
        <time>2023-01-12T14:52:03Z</time>
      </trkpt>
      <trkpt lat="45.35485" lon="5.61303">
        <ele>312.09</ele>
        <time>2023-01-12T14:52:04Z</time>
      </trkpt>
      <trkpt lat="45.35482" lon="5.61302">
        <ele>312.09</ele>
        <time>2023-01-12T14:52:05Z</time>
      </trkpt>
      <trkpt lat="45.35478" lon="5.61299">
        <ele>312.57</ele>
        <time>2023-01-12T14:52:06Z</time>
      </trkpt>
      <trkpt lat="45.35432" lon="5.61249">
        <ele>311.6</ele>
        <time>2023-01-12T14:52:17Z</time>
      </trkpt>
      <trkpt lat="45.35392" lon="5.61138">
        <ele>310.16</ele>
        <time>2023-01-12T14:52:31Z</time>
      </trkpt>
    </trkseg>
  </trk>
</gpx>